[[{"header":{"parameterUnit":"m.s-1","parameterCategory":1,"la1":30.6,"la2":29.2853,"lo1":-89.7004,"lo2":-87.6739,"dy":0.0162,"dx":0.0183,"nx":112,"ny":82,"refTime":"2023-08-07T12:00:00:Z","depth":0,"parameterNumber":2,"parameterNumberName":"U-component_of_WINDS"},"data":[0.0,0.0,0.0,0.0,0.0,0.0,0.0,0.0,0.0,0.0,0.0,0.0,0.0,0.0,0.0,0.0,0.0,0.0,0.0,0.0,0.0,0.0,0.0,0.0,0.0,0.0,0.0,0.0,0.0,0.0,0.0,0.0,0.0,0.0,0.0,0.0,0.0,0.0,0.0,0.0,0.0,0.0,0.0,0.0,0.0,0.0,0.0,0.0,0.0,0.0,0.0,0.0,0.0,0.0,0.0,0.0,0.0,0.0,0.0,0.0,0.0,0.0,0.0,0.0,0.0,0.0,0.0,0.0,0.0,0.0,0.0,0.0,0.0,0.0,0.0,0.0,0.0,0.0,0.0,0.0,0.0,0.0,0.0,0.0,0.0,0.0,0.0,0.0,0.0,0.0,0.0,-6.803,-7.6284,-8.2069,-8.3524,-8.2678,-7.8416,-6.9779,0.0,0.0,0.0,0.0,0.0,0.0,0.0,0.0,0.0,0.0,0.0,0.0,0.0,0.0,0.0,0.0,0.0,0.0,0.0,0.0,0.0,0.0,0.0,0.0,0.0,0.0,0.0,0.0,0.0,0.0,0.0,0.0,0.0,0.0,0.0,0.0,0.0,0.0,0.0,0.0,0.0,0.0,0.0,0.0,0.0,0.0,0.0,0.0,0.0,0.0,0.0,0.0,0.0,0.0,0.0,0.0,0.0,0.0,0.0,0.0,0.0,0.0,0.0,0.0,0.0,0.0,0.0,0.0,0.0,0.0,0.0,0.0,0.0,0.0,0.0,0.0,0.0,0.0,0.0,0.0,0.0,0.0,0.0,0.0,0.0,0.0,0.0,0.0,0.0,0.0,0.0,0.0,0.0,0.0,0.0,0.0,0.0,0.0,0.0,0.0,0.0,0.0,0.0,0.0,-6.5831,-7.527,-7.987,-8.2847,-8.4336,-8.2035,-7.7487,-7.0243,0.0,0.0,0.0,0.0,0.0,0.0,0.0,0.0,0.0,0.0,0.0,0.0,0.0,0.0,0.0,0.0,0.0,0.0,0.0,0.0,0.0,0.0,0.0,0.0,0.0,0.0,0.0,0.0,0.0,0.0,0.0,0.0,0.0,0.0,0.0,0.0,0.0,0.0,0.0,0.0,0.0,0.0,0.0,0.0,0.0,0.0,0.0,0.0,0.0,0.0,0.0,0.0,0.0,0.0,0.0,0.0,0.0,0.0,0.0,0.0,0.0,0.0,0.0,0.0,0.0,0.0,0.0,0.0,0.0,0.0,0.0,0.0,0.0,0.0,0.0,0.0,0.0,0.0,0.0,0.0,0.0,0.0,0.0,0.0,0.0,0.0,0.0,0.0,0.0,0.0,0.0,0.0,0.0,0.0,0.0,0.0,0.0,0.0,0.0,0.0,0.0,0.0,0.0,-6.4072,-6.8774,-7.7638,-8.0885,-8.3016,-8.4505,-8.2116,-7.7864,-7.1512,-6.7611,0.0,0.0,0.0,0.0,0.0,0.0,0.0,0.0,0.0,0.0,0.0,0.0,0.0,0.0,0.0,0.0,0.0,0.0,0.0,0.0,0.0,0.0,0.0,0.0,0.0,0.0,0.0,0.0,0.0,0.0,0.0,0.0,0.0,0.0,0.0,0.0,0.0,0.0,0.0,0.0,0.0,0.0,0.0,0.0,0.0,0.0,0.0,0.0,0.0,0.0,0.0,0.0,0.0,0.0,0.0,0.0,0.0,0.0,0.0,0.0,0.0,0.0,0.0,0.0,0.0,0.0,0.0,0.0,0.0,0.0,0.0,0.0,0.0,0.0,0.0,0.0,0.0,0.0,0.0,0.0,0.0,0.0,0.0,0.0,0.0,0.0,0.0,0.0,0.0,0.0,0.0,0.0,0.0,0.0,0.0,0.0,0.0,0.0,0.0,0.0,0.0,0.0,-6.7996,-7.1751,-7.8416,-8.0919,-8.2626,-8.3892,-8.1304,-7.7244,-7.1766,-6.6544,0.0,0.0,0.0,0.0,0.0,0.0,0.0,0.0,0.0,0.0,0.0,0.0,0.0,0.0,0.0,0.0,0.0,0.0,0.0,0.0,0.0,0.0,0.0,0.0,0.0,0.0,0.0,0.0,0.0,0.0,0.0,0.0,0.0,0.0,0.0,0.0,0.0,0.0,0.0,0.0,0.0,0.0,0.0,0.0,0.0,0.0,0.0,0.0,0.0,0.0,0.0,0.0,0.0,0.0,0.0,0.0,0.0,0.0,0.0,0.0,0.0,0.0,0.0,0.0,0.0,0.0,0.0,0.0,0.0,0.0,0.0,0.0,0.0,0.0,0.0,0.0,0.0,0.0,0.0,0.0,0.0,0.0,0.0,0.0,0.0,0.0,0.0,0.0,0.0,0.0,0.0,0.0,0.0,0.0,0.0,0.0,0.0,0.0,0.0,0.0,0.0,0.0,-6.962,-7.4627,-7.8686,-8.0479,-8.1594,-8.2143,-7.8236,-7.3951,-6.9695,-6.3942,0.0,0.0,0.0,0.0,0.0,0.0,0.0,0.0,0.0,0.0,0.0,0.0,0.0,0.0,0.0,0.0,0.0,0.0,0.0,0.0,0.0,0.0,0.0,0.0,0.0,0.0,0.0,0.0,0.0,0.0,0.0,0.0,0.0,0.0,0.0,0.0,0.0,0.0,0.0,0.0,0.0,0.0,0.0,0.0,0.0,0.0,0.0,0.0,0.0,0.0,0.0,0.0,0.0,0.0,0.0,0.0,0.0,0.0,0.0,0.0,0.0,0.0,0.0,0.0,0.0,0.0,0.0,0.0,0.0,0.0,0.0,0.0,0.0,0.0,0.0,0.0,0.0,0.0,0.0,0.0,0.0,0.0,0.0,0.0,0.0,0.0,0.0,0.0,0.0,0.0,0.0,0.0,0.0,0.0,0.0,0.0,0.0,0.0,0.0,0.0,0.0,0.0,-6.8041,-7.2788,0.0,-7.9701,-8.0875,-8.1073,-7.8569,-7.472,-6.9536,0.0,0.0,0.0,0.0,0.0,0.0,0.0,0.0,0.0,0.0,0.0,0.0,0.0,0.0,0.0,0.0,0.0,0.0,0.0,0.0,0.0,0.0,0.0,0.0,0.0,0.0,0.0,0.0,0.0,0.0,0.0,0.0,0.0,0.0,0.0,0.0,0.0,0.0,0.0,0.0,0.0,0.0,0.0,0.0,0.0,0.0,0.0,0.0,0.0,0.0,0.0,0.0,0.0,0.0,0.0,0.0,0.0,0.0,0.0,0.0,0.0,0.0,0.0,0.0,0.0,0.0,0.0,0.0,0.0,0.0,0.0,0.0,0.0,0.0,0.0,0.0,0.0,0.0,0.0,0.0,0.0,0.0,0.0,0.0,0.0,0.0,0.0,0.0,0.0,0.0,0.0,0.0,0.0,0.0,0.0,0.0,0.0,0.0,0.0,0.0,0.0,0.0,-6.3134,-6.7285,-7.1533,0.0,-7.8319,-7.9422,-7.9317,-7.6958,-7.3407,-6.8665,0.0,0.0,0.0,0.0,0.0,0.0,0.0,0.0,0.0,0.0,0.0,0.0,0.0,0.0,0.0,0.0,0.0,0.0,0.0,0.0,0.0,0.0,0.0,0.0,0.0,0.0,0.0,0.0,0.0,0.0,0.0,0.0,0.0,0.0,0.0,0.0,0.0,0.0,0.0,0.0,0.0,0.0,0.0,0.0,0.0,0.0,0.0,0.0,0.0,0.0,0.0,0.0,0.0,0.0,0.0,0.0,0.0,0.0,0.0,0.0,0.0,0.0,0.0,0.0,0.0,0.0,0.0,0.0,0.0,0.0,0.0,0.0,0.0,0.0,0.0,0.0,0.0,0.0,0.0,0.0,0.0,0.0,0.0,0.0,0.0,0.0,0.0,0.0,0.0,0.0,0.0,0.0,0.0,0.0,0.0,0.0,0.0,0.0,0.0,0.0,0.0,0.0,-6.3706,-6.7936,-7.1734,-7.4683,-7.6324,-7.7077,-7.6822,-7.2756,-6.9118,0.0,0.0,0.0,0.0,0.0,0.0,0.0,0.0,0.0,0.0,0.0,0.0,0.0,0.0,0.0,0.0,0.0,0.0,0.0,0.0,0.0,0.0,0.0,0.0,0.0,0.0,0.0,0.0,0.0,0.0,0.0,0.0,0.0,0.0,0.0,0.0,0.0,0.0,0.0,0.0,0.0,0.0,0.0,0.0,0.0,0.0,0.0,0.0,0.0,0.0,0.0,0.0,0.0,0.0,0.0,0.0,0.0,0.0,0.0,0.0,0.0,0.0,0.0,0.0,0.0,0.0,0.0,0.0,0.0,0.0,0.0,0.0,0.0,0.0,0.0,0.0,0.0,0.0,0.0,0.0,0.0,0.0,0.0,0.0,0.0,0.0,0.0,0.0,0.0,0.0,0.0,0.0,0.0,0.0,0.0,0.0,0.0,0.0,0.0,0.0,0.0,0.0,0.0,-6.2993,-6.7291,-7.1028,-7.3605,-7.5488,-7.6332,-7.5783,-7.3127,-6.9827,-6.5989,0.0,0.0,0.0,0.0,0.0,0.0,0.0,0.0,0.0,0.0,0.0,0.0,0.0,0.0,0.0,0.0,0.0,0.0,0.0,0.0,0.0,0.0,0.0,0.0,0.0,0.0,0.0,0.0,0.0,0.0,0.0,0.0,0.0,0.0,0.0,0.0,0.0,0.0,0.0,0.0,0.0,0.0,0.0,0.0,0.0,0.0,0.0,0.0,0.0,0.0,0.0,0.0,0.0,0.0,0.0,0.0,0.0,0.0,0.0,0.0,0.0,0.0,0.0,0.0,0.0,0.0,0.0,0.0,0.0,0.0,0.0,0.0,0.0,0.0,0.0,0.0,0.0,0.0,0.0,0.0,0.0,0.0,0.0,0.0,0.0,0.0,0.0,0.0,0.0,0.0,0.0,0.0,0.0,0.0,0.0,0.0,0.0,0.0,0.0,0.0,0.0,0.0,-6.2848,-6.659,-6.9912,-7.2546,-7.4172,-7.4867,-7.4436,-7.2945,-6.9864,-6.4895,0.0,0.0,0.0,0.0,0.0,0.0,0.0,0.0,0.0,0.0,0.0,0.0,0.0,0.0,0.0,0.0,0.0,0.0,0.0,0.0,0.0,0.0,0.0,0.0,0.0,0.0,0.0,0.0,0.0,0.0,0.0,0.0,0.0,0.0,0.0,0.0,0.0,0.0,0.0,0.0,0.0,0.0,0.0,0.0,0.0,0.0,0.0,0.0,0.0,0.0,0.0,0.0,0.0,0.0,0.0,0.0,0.0,0.0,0.0,0.0,0.0,0.0,0.0,0.0,0.0,0.0,0.0,0.0,0.0,0.0,0.0,0.0,0.0,0.0,0.0,0.0,0.0,0.0,0.0,0.0,0.0,0.0,0.0,0.0,0.0,0.0,0.0,0.0,0.0,0.0,0.0,0.0,0.0,0.0,0.0,0.0,0.0,0.0,0.0,0.0,0.0,0.0,-6.3149,-6.5957,-6.8738,-7.1587,-7.2614,-7.3078,-7.3011,-7.2316,-6.9467,-6.3779,0.0,0.0,0.0,0.0,0.0,0.0,0.0,0.0,0.0,0.0,0.0,0.0,0.0,0.0,0.0,0.0,0.0,0.0,0.0,0.0,0.0,0.0,0.0,0.0,0.0,0.0,0.0,0.0,0.0,0.0,0.0,0.0,0.0,0.0,0.0,0.0,0.0,0.0,0.0,0.0,0.0,0.0,0.0,0.0,0.0,0.0,0.0,0.0,0.0,0.0,0.0,0.0,0.0,0.0,0.0,0.0,0.0,0.0,0.0,0.0,-7.1195,0.0,0.0,0.0,0.0,0.0,0.0,0.0,0.0,0.0,0.0,0.0,0.0,0.0,0.0,0.0,0.0,0.0,0.0,0.0,0.0,0.0,0.0,0.0,0.0,0.0,0.0,0.0,0.0,0.0,0.0,0.0,0.0,0.0,0.0,0.0,0.0,0.0,0.0,0.0,0.0,0.0,-6.3215,-6.5957,-6.8539,-7.0891,-7.2316,-7.2879,-7.2283,-7.1554,-6.9136,-6.4432,-6.1682,0.0,0.0,0.0,0.0,0.0,0.0,0.0,0.0,0.0,0.0,0.0,0.0,0.0,0.0,0.0,0.0,0.0,0.0,0.0,0.0,0.0,0.0,0.0,0.0,0.0,0.0,0.0,0.0,0.0,0.0,0.0,0.0,0.0,0.0,0.0,0.0,0.0,0.0,0.0,0.0,0.0,0.0,0.0,0.0,0.0,0.0,0.0,0.0,0.0,0.0,0.0,0.0,0.0,0.0,0.0,0.0,0.0,0.0,0.0,0.0,-7.2226,0.0,0.0,0.0,0.0,0.0,0.0,0.0,0.0,0.0,0.0,0.0,0.0,0.0,0.0,0.0,0.0,0.0,0.0,0.0,0.0,0.0,0.0,0.0,0.0,0.0,0.0,0.0,0.0,0.0,0.0,0.0,0.0,0.0,0.0,0.0,0.0,0.0,0.0,0.0,0.0,-6.3112,-6.5868,-6.8473,-7.0659,-7.1587,-7.1885,-7.1488,-7.1123,-6.8871,-6.4133,-6.1706,0.0,0.0,0.0,0.0,0.0,0.0,0.0,0.0,0.0,0.0,0.0,0.0,0.0,0.0,0.0,0.0,0.0,0.0,0.0,0.0,0.0,0.0,0.0,0.0,0.0,0.0,0.0,0.0,0.0,0.0,0.0,0.0,0.0,0.0,0.0,0.0,0.0,0.0,0.0,0.0,0.0,0.0,0.0,0.0,0.0,0.0,0.0,0.0,0.0,0.0,0.0,0.0,0.0,0.0,-7.9249,-7.9108,-7.913,-7.891,-7.8415,-7.5976,-7.3637,-7.1625,0.0,0.0,0.0,0.0,0.0,0.0,0.0,0.0,0.0,0.0,0.0,0.0,0.0,0.0,0.0,0.0,0.0,0.0,0.0,0.0,0.0,0.0,0.0,0.0,0.0,-6.4619,-6.4171,0.0,0.0,0.0,0.0,0.0,0.0,0.0,0.0,0.0,0.0,0.0,0.0,-6.3007,-6.5823,-6.8407,-7.0494,-7.0825,-7.0858,-7.0726,-7.0825,-6.8777,-6.3881,-6.1937,-5.9209,0.0,0.0,0.0,0.0,0.0,0.0,0.0,0.0,0.0,0.0,0.0,0.0,0.0,0.0,0.0,0.0,0.0,0.0,0.0,0.0,0.0,0.0,0.0,0.0,0.0,0.0,0.0,0.0,0.0,0.0,0.0,0.0,-5.8737,-6.0516,0.0,0.0,0.0,0.0,0.0,0.0,0.0,0.0,0.0,0.0,0.0,0.0,0.0,0.0,-7.8014,-7.9102,-8.0167,-8.1065,-8.2615,-8.2954,-8.2287,-8.2291,-8.1767,-8.0837,-8.0961,0.0,-7.4412,-7.3595,0.0,0.0,0.0,0.0,0.0,0.0,0.0,0.0,0.0,0.0,0.0,0.0,0.0,0.0,0.0,0.0,0.0,0.0,0.0,0.0,0.0,0.0,-6.3915,-6.5005,-6.5282,-6.5205,0.0,-6.2813,-6.0717,-5.9391,0.0,0.0,0.0,0.0,0.0,0.0,0.0,0.0,-6.3116,-6.5823,-6.8208,-6.9765,-7.0527,-7.0626,-6.9997,-7.0527,-6.9085,-6.4861,-6.2788,-6.0406,-5.7539,-5.3904,0.0,0.0,0.0,0.0,0.0,0.0,0.0,0.0,0.0,0.0,0.0,0.0,0.0,0.0,0.0,0.0,0.0,0.0,0.0,0.0,0.0,0.0,0.0,0.0,0.0,0.0,0.0,0.0,0.0,-5.9099,-6.0963,-6.1472,-6.2831,-6.3595,0.0,0.0,0.0,0.0,0.0,0.0,0.0,0.0,0.0,-7.6854,-7.8514,-8.0241,-8.2186,-8.3227,-8.3987,-8.4326,-8.5879,-8.6436,-8.6075,-8.6064,-8.5765,-8.5119,-8.4762,-8.2631,-7.925,-7.6922,-7.4187,-7.1312,0.0,0.0,0.0,0.0,0.0,-6.9823,-6.9925,0.0,0.0,0.0,0.0,0.0,0.0,0.0,0.0,0.0,0.0,0.0,0.0,0.0,0.0,-6.6666,-6.7372,-6.7777,-6.7347,-6.6,-6.4231,0.0,-6.024,-5.88,-5.7674,0.0,0.0,0.0,0.0,0.0,-6.3703,-6.6419,-6.8606,-6.9666,-7.0096,-6.9889,-6.8912,-6.9125,-6.7801,-6.4186,-6.2246,-6.009,-5.7459,-5.4764,-5.2732,0.0,0.0,0.0,0.0,0.0,0.0,0.0,0.0,0.0,0.0,0.0,0.0,0.0,0.0,0.0,0.0,0.0,0.0,0.0,0.0,0.0,0.0,0.0,0.0,0.0,0.0,0.0,0.0,-6.0984,-6.2815,-6.1931,-6.4619,-6.6012,0.0,0.0,0.0,0.0,0.0,0.0,-7.4064,-7.7673,-8.007,-8.0851,-8.2951,-8.4807,-8.6354,-8.7075,-8.7527,-8.7749,-8.9327,-8.995,-8.9743,-8.995,-8.9603,-8.8821,-8.8115,-8.6261,-8.3548,-8.0039,-7.6589,-7.3443,-7.2529,-7.1379,-7.0297,-7.0838,-7.1515,-7.2225,-7.2563,-7.2462,-7.1954,-7.0635,0.0,-6.7354,-6.5493,0.0,0.0,0.0,0.0,-6.5655,-6.6333,0.0,-6.7908,-6.8273,-6.9144,-6.9633,-6.9103,-6.8274,-6.6883,0.0,-6.2643,-6.1251,-5.996,0.0,0.0,0.0,0.0,-6.3249,-6.4465,-6.7016,-6.897,-6.9699,-6.9798,-6.9478,-6.8601,-6.8141,-6.6685,-6.4013,-6.1928,-5.9723,-5.7337,-5.5329,-5.3208,-5.0964,0.0,0.0,0.0,0.0,0.0,0.0,0.0,0.0,0.0,0.0,0.0,0.0,0.0,0.0,0.0,0.0,0.0,0.0,0.0,0.0,0.0,0.0,0.0,0.0,0.0,0.0,0.0,0.0,0.0,-6.1571,-6.6415,0.0,0.0,0.0,0.0,-7.205,-7.5605,-7.8129,-7.9002,-8.2015,-8.41,-8.4889,-8.6394,-8.7948,-8.9484,-9.0209,-9.095,-9.1728,-9.3281,-9.3606,-9.2882,-9.3641,-9.292,-9.0947,-9.0878,-8.9287,-8.6332,-8.19,-7.8754,-7.6521,-7.5033,-7.395,-7.3274,-7.3308,-7.3781,-7.4356,-7.368,-7.3883,-7.4322,-7.351,-7.1785,-6.9857,-6.9045,-6.7793,0.0,0.0,-6.5995,-6.631,-6.7285,-6.7579,-6.7976,-6.9368,-6.9732,-6.9765,-6.9732,-6.8639,-6.7135,0.0,-6.4133,-6.2951,-6.2188,0.0,-6.0986,-6.0953,-6.2842,-6.4531,-6.526,-6.7314,-6.897,-6.9699,-6.9798,-6.9798,-6.9751,-6.816,-6.6606,-6.5362,-6.2477,-6.0001,-5.8091,-5.495,-5.2912,-5.2115,-4.9674,0.0,0.0,0.0,0.0,0.0,0.0,0.0,0.0,0.0,0.0,0.0,0.0,0.0,0.0,0.0,0.0,0.0,0.0,0.0,0.0,0.0,0.0,0.0,0.0,0.0,0.0,0.0,0.0,-6.8362,-7.2532,0.0,0.0,-7.3944,-7.5339,-7.6175,-7.9304,-8.1791,-8.3066,-8.6983,-8.95,-9.026,-9.1744,-9.302,-9.4054,-9.433,-9.4123,-9.3468,-9.4503,-9.4606,-9.3882,-9.4158,-9.3381,-9.1767,-9.1288,-8.9491,-8.6738,-8.464,-8.19,-7.8923,-7.7908,-7.6454,-7.5033,-7.6014,-7.686,-7.7468,-7.7198,-7.7299,-7.7063,-7.4356,-7.1988,-7.006,-6.9316,-6.8577,-6.7964,-6.7624,-6.7736,-6.819,-6.8865,-6.9036,-6.9136,-6.9666,-6.9798,-6.9798,-6.9798,-6.9401,-6.8871,-6.8341,-6.6287,-6.4266,-6.3116,-6.2676,-6.2345,-6.1848,-6.3637,-6.5069,-6.5041,-6.7589,-6.8989,-6.777,-6.8928,-6.8764,-6.6139,-6.5975,-6.4682,-6.1523,-6.0289,-5.8678,-5.6316,-5.47,-5.2935,-5.0913,-4.9613,-4.8386,0.0,0.0,0.0,0.0,0.0,0.0,0.0,0.0,0.0,0.0,0.0,0.0,0.0,0.0,0.0,0.0,0.0,0.0,0.0,0.0,0.0,0.0,0.0,0.0,0.0,0.0,-7.1434,-7.2724,-7.6943,-7.9121,-7.7345,-7.8807,-8.0185,-8.103,-8.4121,-8.6536,-8.7812,-9.1709,-9.4123,-9.4641,-9.5882,-9.6641,-9.6883,-9.6883,-9.6262,-9.5055,-9.5537,-9.5503,-9.502,-9.4779,-9.3759,-9.2177,-9.1664,-8.9866,-8.7211,-8.6467,-8.4234,-8.1224,-8.0513,-7.9295,-7.8044,-7.8822,-7.9566,-8.0209,-7.9938,-7.9532,-7.8619,-7.5608,-7.3308,-7.1548,-7.0804,-7.022,-6.976,-6.9489,-6.9461,-6.9483,-6.9713,-6.9964,-7.0163,-7.0163,-7.0163,-7.0163,-7.0163,-6.9964,-6.9732,-6.9467,-6.7645,-6.5856,-6.4895,-6.4332,-6.3902,-6.367,-6.5061,-6.6113,-6.6119,-6.7961,-6.8634,-6.7157,-6.8004,-6.7461,-6.4586,-6.4214,-6.2819,-5.9524,-5.8564,-5.7034,-5.461,-5.4102,-5.2815,-5.0554,-4.9494,-4.8342,-4.7149,0.0,0.0,0.0,0.0,0.0,0.0,0.0,0.0,0.0,0.0,0.0,0.0,0.0,0.0,0.0,0.0,0.0,0.0,0.0,0.0,0.0,0.0,0.0,-6.4072,-7.0279,-7.4593,-7.4136,-7.9396,-8.219,-8.0051,-8.3225,-8.5708,-8.6467,-9.0019,-9.2468,-9.3192,-9.6124,-9.7779,-9.7779,-9.8469,-9.8469,-9.7745,-9.7745,-9.7296,-9.6503,-9.6538,-9.6503,-9.6434,-9.5675,-9.4172,-9.2211,-9.2142,-9.0547,-8.7922,-8.7177,-8.5554,-8.3422,-8.2712,-8.2374,-8.2272,-8.1528,-8.1731,-8.2272,-8.1494,-8.031,-7.8855,-7.7367,-7.5879,-7.4492,-7.3747,-7.2818,-7.198,-7.1747,-7.1011,-7.0162,-6.9893,-7.0328,-7.0858,-7.0858,-7.0858,-7.0858,-7.0858,-7.0295,-6.9599,-6.8871,-6.8142,-6.7599,-6.7566,-6.6386,-6.569,-6.6386,-6.7102,0.0,-6.8479,-6.8242,-6.8021,-6.7921,-6.7002,-6.6059,-6.5333,-6.311,-6.1205,-5.9767,-5.7435,-5.5209,-5.3234,-5.3144,-5.2486,-5.1139,-4.9224,-4.7776,-4.6901,0.0,0.0,0.0,0.0,0.0,0.0,0.0,0.0,0.0,0.0,0.0,0.0,0.0,0.0,0.0,0.0,0.0,0.0,0.0,0.0,0.0,0.0,-6.8226,-6.8223,-7.3023,-7.7471,-8.0086,-8.3811,-8.6363,-8.6846,-8.8846,-9.0433,-9.1157,-9.4261,-9.6193,-9.64,-9.878,-10.0159,-10.0159,-9.978,-9.9504,-9.9297,-9.8745,-9.7814,-9.6503,-9.709,-9.6779,-9.5675,-9.4661,-9.3525,-9.2142,-9.0828,-8.9156,-8.7144,-8.6399,-8.508,-8.3422,-8.2712,-8.1765,-8.0851,-8.1156,-8.1426,-8.1494,-8.075,-7.9532,-7.8145,-7.7198,-7.5879,-7.4559,-7.4356,-7.342,-7.2384,-7.1835,-7.1237,-7.0557,-6.9978,-6.9931,-7.0096,-7.0096,-7.0096,-7.0096,-7.0096,-6.9931,-6.9732,-6.9533,-6.8904,-6.8076,-6.7016,-6.6485,-6.6088,-6.5757,0.0,0.0,-6.5568,-6.6288,-6.6269,-6.4654,-6.5629,-6.5268,-6.2537,-6.1567,-5.9951,0.0,-5.52,-5.3533,-5.2516,-5.2007,-5.093,-4.9134,-4.7881,-4.6915,0.0,0.0,0.0,0.0,0.0,0.0,0.0,0.0,0.0,0.0,0.0,0.0,0.0,0.0,0.0,0.0,0.0,0.0,0.0,0.0,0.0,0.0,-6.828,-7.1962,-7.3782,-7.7137,-8.0738,-8.4397,-8.6915,-8.8984,-9.0502,-9.233,-9.3606,-9.402,-9.6883,-9.8607,-9.8607,-10.078,-10.1884,-10.1573,-10.109,-10.0573,-9.9883,-9.9469,-9.8504,-9.6986,-9.7469,-9.6883,-9.5365,-9.4296,-9.3036,0.0,-9.0227,-8.8537,-8.6839,-8.6095,-8.4708,0.0,0.0,0.0,0.0,0.0,-8.2035,-8.1663,-8.0919,-7.9701,-7.828,-7.7232,-7.6284,-7.5459,-7.5026,-7.3898,-7.2658,-7.2128,-7.1228,-7.0328,-6.9898,-6.9798,-6.9798,-6.9798,-6.9566,-6.9334,-6.9334,-6.9103,-6.8904,-6.8904,0.0,0.0,-6.6684,-6.6784,-6.6949,-6.6817,-6.6918,-6.6706,0.0,-6.5765,-6.5227,-6.3902,-6.4543,-6.3936,-6.1336,-6.0499,0.0,0.0,0.0,-5.2636,-5.1439,-5.102,0.0,0.0,0.0,-4.7361,0.0,0.0,0.0,0.0,-4.5464,-4.5171,0.0,0.0,0.0,0.0,0.0,0.0,0.0,0.0,0.0,0.0,0.0,0.0,0.0,0.0,0.0,0.0,-7.1488,-7.4956,-7.9453,-8.1679,-8.3949,-8.7037,-8.8708,-9.026,-9.195,-9.4089,-9.5503,-9.5744,-9.8504,-10.0194,-10.0297,0.0,0.0,0.0,0.0,-10.1297,-9.978,-9.9676,-9.8952,-9.7538,-9.7469,-9.6676,-9.5172,-9.4034,-9.257,-9.0994,-8.9832,-8.8401,-8.6839,-8.5824,-8.4167,-8.2272,-8.2272,-8.2272,-8.2374,-8.3084,-8.2915,0.0,0.0,0.0,0.0,-7.7266,-7.6724,-7.6473,-7.5474,-7.4056,-7.2677,-7.2271,-7.1032,-6.9765,-6.9599,-6.9533,-6.9533,-6.9533,-6.9036,-6.8572,-6.8572,-6.8076,-6.7566,-6.7566,-6.7082,-6.6606,-6.6606,-6.7069,-6.7632,-6.8101,-6.7329,0.0,-6.73,-6.5625,-6.439,-6.4298,0.0,0.0,-6.1104,-5.9697,-5.7842,-5.5448,-5.3892,-5.2217,-5.0255,-5.0196,-4.9673,-4.8416,-4.8955,-4.8432,-4.6742,-4.6786,-4.6548,-4.6143,-4.6149,-4.5858,0.0,0.0,0.0,0.0,0.0,0.0,0.0,0.0,0.0,0.0,0.0,0.0,0.0,0.0,0.0,-6.9449,-7.392,-7.8036,-8.0932,-8.3397,-8.5532,-8.7209,-8.8226,-8.9881,-9.2606,-9.4399,-9.6158,-9.7986,-10.0366,-10.1987,-10.2573,-10.3677,0.0,-10.2194,-10.1573,-10.0573,-9.9021,-9.84,-9.7641,-9.671,0.0,0.0,-9.4069,-9.2364,-9.1335,-9.0627,-8.8414,-8.7232,-8.6704,-8.4133,-8.2441,-8.1494,-8.1494,-8.1494,-8.1596,-8.234,-8.2137,-8.1325,-8.0006,-7.8957,-7.7942,-7.642,-7.554,-7.4986,-7.4613,-7.362,0.0,-7.1037,-7.022,-6.9533,-6.8341,-6.8042,-6.8042,-6.8042,-6.7943,-6.7844,-6.7844,-6.7711,-6.7566,-6.7566,-6.7466,-6.7413,-6.7413,-6.7003,-6.6278,-6.5031,-6.4897,-6.4437,-6.3069,-6.2744,-6.2401,-6.1859,-6.2055,-6.1732,-6.0386,-5.856,-5.7064,-5.6047,-5.3713,-5.1738,-5.0255,-5.0196,-4.9883,-4.9149,-4.9014,-4.8551,-4.7659,-4.7815,-4.785,-4.7729,-4.6496,-4.5898,0.0,0.0,0.0,0.0,0.0,0.0,0.0,0.0,0.0,0.0,0.0,-6.2798,0.0,0.0,-6.968,-7.3501,-7.6893,-7.9971,-8.2429,-8.437,-8.608,-8.759,-8.8915,-9.0743,-9.3434,-9.5744,-9.771,-9.9228,-10.147,-10.278,-10.2711,-10.347,-10.2987,-10.109,-10.0676,-9.9745,-9.8262,-9.8228,-9.7641,-9.6503,-9.6012,-9.4881,-9.3202,-9.163,-9.0581,-8.9993,-8.7829,-8.6907,-8.6704,-8.4065,-8.2712,-8.2374,-8.2374,-8.2374,-8.2374,-8.2408,-8.1934,-8.1088,-7.9634,-7.8382,-7.7266,-7.6082,-7.5107,-7.4323,-7.3715,-7.2605,-7.1184,-6.9849,-6.9097,-6.8539,-6.7811,-6.7301,-6.7036,-6.7036,-6.6784,-6.6519,-6.6519,-6.6519,-6.6519,-6.6519,-6.6519,-6.6519,-6.6519,-6.622,-6.5692,-6.5056,-6.4633,-6.3869,-6.243,-6.1855,-6.1493,-6.1164,-6.1403,-6.1194,-6.0176,-5.7962,-5.6346,-5.5718,-5.3503,-5.1768,-5.0734,-5.0375,-4.9942,-4.9329,-4.9164,-4.8804,-4.8206,-4.8332,-4.8055,-4.7474,-4.6695,-4.6359,0.0,0.0,0.0,0.0,0.0,0.0,0.0,0.0,-6.0356,-6.3577,-6.4693,-6.6132,-6.9814,-7.0896,-7.2766,-7.7435,-7.9431,-8.1292,-8.3702,-8.5,-8.6439,-8.8344,-8.9741,-9.1571,-9.4054,-9.6745,-9.878,-9.9814,-10.1711,-10.2677,-10.2194,-10.2884,-10.2298,-9.9952,-10.009,-9.9331,-9.771,-9.8262,-9.7883,-9.6447,-9.589,-9.452,-9.2488,-9.1101,-9.0074,-8.9339,-8.766,-8.667,-8.6129,-8.4403,-8.3625,-8.3524,-8.3659,-8.3727,-8.3625,-8.2881,-8.2137,-8.1257,-7.9667,-7.8247,-7.6927,-7.5797,-7.4911,-7.4032,-7.2706,-7.1332,-6.9929,-6.8666,-6.7844,-6.7334,-6.7202,-6.6705,-6.632,-6.632,-6.5856,-6.5425,-6.5425,-6.5425,-6.5425,-6.5425,-6.5425,-6.5425,-6.5425,-6.5425,-6.535,-6.5303,-6.4566,-6.3535,-6.2226,-6.1382,-6.0864,-6.0745,-6.0835,-6.0595,-5.9787,-5.7633,-5.6017,-5.5239,-5.3414,-5.2097,-5.1439,-5.0734,-5.0182,-4.9689,-4.9643,-4.9369,-4.8925,-4.8862,-4.8365,-4.7422,-4.7114,-4.6836,-5.2638,-5.2771,-5.3765,-5.5719,-5.6862,-5.8652,0.0,0.0,-6.5085,-6.7853,-6.9471,-7.077,-7.1909,-7.3726,-7.5946,-7.8551,-8.0209,-8.1934,-8.42,-8.5626,-8.7291,-8.9497,-8.9807,-9.0985,-9.3985,-9.5779,-9.7641,-9.9745,-10.078,-10.1573,-10.216,-10.2884,-10.2298,-9.9952,-10.0573,-9.9883,-9.771,-9.7745,-9.7252,-9.6109,-9.4735,-9.3267,-9.184,-9.0299,-8.9453,-8.906,-8.755,-8.5757,-8.3896,-8.4336,-8.4099,-8.3558,-8.4234,-8.4505,-8.4403,-8.3659,-8.2915,-8.1968,-7.9837,-7.8551,-7.7536,-7.52,-7.4397,-7.383,-7.1265,-7.0356,-6.973,-6.7393,-6.6717,-6.6485,-6.5823,-6.5591,-6.5525,-6.5525,-6.5492,-6.5425,-6.5425,-6.5425,-6.5425,-6.5425,-6.5425,-6.5425,-6.5425,-6.5425,-6.4793,-6.2969,-6.2608,-6.1808,-5.9764,-5.9927,-5.9967,-5.9398,-5.9847,-5.9697,-5.8441,-5.7513,-5.6466,-5.5269,-5.3862,-5.2785,-5.2127,-5.1468,-5.1079,-5.099,-5.0756,-5.0585,-5.0538,-5.014,-4.9852,-4.9687,-4.8359,-4.7056,-5.3798,-5.446,-5.5653,0.0,-5.8833,-6.1136,-6.4167,-6.632,-6.8372,-7.0906,-7.3114,-7.5067,-7.6657,-7.7705,-7.9058,0.0,-8.2171,-8.305,-8.4437,-8.5283,-8.6314,-8.7838,-8.8481,-9.0619,-9.5158,-9.6538,-9.7952,-9.9745,-10.0987,-10.1677,-10.1632,-10.1884,-10.1366,-9.9918,-9.9814,-9.9032,-9.7391,-9.7391,-9.6658,-9.5116,-9.3907,-9.2554,-9.1081,-8.9419,-8.81,-8.7144,-8.6535,-8.5452,-8.4167,-8.4505,-8.4437,-8.42,-8.4505,-8.4099,-8.3253,-8.2475,-8.2002,-8.1393,-7.8754,-7.7604,-7.7014,-7.495,-7.3628,-7.2398,-7.0216,-6.8851,-6.775,-6.6254,-6.5889,-6.5823,-6.5492,-6.5425,-6.5425,-6.5425,-6.5425,-6.5425,-6.5425,-6.5425,-6.5425,-6.5425,-6.5425,-6.5425,-6.5425,-6.5425,-6.4943,-6.3436,-6.268,-6.174,-6.0233,-5.974,-5.9398,-5.9129,-5.9338,-5.9279,-5.874,-5.8082,-5.7304,-5.6346,-5.5059,-5.3862,-5.2815,-5.2127,-5.1618,-5.1229,-5.0964,-5.0728,-5.0614,-5.0279,-4.9658,-4.8756,-4.809,-4.7114,-5.4622,0.0,0.0,-5.8933,-6.1649,-6.4486,-6.6401,-6.9048,-7.1821,-7.42,-7.6111,-7.7945,-7.987,-8.0378,-8.1088,-8.2915,-8.3355,-8.3828,-8.4809,-8.5211,-8.5849,-8.6928,-8.7535,-8.9773,-9.4703,-9.5896,-9.7124,-9.8814,-10.0194,-10.078,-10.047,-10.0883,-10.0573,-9.9607,-9.9412,-9.8721,-9.7528,-9.7412,-9.6485,-9.4692,-9.3474,-9.2101,-9.0527,-8.8777,-8.7177,-8.579,-8.579,-8.5351,-8.4606,-8.4403,-8.4302,-8.4268,-8.3862,-8.305,-8.1968,-8.0784,-8.0513,-8.031,-7.7773,-7.6893,-7.6541,-7.4329,-7.2747,-7.1306,-6.9277,-6.765,-6.6419,-6.5856,-6.5591,-6.5425,-6.5425,-6.5425,-6.5425,-6.5425,-6.5425,-6.5425,-6.5425,-6.5425,-6.5425,-6.5425,-6.5425,-6.5425,-6.5425,-6.5425,-6.5123,-6.4407,-6.3164,-6.1909,-6.0825,-5.9736,-5.9099,-5.9099,-5.9099,-5.9099,-5.9099,-5.8501,-5.7812,-5.7124,-5.5897,-5.467,-5.3503,-5.2636,-5.1977,-5.1498,-5.1053,-5.068,-5.0501,-5.0055,-4.923,-4.8043,-4.7695,-4.7114,0.0,0.0,-5.8634,-6.2212,-6.5823,-6.9163,-7.1594,-7.384,-7.6023,-7.8085,-7.8607,-7.896,-7.9989,-8.0784,-8.1494,-8.2306,-8.305,-8.4031,-8.552,-8.5991,-8.6749,-8.8157,-8.7602,-8.8259,0.0,-9.2651,-9.4158,-9.6434,-9.7365,-9.8124,-9.8814,-10.0263,-10.0366,-9.8849,-9.9936,-9.9794,-9.8283,-9.7991,-9.6979,-9.5186,-9.3655,-9.1987,-9.0154,-8.8666,-8.7177,-8.579,-8.579,-8.5351,-8.4573,-8.3828,-8.3524,-8.3389,-8.1934,-8.1359,-8.1054,-7.8889,-7.8551,-7.8957,-7.7435,-7.6893,-7.6323,-7.2882,-7.1734,-7.1205,-6.8447,-6.7115,-6.6519,-6.6485,-6.5955,-6.5425,-6.5425,-6.5425,-6.5425,-6.5425,-6.5425,-6.5425,-6.5425,-6.5425,-6.5425,-6.5425,-6.5425,-6.5425,-6.5425,-6.5425,-6.5381,-6.5381,-6.3593,-6.1909,-6.0825,-5.9736,-5.9099,-5.9099,-5.9099,-5.9099,-5.9099,-5.8501,-5.7812,-5.7124,-5.5897,-5.488,-5.4221,-5.2905,-5.2187,-5.2187,-5.1292,-5.068,-5.0501,-4.9586,-4.8949,-4.8605,-4.7387,-4.7172,-5.721,0.0,-6.3603,-6.6817,-6.9997,-7.2697,-7.4023,-7.5803,-7.7373,-7.8285,-7.7783,-7.7327,-7.7927,-7.8619,-7.9329,-8.0107,-8.2069,-8.3862,-8.4877,-8.556,-8.5802,-8.5471,-8.6038,0.0,0.0,0.0,0.0,-9.4813,-9.6193,-9.7434,-9.8711,-9.9745,-10.0239,-10.0005,-9.9406,-9.8896,-9.842,-9.6383,-9.4889,-9.4086,-9.1104,-8.8811,-8.7245,-8.6771,-8.596,-8.5012,-8.5012,-8.4877,-8.4573,-8.3795,-8.349,-8.3355,-8.1866,-8.0682,-7.9634,-7.7908,-7.6792,-7.6048,-7.5574,-7.4972,-7.404,-7.1727,-7.0201,-6.9036,-6.7936,-6.6751,-6.5889,-6.6386,-6.5989,-6.5425,-6.5425,-6.5425,-6.5425,-6.5425,-6.5425,-6.5425,-6.5425,-6.5425,-6.5425,-6.5425,-6.5425,-6.5425,-6.5425,-6.5425,-6.491,-6.3546,-6.2778,-6.169,-5.9842,-5.9285,-5.9099,-5.9099,-5.9099,-5.9099,-5.9099,-5.889,-5.8501,-5.7812,-5.6944,-5.5987,-5.491,-5.3563,-5.2636,-5.2217,-5.1131,-5.0596,-5.0501,-4.9395,-4.8603,-4.8072,-4.723,-4.6708,-6.0357,-6.3835,-6.7347,-7.056,-7.3177,-7.5132,-7.586,-7.7144,-7.8051,-7.7777,-7.6961,-7.6102,-7.5619,-7.6,-7.6555,-7.7029,-7.8923,-8.1054,-8.3152,-8.3422,-8.3678,-8.4498,-8.5079,0.0,0.0,0.0,0.0,-9.2651,-9.4655,-9.6365,-9.7883,-9.8561,-9.9203,-9.9759,-9.8323,-9.7481,-9.7303,-9.5009,-9.3263,-9.1947,-8.9275,-8.7211,-8.579,-8.579,-8.5351,-8.4606,-8.4336,-8.4234,-8.4133,-8.3118,-8.2543,-8.2171,-8.0682,-7.9194,-7.7739,-7.6521,-7.5134,-7.3815,-7.3815,-7.3371,-7.2464,-7.0486,-6.8973,-6.7911,-6.736,-6.6386,-6.5558,-6.632,-6.5989,-6.5425,-6.5425,-6.5425,-6.5425,-6.5425,-6.5425,-6.5425,-6.5425,-6.5425,-6.5425,-6.5425,-6.5425,-6.5425,-6.5425,-6.5078,-6.4142,-6.2009,-6.174,-6.1082,-5.9315,-5.9099,-5.9099,-5.9099,-5.9099,-5.9099,-5.9099,-5.9099,-5.883,-5.8171,-5.7483,-5.6615,-5.5598,-5.4251,-5.3185,-5.2431,-5.1439,-5.0755,-5.0327,-4.9114,-4.8283,-4.7753,-4.6882,-4.6272,-6.4233,-6.7281,-6.9898,-7.3442,-7.5397,-7.6622,-7.7318,-7.7947,-7.8067,-7.7004,-7.6174,-7.5085,0.0,0.0,-7.3409,-7.3477,-7.4322,-7.6487,-8.0885,-8.0378,-8.1088,0.0,0.0,0.0,0.0,0.0,0.0,-9.0094,0.0,-9.4793,-9.6309,-9.6887,-9.747,-9.8191,-9.691,-9.5841,-9.5195,-9.4019,-9.1913,-8.897,-8.8226,-8.711,-8.5723,-8.5723,-8.5317,-8.4573,-8.3828,-8.349,-8.3389,-8.1866,-8.0818,-8.004,-7.8483,-7.6995,-7.5608,-7.4796,-7.3612,-7.2394,-7.2259,-7.2076,-7.1555,-6.9132,-6.8171,-6.7699,-6.6763,-6.5989,-6.5558,-6.632,-6.5989,-6.5425,-6.5425,-6.5425,-6.5425,-6.5425,-6.5425,-6.5425,-6.5425,-6.5425,-6.5425,-6.5425,-6.5425,-6.5381,-6.5336,-6.4499,-6.3148,-6.1031,-6.0701,-6.0285,-5.9261,-5.9099,-5.9099,-5.9099,-5.9099,-5.9099,-5.9099,-5.9099,-5.883,-5.8201,-5.7513,-5.6855,-5.6308,-5.497,-5.3774,-5.2812,-5.211,-5.1216,-5.0086,-4.8799,-4.8016,-4.7753,-4.6475,-4.5895,-6.7049,-7.0659,-7.4072,-7.6092,-7.7285,-7.8014,-7.8212,-7.7517,-7.6727,-7.629,-7.3466,-7.0708,0.0,0.0,0.0,-7.3308,-7.6927,0.0,-8.4167,-8.4809,0.0,-8.5723,0.0,-8.6677,-8.5966,-8.6982,0.0,0.0,-9.107,-9.281,-9.4921,-9.6177,-9.6789,-9.6817,-9.538,-9.467,-9.484,-9.2344,-8.985,-8.7448,-8.6704,-8.5858,-8.4911,-8.4911,-8.4809,-8.4573,-8.3828,-8.349,-8.3321,-8.1325,-8.0378,-7.9938,-7.7299,-7.6048,-7.5473,-7.3646,-7.2732,-7.2157,-7.0288,-6.9491,-6.9199,-6.8405,-6.72,-6.6145,-6.6419,-6.5989,-6.5558,-6.632,-6.5989,-6.5425,-6.5425,-6.5425,-6.5425,-6.5425,-6.5425,-6.5425,-6.5425,-6.5425,-6.5425,-6.5425,-6.5425,-6.5168,-6.4407,-6.4081,-6.3148,-6.1031,-6.0701,-6.0285,-5.9261,-5.9099,-5.9099,-5.9099,-5.9099,-5.9099,-5.9099,-5.9099,-5.9039,-5.886,-5.8231,-5.7573,-5.6885,-5.5628,-5.4301,-5.2812,-5.1964,-5.1071,-5.0086,-4.861,-4.7876,-4.7753,-4.6475,-4.5895,-7.1189,-7.4303,-7.6987,-7.8113,-7.8709,-7.8577,-7.6987,-7.6329,-7.532,-7.2904,-7.0636,0.0,0.0,0.0,0.0,0.0,0.0,0.0,-8.3152,-8.3896,-8.4776,0.0,-8.7685,0.0,-8.7753,-8.863,-8.9465,0.0,-9.1101,-9.2279,-9.3941,-9.4658,-9.4928,-9.4845,-9.3515,-9.2798,-9.2725,-9.0391,-8.8463,-8.6907,-8.6129,-8.5384,-8.464,-8.464,-8.4437,-8.4099,0.0,-8.2644,-8.1934,-8.0378,-7.9126,-7.8044,-7.6352,-7.4897,-7.3612,-7.2394,-7.1267,-7.0119,-6.8953,-6.7948,-6.7235,-6.7057,-6.6312,-6.5492,-6.5922,-6.5757,-6.5492,-6.5922,-6.5724,-6.5425,-6.5425,-6.5425,-6.5425,-6.5425,-6.5425,-6.5425,-6.5425,-6.5425,-6.5425,-6.5425,-6.5033,-6.4407,-6.3388,-6.2778,-6.194,-6.0233,-6.0,-5.9789,-5.9207,-5.9099,-5.9099,-5.9099,-5.9099,-5.9099,-5.9099,-5.9099,-5.9099,-5.9099,-5.8201,-5.7483,-5.7124,-5.5765,-5.425,-5.2665,-5.2063,-5.1121,-4.9912,-4.8777,-4.8043,-4.7753,-4.6766,-4.6156,-7.5529,-7.7682,-7.8974,-7.9604,-7.9637,-7.8577,-7.515,-7.4705,-7.3673,-6.8857,0.0,-6.7238,-6.4588,-6.4998,-6.6305,-6.8199,0.0,-7.4356,-8.0953,-8.1426,-8.3118,-8.8598,-8.8666,-8.8835,-9.0222,-9.0357,-9.0662,-9.1372,-9.1852,-9.2372,-9.3054,-9.2861,-9.2622,-9.252,-9.1646,-9.0763,-8.9918,-8.8463,-8.738,-8.6738,-8.5892,-8.5182,-8.464,-8.464,-8.42,-8.3456,0.0,0.0,-8.0141,-7.9194,-7.7638,-7.5811,-7.5405,-7.3713,-7.1413,-7.1064,-6.9579,-6.7776,-6.8049,-6.7157,-6.5946,-6.5902,-6.567,-6.5425,-6.5425,-6.5425,-6.5425,-6.5425,-6.5425,-6.5425,-6.5425,-6.5425,-6.5425,-6.5425,-6.5425,-6.5425,-6.5425,-6.5425,-6.5425,-6.5425,-6.4623,-6.3531,-6.2485,-6.1438,-6.0337,-5.9261,-5.9099,-5.9099,-5.9099,-5.9099,-5.9099,-5.9099,-5.9099,-5.9099,-5.9099,-5.9099,-5.9099,-5.9099,-5.7932,-5.7184,-5.7094,-5.57,-5.4196,-5.2535,-5.2197,-5.1303,-4.9814,-4.9088,-4.8391,-4.7753,-4.7114,-4.6505,-7.7583,-7.9206,-8.0332,-8.0465,-7.9604,-7.8133,-7.5885,-7.3608,0.0,0.0,-6.6177,-6.4689,-6.3782,-6.4742,0.0,-7.0973,0.0,0.0,0.0,0.0,-8.6805,0.0,0.0,0.0,0.0,0.0,0.0,0.0,0.0,0.0,-9.1646,-9.1589,-9.1318,-9.0685,-9.0459,-8.9748,-8.8395,-8.6907,-8.6095,-8.596,-8.4573,-8.4167,-8.464,-8.464,-8.42,-8.3422,0.0,0.0,-8.004,-7.8077,-7.7063,-7.6454,-7.395,-7.2665,-7.1943,-6.9917,-6.8873,-6.8381,-6.7469,-6.6957,-6.6668,-6.6488,-6.5922,-6.5425,-6.5425,-6.5425,-6.5425,-6.5425,-6.5425,-6.5425,-6.5425,-6.5425,-6.5425,-6.5425,-6.5425,-6.5425,-6.5425,-6.5425,-6.5425,-6.5425,-6.4623,-6.3531,-6.2485,-6.1438,-6.0337,-5.9261,-5.9099,-5.9099,-5.9099,-5.9099,-5.9099,-5.9099,-5.9099,-5.9099,-5.9099,-5.9099,-5.9099,-5.9099,-5.8381,-5.7693,-5.7124,-5.6117,-5.4797,-5.3242,-5.2432,-5.1537,-5.0481,-4.9291,-4.8391,-4.7753,-4.7114,-4.6505,-8.02,-8.1591,-8.232,-8.1923,-8.0465,-7.8067,-7.4157,0.0,0.0,0.0,-6.3923,-6.3505,-6.2544,0.0,0.0,0.0,0.0,0.0,0.0,0.0,0.0,0.0,0.0,0.0,0.0,0.0,0.0,0.0,0.0,0.0,-9.1271,-9.056,-8.9816,-8.9072,-8.9072,-8.8531,-8.7448,-8.6332,-8.579,-8.5757,-8.464,-8.4268,-8.464,-8.464,-8.3998,-8.2881,0.0,0.0,-7.8889,-7.7029,-7.5811,-7.4897,-7.2699,-7.1255,-7.0288,-6.8705,-6.738,-6.6365,-6.6324,-6.5877,-6.5423,-6.5787,-6.569,-6.5425,-6.5425,-6.5425,-6.5425,-6.5425,-6.5425,-6.5425,-6.5425,-6.5425,-6.5425,-6.5425,-6.5425,-6.5425,-6.5425,-6.5425,-6.5425,-6.5425,-6.4142,-6.2875,-6.2355,-6.0928,-5.9683,-5.9207,-5.9099,-5.9099,-5.9099,-5.9099,-5.9099,-5.9099,-5.9099,-5.9099,-5.9099,-5.9099,-5.8949,-5.862,-5.7962,-5.7221,-5.6408,-5.5493,-5.4385,-5.3216,-5.2238,-5.1445,-5.0734,-4.9698,-4.8711,-4.7782,-4.7462,-4.6795,-8.2177,-8.3503,-8.3877,-8.3281,-8.1128,-7.7802,-7.2692,-7.0016,0.0,0.0,-6.1959,-6.2415,-6.1264,0.0,0.0,0.0,0.0,0.0,0.0,0.0,0.0,0.0,0.0,0.0,0.0,0.0,0.0,0.0,0.0,0.0,0.0,-8.9579,-8.8598,-8.8023,-8.7854,-8.7347,-8.6433,-8.5689,-8.5283,-8.5283,-8.4505,-8.4302,-8.4553,-8.4471,-8.3558,-8.2103,0.0,0.0,0.0,-7.6082,-7.4762,-7.3544,-7.1706,-7.0254,-6.8997,-6.7445,-6.5832,-6.4523,-6.5156,-6.4591,-6.3768,-6.4988,-6.5425,-6.5425,-6.5425,-6.5425,-6.5425,-6.5425,-6.5425,-6.5425,-6.5425,-6.5425,-6.5425,-6.5425,-6.5213,-6.5123,-6.5381,-6.5078,-6.4819,-6.5033,-6.3404,-6.199,-6.199,-6.0337,-5.9099,-5.9099,-5.9099,-5.9099,-5.9099,-5.9099,-5.9099,-5.9099,-5.9099,-5.9099,-5.9099,-5.9099,-5.889,-5.8381,-5.7543,-5.6751,-5.6035,-5.4872,-5.3965,-5.3319,-5.2173,-5.1381,-5.0888,-5.0075,-4.9078,-4.7782,-4.7782,-4.7114,-8.2588,-8.3583,-8.3976,-8.391,-8.073,-7.6693,-7.3287,0.0,0.0,-6.1992,-6.0825,-6.0385,-6.025,0.0,0.0,0.0,0.0,0.0,0.0,0.0,0.0,0.0,0.0,0.0,0.0,0.0,0.0,0.0,0.0,0.0,0.0,-8.8531,-8.8057,-8.7989,-8.7347,-8.6332,-8.4843,-8.4099,-8.3693,-8.3693,-8.2949,-8.3321,-8.4606,-8.393,-8.278,-8.1291,0.0,0.0,0.0,-7.5337,-7.4627,-7.4174,-7.1153,-7.0243,-7.0196,-6.6055,-6.4831,-6.5115,-6.4356,-6.3388,-6.2746,-6.4773,-6.5425,-6.5425,-6.5425,-6.5425,-6.5425,-6.5425,-6.5425,-6.5425,-6.5425,-6.5425,-6.5425,-6.5425,-6.4715,-6.4268,-6.5168,-6.3955,-6.2875,-6.3847,-6.2288,-6.0825,-6.0825,-5.9895,-5.9099,-5.9099,-5.9099,-5.9099,-5.9099,-5.9099,-5.9099,-5.9099,-5.9099,-5.9099,-5.9099,-5.9099,-5.9069,-5.9009,-5.7812,-5.7064,-5.6952,-5.5264,-5.4274,-5.4164,-5.2479,-5.1585,-5.1527,-5.0278,-4.9078,-4.7782,-4.7782,-4.7114,-8.2452,-8.4667,-8.5721,-8.5083,-8.1346,-7.694,-7.3417,0.0,0.0,-6.1187,-6.0723,-6.0554,-5.9607,0.0,0.0,0.0,0.0,0.0,0.0,0.0,0.0,0.0,0.0,0.0,0.0,0.0,0.0,0.0,0.0,0.0,0.0,-8.7922,-8.7583,-8.6704,-8.5926,-8.5012,-8.3964,-8.3659,-8.3727,-8.4167,-8.3862,-8.3828,-8.393,-8.3186,-8.2035,-8.0547,0.0,0.0,0.0,-7.3599,-7.2634,-7.176,-6.8492,-6.7608,-6.7782,-6.4462,-6.2954,-6.2586,-6.2825,-6.2238,-6.1589,-6.3068,-6.3546,-6.3782,-6.5033,-6.5425,-6.5425,-6.5425,-6.5425,-6.5425,-6.5425,-6.5425,-6.5213,-6.4669,-6.4175,-6.3847,-6.3593,-6.2843,-6.2436,-6.2826,-6.174,-6.0701,-6.0701,-5.9789,-5.9099,-5.9099,-5.9099,-5.9099,-5.9099,-5.9099,-5.9099,-5.9099,-5.9099,-5.9099,-5.9099,-5.9099,-5.877,-5.7962,-5.7393,-5.6579,-5.5464,-5.4672,-5.3972,-5.3282,-5.218,-5.1439,-5.1062,-5.0133,-4.9078,-4.7782,-4.7782,-4.7114,-8.0747,-8.3908,-8.5848,-8.5321,-8.1129,-7.6291,0.0,0.0,0.0,-6.0617,-6.0385,-6.0283,-5.9201,0.0,0.0,0.0,0.0,0.0,0.0,0.0,0.0,0.0,0.0,0.0,0.0,0.0,0.0,0.0,0.0,0.0,0.0,0.0,-8.6298,-8.5452,-8.4674,-8.4031,-8.349,-8.349,-8.3659,-8.3964,-8.3964,-8.3558,-8.2813,-8.2103,-8.0766,0.0,0.0,0.0,0.0,-7.1488,-7.0452,-6.9466,-6.6416,-6.5689,-6.5885,-6.3073,-6.1582,-6.1103,-6.1652,-6.1133,-6.0442,-6.1841,-6.209,-6.2157,-6.3923,-6.4466,-6.4466,-6.4466,-6.4466,-6.4466,-6.4466,-6.4728,-6.4806,-6.4081,-6.3894,-6.3705,-6.2923,-6.2288,-6.1841,-6.1841,-6.0979,-6.0233,-6.0233,-5.9606,-5.9099,-5.9099,-5.9099,-5.9099,-5.9099,-5.9099,-5.9099,-5.9099,-5.9099,-5.9099,-5.9099,-5.9099,-5.862,-5.7483,-5.7161,-5.6273,-5.4783,-5.437,-5.3788,-5.3017,-5.2071,-5.141,-5.0946,-5.0104,-4.9078,-4.7782,-4.7782,-4.7114,-7.7061,-8.0373,-8.3532,-8.4231,-7.9415,-7.4206,0.0,0.0,0.0,-6.055,-5.9539,-5.9032,-5.9032,0.0,0.0,0.0,0.0,0.0,0.0,0.0,0.0,0.0,0.0,0.0,0.0,0.0,0.0,0.0,0.0,0.0,0.0,0.0,-8.3862,-8.4606,-8.3896,-8.349,-8.349,-8.349,-8.3152,-8.2441,-8.2441,-8.2035,-8.1291,-8.0547,0.0,0.0,0.0,0.0,0.0,-6.907,-6.8356,-6.808,-6.5663,-6.5148,-6.5377,-6.1981,-6.1154,-6.1699,-6.0969,-6.0,-5.9446,-6.164,-6.1589,-6.0928,-6.2009,-6.2306,-6.2306,-6.2306,-6.2306,-6.2306,-6.2306,-6.3116,-6.3894,-6.3894,-6.3894,-6.3894,-6.3894,-6.2238,-6.0753,-6.0753,-5.9842,-5.9099,-5.9099,-5.9099,-5.9099,-5.9099,-5.9099,-5.9099,-5.9099,-5.9099,-5.9099,-5.9099,-5.9099,-5.9099,-5.9099,-5.9099,-5.883,-5.8141,-5.7219,-5.6377,-5.5723,-5.4554,-5.3919,-5.389,-5.2355,-5.1614,-5.1614,-5.0307,-4.9078,-4.7782,-4.7782,-4.7114,-7.1818,-7.5219,-7.8001,-7.7531,-7.5247,-7.2518,-7.0364,0.0,0.0,-6.1264,-6.0723,-6.0419,-5.9844,0.0,0.0,0.0,0.0,0.0,0.0,0.0,0.0,0.0,0.0,0.0,0.0,0.0,0.0,0.0,0.0,0.0,0.0,0.0,-8.234,-8.3084,-8.2881,-8.2746,-8.2746,-8.3253,-8.3118,-8.2408,-8.2408,-8.1494,-7.9719,-7.8252,0.0,0.0,0.0,0.0,0.0,-6.6931,-6.6142,-6.529,-6.3294,-6.2761,-6.2809,-6.0449,-5.9727,-5.9932,-5.9667,-5.9392,-5.9207,-5.9895,-5.9895,-5.966,-6.0,-6.1133,-6.2306,-6.2306,-6.2306,-6.2306,-6.2306,-6.2583,-6.2632,-6.1891,-6.169,-6.1489,-6.0805,-6.0106,-5.9606,-5.9606,-5.9339,-5.9099,-5.9099,-5.9099,-5.9099,-5.9099,-5.9099,-5.9099,-5.9099,-5.9099,-5.9099,-5.9099,-5.9099,-5.9099,-5.9099,-5.868,-5.8141,-5.7453,-5.6773,-5.5857,-5.4783,-5.437,-5.3583,-5.2326,-5.1868,-5.1178,-5.0278,-4.9872,-4.9078,-4.7753,-4.6882,-4.6272,0.0,-7.1368,-7.4303,-7.4214,-7.2793,0.0,0.0,0.0,0.0,0.0,0.0,0.0,0.0,0.0,0.0,0.0,0.0,0.0,0.0,0.0,0.0,0.0,0.0,0.0,0.0,0.0,0.0,0.0,0.0,0.0,0.0,0.0,-8.1088,-8.1562,-8.2137,-8.2272,-8.2002,-8.2712,-8.2441,-8.1156,-8.0573,-7.9324,-7.7396,0.0,0.0,0.0,0.0,0.0,0.0,-6.4641,-6.3954,-6.325,-6.1599,-6.1074,-6.0966,-5.9609,-5.9099,-5.9069,-5.883,-5.874,-5.868,-5.8441,-5.8351,-5.8404,-5.8799,-5.9756,-6.0843,-6.1496,-6.1471,-6.1396,-6.1596,-6.199,-6.2009,-6.0928,-6.1031,-6.1031,-5.9948,-5.9683,-5.9606,-5.9207,-5.9099,-5.9099,-5.9099,-5.9099,-5.9099,-5.9099,-5.9099,-5.9099,-5.9099,-5.9099,-5.9099,-5.9099,-5.889,-5.874,-5.874,-5.8351,-5.7812,-5.7124,-5.6288,-5.5375,-5.4333,-5.4097,-5.337,-5.1991,-5.173,-5.1091,-5.0095,-4.932,-4.842,-4.7404,-4.6359,-4.5895,0.0,-6.8297,0.0,0.0,0.0,0.0,0.0,0.0,0.0,0.0,0.0,0.0,0.0,0.0,0.0,0.0,0.0,0.0,0.0,0.0,0.0,0.0,0.0,0.0,0.0,0.0,0.0,0.0,0.0,0.0,0.0,0.0,0.0,-8.0107,-8.1391,-8.1848,-8.1224,-8.1848,-8.1053,-7.8875,-7.7362,-7.5819,-7.4201,0.0,0.0,0.0,0.0,0.0,0.0,-6.2385,-6.2002,-6.1822,-6.0565,-6.0057,-5.9937,-5.9338,-5.9069,-5.8949,-5.8351,-5.8082,-5.7932,-5.7304,-5.7094,-5.7303,-5.8217,-5.8347,-5.849,-6.0218,-6.025,-5.9992,-6.0671,-6.1539,-6.2009,-6.0928,-6.1489,-6.1859,-6.0825,-6.0598,-6.0285,-5.9285,-5.9099,-5.9099,-5.9099,-5.9099,-5.9099,-5.9099,-5.9099,-5.9099,-5.9039,-5.9039,-5.9009,-5.8949,-5.8411,-5.8052,-5.8052,-5.8022,-5.7723,-5.7064,-5.5916,-5.4982,-5.4282,-5.3815,-5.3181,-5.2514,-5.1817,-5.1178,-5.054,-4.8682,-4.7462,-4.6778,-4.6185,-4.5895,-6.0858,0.0,-6.5436,-6.5241,-6.5512,-6.5647,0.0,0.0,0.0,0.0,0.0,0.0,0.0,0.0,0.0,0.0,0.0,0.0,0.0,0.0,0.0,0.0,0.0,0.0,0.0,0.0,0.0,0.0,0.0,0.0,0.0,0.0,0.0,-7.9397,-7.9407,-7.9775,-8.0445,-7.9775,-7.845,-7.6528,-7.4796,-7.2853,-7.0563,0.0,0.0,0.0,0.0,0.0,-6.1665,-6.1403,-6.1044,-6.0535,-6.0206,-5.9787,-5.9308,-5.9159,-5.88,-5.8321,-5.8171,-5.7782,-5.7304,-5.7154,-5.7094,-5.7146,-5.7376,-5.7931,-5.8868,-6.0571,-6.0962,-6.1011,-6.1752,-6.2108,-6.2009,-6.0928,-6.0877,-6.0774,-5.9683,-5.9499,-5.9392,-5.9153,-5.9099,-5.9099,-5.9099,-5.9099,-5.9099,-5.9099,-5.9099,-5.8919,-5.8411,-5.8351,-5.8141,-5.7633,-5.7423,-5.7334,-5.7334,-5.6915,-5.6452,-5.6065,-5.5315,-5.4613,-5.4023,-5.3867,-5.3186,-5.1875,-5.0714,-4.9814,-4.9175,-4.8246,-4.7462,-4.6778,-4.6185,-4.5895,-6.0317,-6.1806,-6.3057,-6.3328,-6.4241,-6.4918,-6.4174,0.0,0.0,0.0,0.0,0.0,0.0,0.0,0.0,0.0,0.0,0.0,0.0,0.0,0.0,0.0,0.0,0.0,0.0,0.0,0.0,0.0,0.0,0.0,0.0,0.0,0.0,0.0,-7.7522,-7.7096,-7.7883,-7.6644,-7.5197,-7.3547,-7.1112,-6.9237,-6.7828,0.0,0.0,0.0,0.0,0.0,-6.0655,-6.0655,-6.0416,-6.0057,-5.9757,-5.9428,-5.9069,-5.877,-5.8441,-5.8052,-5.7423,-5.6795,-5.6226,-5.6226,-5.6226,-5.6329,-5.6728,-5.7251,-5.803,-5.9612,-6.0164,-6.0455,-6.1119,-6.1647,-6.1838,-6.1077,-6.0566,-6.0095,-5.9887,-5.9446,-5.9099,-5.9099,-5.9099,-5.9099,-5.9099,-5.9099,-5.9099,-5.9099,-5.9099,-5.8979,-5.862,-5.859,-5.8321,-5.7633,-5.7274,-5.6974,-5.6705,-5.6077,-5.5735,-5.5694,-5.4997,-5.4267,-5.3509,-5.3377,-5.2639,-5.1207,-4.9901,-4.8914,-4.8304,-4.7666,-4.7027,-4.6388,-4.604,-4.5721,-6.0858,-6.1689,-6.2548,-6.393,-6.4816,-6.5189,-6.458,0.0,0.0,0.0,0.0,0.0,0.0,0.0,0.0,0.0,0.0,0.0,0.0,0.0,0.0,0.0,0.0,0.0,0.0,0.0,0.0,0.0,0.0,0.0,0.0,0.0,0.0,0.0,-7.5525,-7.4149,-7.3971,-7.2962,-7.1778,-7.0395,-6.7285,-6.5633,-6.5331,-6.2319,0.0,0.0,0.0,0.0,-5.9937,-6.0057,-6.0027,-5.9877,-5.9308,-5.9039,-5.889,-5.8321,-5.7992,-5.7663,-5.6436,-5.5658,-5.5179,-5.5179,-5.5179,-5.533,-5.6134,-5.6378,-5.6641,-5.7856,-5.8678,-5.9364,-6.006,-6.0863,-6.1349,-6.0912,-6.0198,-5.9737,-6.0218,-5.9615,-5.8949,-5.8949,-5.886,-5.88,-5.88,-5.88,-5.88,-5.88,-5.88,-5.877,-5.868,-5.865,-5.8411,-5.7752,-5.7154,-5.6585,-5.6077,-5.5508,-5.5266,-5.5464,-5.4613,-5.3737,-5.2815,-5.2493,-5.173,-5.054,-4.9349,-4.8362,-4.7637,-4.7085,-4.6505,-4.5895,-4.5895,-4.5518,-5.9911,-6.0919,-6.1748,-6.2548,-6.3294,-6.3835,-6.37,0.0,0.0,0.0,0.0,0.0,0.0,0.0,0.0,0.0,0.0,0.0,0.0,0.0,0.0,0.0,0.0,0.0,0.0,0.0,0.0,0.0,0.0,0.0,0.0,0.0,0.0,0.0,0.0,-7.1004,-6.8901,-6.9193,-6.9036,-6.8309,-6.5368,-6.3196,-6.1829,-6.0736,-5.9937,0.0,0.0,-5.9757,-5.9308,-5.9847,-5.9757,-5.9249,-5.9129,-5.877,-5.8261,-5.8171,-5.7423,-5.6346,-5.5598,-5.5269,-5.5179,-5.5179,-5.5179,-5.5229,-5.5381,-5.5401,-5.5461,-5.5671,-5.7382,-5.9364,-6.0107,-6.0392,-6.0281,-5.934,-5.9406,-5.9461,-5.8678,-5.8368,-5.8261,-5.8261,-5.7812,-5.7393,-5.7393,-5.7393,-5.7393,-5.7393,-5.7393,-5.7214,-5.6675,-5.6667,-5.6376,-5.5718,-5.5538,-5.5448,-5.5359,-5.5239,-5.5006,-5.4554,-5.3912,-5.304,-5.1839,-5.1287,-5.0627,-4.9901,-4.9069,-4.8112,-4.6969,-4.6836,-4.6505,-4.5895,-4.5895,-4.5518,-5.9911,-6.0805,-6.1716,-6.229,-6.3066,-6.3603,-6.3491,0.0,0.0,0.0,0.0,0.0,0.0,0.0,0.0,0.0,0.0,0.0,0.0,0.0,0.0,0.0,0.0,0.0,0.0,0.0,0.0,0.0,0.0,0.0,0.0,0.0,0.0,0.0,0.0,0.0,-6.7589,-6.6658,-6.577,-6.494,-6.2723,-6.1301,-6.0535,-5.9877,-5.9398,0.0,0.0,-5.9368,-5.9129,-5.9428,-5.9159,-5.859,-5.859,-5.8171,-5.7513,-5.7184,-5.6466,-5.5598,-5.5299,-5.5179,-5.5179,-5.5179,-5.5179,-5.5179,-5.5179,-5.5179,-5.5179,-5.5179,-5.6445,-5.7884,-5.8196,-5.8688,-5.9065,-5.8967,-5.8776,-5.855,-5.844,-5.7962,-5.7573,-5.7573,-5.7304,-5.7094,-5.7094,-5.7094,-5.7094,-5.7094,-5.7094,-5.7004,-5.6705,-5.6675,-5.6436,-5.5777,-5.5718,-5.5448,-5.473,-5.454,-5.4408,-5.4326,-5.3136,-5.2187,-5.1643,-5.0336,-4.9494,-4.9204,-4.817,-4.7358,-4.6778,-4.6475,-4.6156,-4.5895,-4.5895,-4.5343,-5.9482,-6.0265,-6.115,-6.1674,0.0,-6.3212,-6.3631,-6.3226,-6.2876,0.0,0.0,0.0,0.0,0.0,0.0,0.0,0.0,0.0,0.0,0.0,0.0,0.0,0.0,0.0,0.0,0.0,0.0,0.0,0.0,0.0,0.0,0.0,0.0,0.0,0.0,0.0,-6.6245,-6.4323,-6.3096,-6.2546,-6.1082,-6.0146,-5.9847,-5.9338,-5.9099,-5.9099,-5.8949,-5.889,-5.886,-5.871,-5.8351,-5.7872,-5.7872,-5.7483,-5.6795,-5.6166,-5.5628,-5.5179,-5.5029,-5.5059,-5.5149,-5.4999,-5.5059,-5.5179,-5.5179,-5.5179,-5.5179,-5.5179,-5.575,-5.628,-5.628,-5.6831,-5.7543,-5.8121,-5.7775,-5.7412,-5.7981,-5.7474,-5.6885,-5.6885,-5.6765,-5.6645,-5.6645,-5.6645,-5.6645,-5.6645,-5.6645,-5.6645,-5.6645,-5.6645,-5.6406,-5.5777,-5.5718,-5.5239,-5.3973,-5.3555,-5.3512,-5.373,-5.215,-5.1141,-5.0946,-4.9475,-4.8595,-4.8228,-4.7271,-4.672,-4.6621,-4.6127,-4.5895,-4.5895,-4.5895,-4.5285,-5.7644,-5.8449,-5.9131,-5.9598,-6.0416,0.0,-6.4154,-6.3672,-6.3432,-6.6052,0.0,0.0,0.0,0.0,0.0,0.0,0.0,0.0,0.0,0.0,0.0,0.0,0.0,0.0,0.0,0.0,0.0,0.0,0.0,0.0,0.0,0.0,0.0,0.0,0.0,0.0,-6.2495,-6.1669,-6.178,-6.2741,-6.1599,-6.0386,-5.9189,-5.9129,-5.9099,-5.9069,-5.8471,-5.8201,-5.8141,-5.7513,-5.7214,-5.7154,-5.7154,-5.6795,-5.6166,-5.5508,-5.5239,-5.5089,-5.4491,-5.467,-5.5089,-5.4491,-5.47,-5.5179,-5.5179,-5.5179,-5.5179,-5.5179,-5.5229,-5.528,-5.528,-5.5381,-5.5431,-5.5491,-5.5921,-5.632,-5.638,-5.6329,-5.6226,-5.6226,-5.5748,-5.5329,-5.5329,-5.5329,-5.5329,-5.5329,-5.5329,-5.5329,-5.5329,-5.5329,-5.5089,-5.4431,-5.4341,-5.3943,-5.2981,-5.2426,-5.2126,-5.2184,-5.0935,-4.9824,-4.8943,-4.875,-4.8112,-4.6952,-4.6836,-4.6534,-4.5953,-4.5895,-4.5895,-4.5895,-4.5895,-4.5518,-5.7105,-5.7933,-5.8894,-5.9055,-5.947,0.0,0.0,-6.3811,-6.4432,-6.5513,-6.6071,0.0,0.0,0.0,0.0,0.0,0.0,0.0,0.0,0.0,0.0,0.0,0.0,0.0,0.0,0.0,0.0,0.0,0.0,0.0,0.0,0.0,0.0,0.0,0.0,0.0,0.0,-6.1433,-6.1117,-6.1128,-6.0246,-5.9368,-5.8501,-5.8501,-5.8261,-5.7842,-5.7603,-5.7483,-5.7453,-5.7184,-5.6855,-5.6466,-5.6077,-5.5508,-5.491,-5.467,-5.4581,-5.4551,-5.4311,-5.464,-5.5149,-5.491,-5.47,-5.4581,-5.4581,-5.4581,-5.4581,-5.4581,-5.488,-5.5179,-5.5179,-5.5179,-5.5179,-5.5179,-5.5388,-5.5568,-5.5568,-5.5568,-5.5568,-5.5568,-5.5359,-5.5179,-5.5179,-5.5179,-5.5179,-5.5179,-5.5179,-5.5029,-5.464,-5.4581,-5.4311,-5.3653,-5.3058,-5.2535,-5.2053,-5.1297,-5.0593,-4.9989,-4.9902,-4.9679,-4.932,-4.8188,-4.7271,-4.6807,-4.6446,-4.6127,-4.5895,-4.5459,-4.5256,-4.5256,-4.4879,-4.4356,-5.5785,-5.6619,-5.7725,-5.7725,0.0,0.0,-6.2251,-6.3803,-6.4961,-6.6043,-6.6486,-6.6312,-6.5221,0.0,0.0,0.0,0.0,0.0,0.0,0.0,0.0,0.0,0.0,0.0,0.0,0.0,0.0,0.0,0.0,0.0,0.0,0.0,0.0,0.0,0.0,0.0,0.0,-6.1014,-6.0356,-5.9458,-5.9009,-5.856,-5.8112,-5.7902,-5.7543,-5.7094,-5.6885,-5.6795,-5.6795,-5.6585,-5.6107,-5.5478,-5.482,-5.4431,-5.4192,-5.3952,-5.4012,-5.4162,-5.3713,-5.4012,-5.4521,-5.4311,-5.4072,-5.3892,-5.3892,-5.3892,-5.3922,-5.4162,-5.4521,-5.494,-5.5149,-5.5179,-5.5179,-5.5179,-5.5179,-5.5179,-5.5179,-5.5179,-5.5119,-5.491,-5.488,-5.488,-5.488,-5.488,-5.488,-5.488,-5.488,-5.464,-5.3982,-5.3892,-5.3623,-5.2935,-5.2018,-5.1254,-5.0903,-5.0124,-4.931,-4.8478,-4.8682,-4.8798,-4.8769,-4.7521,-4.6691,-4.6534,-4.6098,-4.5895,-4.5895,-4.543,-4.5198,-4.5198,-4.4792,-4.424,-5.3354,-5.4162,-5.5179,0.0,0.0,0.0,-6.248,-6.3558,-6.4964,-6.8315,-6.6909,-6.5083,-6.5349,0.0,0.0,0.0,0.0,0.0,0.0,0.0,0.0,0.0,0.0,0.0,0.0,0.0,0.0,0.0,0.0,0.0,0.0,0.0,0.0,0.0,0.0,0.0,0.0,-6.0057,-5.9398,-5.8112,-5.8058,-5.8112,-5.8082,-5.7393,-5.7064,-5.7034,-5.6406,-5.6188,-5.6128,-5.5448,-5.479,-5.4132,-5.3443,-5.3593,-5.4102,-5.3414,-5.3593,-5.4012,-5.2665,-5.2636,-5.3084,-5.2426,-5.2636,-5.3174,-5.3174,-5.3174,-5.3324,-5.4012,-5.4192,-5.4341,-5.4999,-5.5179,-5.5179,-5.5179,-5.5179,-5.5179,-5.5179,-5.5179,-5.497,-5.4341,-5.4221,-5.4221,-5.4192,-5.4221,-5.4221,-5.4192,-5.4192,-5.3952,-5.3264,-5.3174,-5.2905,-5.2247,-5.1143,-5.0206,-4.9528,-4.8997,-4.8449,-4.7811,-4.7172,-4.6778,-4.6778,-4.6778,-4.6534,-4.5895,-4.5895,-4.5895,-4.5895,-4.5866,-4.5866,-4.5866,-4.5866,-4.5488,-5.3354,-5.4162,0.0,-5.6316,0.0,0.0,0.0,-6.3558,0.0,0.0,-6.7627,-6.6461,-6.6764,0.0,0.0,0.0,0.0,0.0,0.0,0.0,0.0,0.0,0.0,0.0,0.0,0.0,0.0,0.0,0.0,0.0,0.0,0.0,0.0,0.0,0.0,0.0,0.0,0.0,-5.7782,-5.7393,-5.6944,-5.6735,-5.6735,-5.6526,-5.5927,-5.5059,-5.488,-5.4521,-5.4042,-5.3862,-5.3653,-5.3473,-5.3264,-5.3025,-5.2785,-5.2576,-5.2606,-5.2755,-5.2336,-5.2636,-5.3144,-5.2965,-5.2725,-5.2486,-5.2486,-5.2486,-5.2546,-5.2725,-5.3114,-5.3533,-5.3713,-5.3773,-5.4012,-5.497,-5.5179,-5.5059,-5.461,-5.4491,-5.4311,-5.3623,-5.3892,-5.4072,-5.3563,-5.3892,-5.4042,-5.3563,-5.3503,-5.3234,-5.2576,-5.2097,-5.1511,-5.0666,-5.01,-4.9481,-4.8647,-4.826,-4.7782,-4.7143,-4.6894,-4.6778,-4.6778,-4.6388,-4.6069,-4.5895,-4.5895,-4.5895,-4.5895,-4.5401,-4.4966,-4.4531,-4.4066,-4.3515,-5.2905,0.0,0.0,0.0,-5.88,-6.1074,-6.3348,0.0,0.0,0.0,0.0,0.0,0.0,0.0,0.0,0.0,0.0,0.0,0.0,0.0,0.0,0.0,0.0,0.0,0.0,0.0,0.0,0.0,0.0,0.0,0.0,0.0,0.0,0.0,0.0,0.0,0.0,0.0,0.0,-5.6346,-5.5688,-5.5239,-5.505,-5.5269,-5.482,-5.3803,-5.3803,-5.3563,-5.3144,-5.2905,-5.2785,-5.2755,-5.2516,-5.2306,-5.2157,-5.1917,-5.1977,-5.2157,-5.1917,-5.2067,-5.2396,-5.2396,-5.2127,-5.1798,-5.1798,-5.1798,-5.1858,-5.2127,-5.2486,-5.2845,-5.3114,-5.3174,-5.3384,-5.4192,-5.4401,-5.4281,-5.3892,-5.3803,-5.3593,-5.2905,-5.3114,-5.3294,-5.2845,-5.3144,-5.3264,-5.2845,-5.2576,-5.2247,-5.1858,-5.1229,-5.0598,-4.9978,-4.9402,-4.8757,-4.788,-4.7544,-4.7143,-4.6505,-4.6446,-4.6446,-4.6446,-4.6098,-4.575,-4.5488,-4.5488,-4.5372,-4.514,-4.4734,-4.4356,-4.3979,-4.3573,-4.305,0.0,0.0,0.0,0.0,0.0,0.0,0.0,0.0,-7.0051,0.0,0.0,0.0,0.0,0.0,0.0,0.0,0.0,0.0,0.0,0.0,0.0,0.0,0.0,0.0,0.0,0.0,0.0,0.0,0.0,0.0,0.0,0.0,0.0,0.0,0.0,0.0,0.0,0.0,0.0,0.0,-5.4401,-5.3773,-5.3114,-5.3803,-5.3743,-5.3084,-5.3025,-5.2995,-5.2965,-5.2366,-5.2127,-5.2037,-5.1379,-5.1498,-5.1947,-5.1289,-5.1468,-5.1947,-5.1349,-5.1169,-5.1229,-5.1229,-5.1229,-5.1229,-5.1229,-5.1229,-5.1349,-5.1947,-5.2127,-5.2247,-5.2845,-5.2995,-5.2995,-5.2995,-5.3084,-5.3174,-5.3114,-5.3084,-5.2905,-5.2247,-5.2157,-5.2187,-5.2127,-5.2157,-5.2157,-5.2037,-5.1498,-5.1109,-5.105,-5.0465,-4.9984,-4.9723,-4.8883,-4.8034,-4.7131,-4.6874,-4.6505,-4.5924,-4.5895,-4.5895,-4.5895,-4.5895,-4.5576,-4.4908,-4.4879,-4.4589,-4.3979,-4.3979,-4.395,-4.3892,-4.3892,-4.3544,0.0,0.0,0.0,0.0,0.0,0.0,0.0,0.0,0.0,0.0,0.0,0.0,0.0,0.0,0.0,0.0,0.0,0.0,0.0,0.0,0.0,0.0,0.0,0.0,0.0,0.0,0.0,0.0,0.0,0.0,0.0,0.0,0.0,0.0,0.0,0.0,-5.5598,-5.4431,-5.3743,0.0,-5.3473,-5.3054,-5.2426,-5.3084,-5.3025,-5.2396,-5.1858,-5.1648,-5.1618,-5.1498,-5.1439,-5.1379,-5.0674,-5.0495,-5.0571,-4.9942,-5.0092,-5.0584,-5.0465,-5.0734,-5.1229,-5.1229,-5.1229,-5.1229,-5.1229,-5.1229,-5.1259,-5.1379,-5.1439,-5.1468,-5.1588,-5.1648,-5.1648,-5.1648,-5.2426,-5.3025,-5.2516,-5.2426,-5.2217,-5.1558,-5.1858,-5.2037,-5.1528,-5.1858,-5.1858,-5.0764,-5.0495,-5.0272,-4.9763,-4.9417,-4.8892,-4.8161,-4.7756,-4.7131,-4.6263,-4.6143,-4.604,-4.5895,-4.5895,-4.5895,-4.5895,-4.5895,-4.5576,-4.4908,-4.4879,-4.4589,-4.3979,-4.3979,-4.3718,-4.3195,-4.3195,-4.2876,0.0,0.0,0.0,0.0,0.0,0.0,0.0,0.0,0.0,0.0,0.0,0.0,0.0,0.0,0.0,0.0,0.0,0.0,0.0,0.0,0.0,0.0,0.0,0.0,0.0,0.0,0.0,0.0,0.0,0.0,0.0,0.0,0.0,0.0,0.0,0.0,-5.4221,-5.3204,-5.2725,-5.2695,-5.2396,-5.1887,-5.1289,-5.1947,-5.2067,-5.1678,-5.0973,-5.0704,-5.0674,-5.0421,-5.0272,-5.0242,-4.9912,-4.9763,-4.9733,-4.9449,-4.9494,-4.9763,-4.9763,-5.0212,-5.0644,-5.0391,-5.072,-5.1169,-5.084,-5.0913,-5.1229,-5.1229,-5.1229,-5.1229,-5.1229,-5.1229,-5.1229,-5.1229,-5.1738,-5.2157,-5.1798,-5.1738,-5.1618,-5.1289,-5.1498,-5.1618,-5.1289,-5.1229,-5.093,-4.9912,-4.9672,-4.9461,-4.9148,-4.8595,-4.8042,-4.7492,-4.6988,-4.6486,-4.5969,-4.5895,-4.5895,-4.5895,-4.5895,-4.5895,-4.5895,-4.5895,-4.5576,-4.4908,-4.4618,-4.4153,-4.3515,-4.3224,-4.2905,-4.2557,-4.2557,-4.2382,0.0,0.0,0.0,0.0,0.0,0.0,0.0,0.0,0.0,0.0,0.0,0.0,0.0,0.0,0.0,0.0,0.0,0.0,0.0,0.0,0.0,0.0,0.0,0.0,0.0,0.0,0.0,0.0,0.0,0.0,0.0,0.0,0.0,0.0,0.0,-5.4132,-5.3025,-5.2366,-5.1977,-5.1858,-5.1199,-5.0601,-5.0046,-5.0631,-5.087,-5.084,-5.0301,-5.0016,-4.9986,-4.9494,-4.9299,-4.9299,-4.9179,-4.9149,-4.912,-4.903,-4.906,-4.9149,-4.9149,-4.9523,-5.0002,-4.9583,-5.0152,-5.0913,-5.0495,-5.0734,-5.1229,-5.1229,-5.1229,-5.1229,-5.1229,-5.1229,-5.1229,-5.1229,-5.1139,-5.105,-5.105,-5.105,-5.102,-5.09,-5.087,-5.093,-5.102,-5.0465,-4.9853,-4.9239,-4.894,-4.8745,-4.858,-4.788,-4.7331,-4.706,-4.6501,-4.609,-4.594,-4.5895,-4.5895,-4.5895,-4.5895,-4.5895,-4.5895,-4.5779,-4.5459,-4.4908,-4.4298,-4.3602,-4.2847,-4.2324,-4.2092,-4.2092,-4.2092,-4.2092,0.0,0.0,0.0,0.0,0.0,0.0,0.0,0.0,0.0,0.0,0.0,0.0,0.0,0.0,0.0,0.0,0.0,0.0,0.0,0.0,0.0,0.0,0.0,0.0,0.0,0.0,0.0,0.0,0.0,0.0,0.0,0.0,-5.5448,-5.5209,-5.3503,0.0,-5.2336,-5.1678,-5.105,-5.0435,-4.9853,-4.9539,-4.9449,-4.9539,-4.9569,-4.9569,-4.9479,-4.9449,-4.9419,-4.9329,-4.9299,-4.9239,-4.8626,-4.8416,-4.8356,-4.7788,-4.7938,-4.8416,-4.8416,-4.888,-4.9464,-4.9942,-5.0166,-5.0405,-5.093,-5.1139,-5.1229,-5.1229,-5.1229,-5.1229,-5.1229,-5.1229,-5.1229,-5.1229,-5.0734,-5.0315,-5.0315,-5.0315,-5.0212,-4.9643,-4.9569,-4.9703,-5.0226,-4.9823,-4.9164,-4.8506,-4.8416,-4.8074,-4.7258,-4.6889,-4.6638,-4.6342,-4.6104,-4.594,-4.5895,-4.5895,-4.5895,-4.5895,-4.5895,-4.5895,-4.5895,-4.5314,-4.4966,-4.4879,-4.4298,-4.3398,-4.2208,-4.2121,-4.2092,-4.2092,-4.2092,-4.2092,0.0,0.0,0.0,0.0,0.0,0.0,0.0,0.0,0.0,0.0,0.0,0.0,0.0,0.0,0.0,0.0,0.0,0.0,0.0,0.0,0.0,0.0,0.0,0.0,0.0,0.0,0.0,0.0,0.0,0.0,0.0,-5.5329,-5.4311,-5.3533,-5.2665,0.0,-5.1109,-5.0764,-5.0331,-4.9673,-4.9045,-4.876,-4.876,-4.8327,-4.8566,-4.9299,-4.891,-4.876,-4.8686,-4.8327,-4.8177,-4.8147,-4.7848,-4.7728,-4.7698,-4.7429,-4.7489,-4.7728,-4.7728,-4.8177,-4.8775,-4.9045,-4.9643,-5.0166,-5.0152,-5.0631,-5.1139,-5.0734,-5.0883,-5.1229,-5.1229,-5.1229,-5.1139,-5.0704,-5.0405,-4.9986,-4.9314,-4.9434,-4.9613,-4.9359,-4.9299,-4.9224,-4.9164,-4.8925,-4.8506,-4.7848,-4.7509,-4.717,-4.6815,-4.6403,-4.6135,-4.6046,-4.5956,-4.5895,-4.5895,-4.5895,-4.5895,-4.5895,-4.5547,-4.5314,-4.5314,-4.4705,-4.4211,-4.3834,-4.3573,-4.3166,-4.2586,-4.2266,-4.2092,-4.2092,-4.2092,-4.2092,0.0,0.0,0.0,0.0,0.0,0.0,0.0,0.0,0.0,0.0,0.0,0.0,0.0,0.0,0.0,0.0,0.0,0.0,0.0,0.0,0.0,0.0,0.0,0.0,0.0,0.0,0.0,0.0,0.0,0.0,-5.5448,-5.4491,-5.3473,-5.2486,-5.2127,-5.1468,-5.0435,-5.0106,-4.9673,-4.906,-4.8356,-4.8027,-4.8027,-4.7519,-4.7848,-4.8745,-4.8237,-4.8027,-4.7997,-4.7519,-4.7309,-4.7309,-4.7309,-4.7309,-4.7309,-4.7309,-4.7309,-4.7309,-4.7309,-4.7638,-4.8057,-4.8237,-4.9075,-4.9942,-4.9613,-5.0301,-5.1109,-5.0584,-5.0794,-5.1229,-5.1229,-5.1229,-5.105,-5.0345,-5.0076,-4.9673,-4.8536,-4.87,-4.906,-4.906,-4.906,-4.891,-4.8386,-4.8147,-4.7878,-4.7369,-4.6931,-4.6668,-4.6609,-4.6225,-4.5956,-4.594,-4.5895,-4.5895,-4.5895,-4.5721,-4.5634,-4.5634,-4.5024,-4.4647,-4.4647,-4.4066,-4.3515,-4.2992,-4.2847,-4.276,-4.276,-4.2324,-4.2092,-4.2092,-4.2092,-4.2092,0.0,0.0,0.0,0.0,0.0,0.0,0.0,0.0,0.0,0.0,0.0,0.0,0.0,0.0,0.0,0.0,0.0,0.0,0.0,0.0,0.0,0.0,0.0,0.0,0.0,0.0,0.0,0.0,0.0,0.0,-5.6128,-5.4281,-5.3204,-5.3144,-5.1917,-5.1229,-5.1169,-4.9942,-4.8985,-4.8327,-4.7668,-4.7369,-4.7369,-4.7309,-4.7339,-4.7399,-4.7369,-4.7369,-4.7369,-4.7309,-4.7309,-4.7309,-4.7309,-4.7309,-4.7309,-4.7309,-4.7309,-4.7309,-4.7309,-4.7339,-4.7459,-4.8087,-4.8745,-4.9434,-5.0002,-5.0614,-5.1199,-5.1169,-5.1199,-5.1229,-5.1229,-5.1229,-5.105,-5.0345,-4.9763,-4.9179,-4.8446,-4.8327,-4.8327,-4.8327,-4.8327,-4.8327,-4.8297,-4.7758,-4.7339,-4.7309,-4.7062,-4.68,-4.6624,-4.6358,-4.609,-4.594,-4.5895,-4.5895,-4.5895,-4.5314,-4.4937,-4.4937,-4.4356,-4.4037,-4.4037,-4.3398,-4.3021,-4.2992,-4.244,-4.215,-4.215,-4.2121,-4.2092,-4.2092,-4.2092,-4.2092,0.0,0.0,0.0,0.0,0.0,0.0,0.0,0.0,0.0,0.0,0.0,0.0,0.0,0.0,0.0,0.0,0.0,0.0,0.0,0.0,0.0,0.0,0.0,0.0,0.0,0.0,0.0,0.0,0.0,0.0,-5.4251,-5.3174,-5.2366,-5.1947,-5.1003,-5.0182,-4.9344,-4.8446,-4.7908,-4.7668,-4.7429,-4.7309,-4.7309,-4.7309,-4.7309,-4.7309,-4.7309,-4.7309,-4.7309,-4.7309,-4.7309,-4.7309,-4.7309,-4.7309,-4.7309,-4.7309,-4.7309,-4.7309,-4.7309,-4.7309,-4.7429,-4.8087,-4.8446,-4.8686,-4.8895,-4.9434,-4.9972,-4.9972,-5.0272,-5.0644,-5.1109,-5.1229,-5.096,-4.9853,-4.9105,-4.8446,-4.7788,-4.7668,-4.7668,-4.7668,-4.7668,-4.7668,-4.7668,-4.7459,-4.7309,-4.7309,-4.6931,-4.6668,-4.6609,-4.6225,-4.5956,-4.594,-4.5895,-4.5895,-4.5895,-4.5285,-4.4879,-4.4879,-4.3921,-4.334,-4.334,-4.276,-4.2411,-4.2411,-4.2208,-4.2092,-4.2092,-4.2092,-4.2092,-4.2092,-4.2092,-4.2092,-5.096,0.0,0.0,0.0,0.0,0.0,0.0,0.0,0.0,0.0,0.0,0.0,0.0,0.0,0.0,0.0,0.0,0.0,0.0,0.0,0.0,0.0,0.0,0.0,0.0,0.0,0.0,0.0,0.0,0.0,-5.3204,-5.2546,-5.1798,-5.0853,-5.0242,-4.9374,-4.8297,-4.7848,-4.7519,-4.7309,-4.7309,-4.7309,-4.7309,-4.7309,-4.7309,-4.7309,-4.7309,-4.7309,-4.7309,-4.7309,-4.7309,-4.7309,-4.7309,-4.7309,-4.7309,-4.7309,-4.7309,-4.7309,-4.7309,-4.7309,-4.7369,-4.7818,-4.8117,-4.8297,-4.8297,-4.879,-4.9299,-4.9299,-4.9733,-5.0285,-5.0734,-5.072,-5.0272,-4.9239,-4.8446,-4.7848,-4.7399,-4.7638,-4.7848,-4.7399,-4.7489,-4.7549,-4.7339,-4.7309,-4.7266,-4.7149,-4.6844,-4.6535,-4.6491,-4.6135,-4.5895,-4.5895,-4.5895,-4.5808,-4.5576,-4.4966,-4.4589,-4.4589,-4.3573,-4.3079,-4.3311,-4.2934,-4.2615,-4.2411,-4.2382,-4.2295,-4.2092,-4.2092,-4.2092,-4.2092,-4.2092,-4.2092,0.0,0.0,0.0,0.0,0.0,0.0,0.0,0.0,0.0,0.0,0.0,0.0,0.0,0.0,0.0,0.0,0.0,0.0,0.0,0.0,0.0,0.0,0.0,0.0,0.0,0.0,0.0,0.0,0.0,-5.2486,-5.3084,-5.2486,-5.1528,-5.0166,-4.9583,-4.897,-4.8267,-4.8267,-4.7938,-4.7309,-4.7309,-4.7309,-4.7309,-4.7309,-4.7309,-4.7309,-4.7309,-4.7309,-4.7309,-4.7309,-4.7309,-4.7309,-4.7309,-4.7309,-4.7309,-4.7309,-4.7309,-4.7309,-4.7309,-4.7309,-4.7309,-4.7309,-4.7728,-4.8267,-4.8267,-4.8686,-4.9269,-4.9269,-4.9703,-5.0136,-5.0166,-4.9733,-4.9149,-4.8446,-4.7818,-4.7369,-4.7309,-4.8327,-4.891,-4.7549,-4.7818,-4.8057,-4.7429,-4.7309,-4.7222,-4.6931,-4.6712,-4.6491,-4.6225,-4.6001,-4.5895,-4.5895,-4.5895,-4.5634,-4.4966,-4.4356,-4.4008,-4.4008,-4.3398,-4.3311,-4.3979,-4.3979,-4.366,-4.2992,-4.2963,-4.2673,-4.2092,-4.2092,-4.2092,-4.2092,-4.2092,-4.2092,-4.9583,0.0,0.0,0.0,0.0,0.0,0.0,0.0,0.0,0.0,0.0,0.0,0.0,0.0,0.0,0.0,0.0,0.0,0.0,0.0,0.0,0.0,0.0,0.0,0.0,0.0,0.0,0.0,0.0,-5.2576,-5.1798,-5.069,-4.9703,-4.8835,-4.8656,-4.8237,-4.7578,-4.7578,-4.7489,-4.7309,-4.7309,-4.7309,-4.7309,-4.7309,-4.7309,-4.7309,-4.7309,-4.7309,-4.7309,-4.7309,-4.7309,-4.7309,-4.7309,-4.7309,-4.7309,-4.7309,-4.7309,-4.7309,-4.7309,-4.7309,-4.7309,-4.7309,-4.7429,-4.7578,-4.7578,-4.7698,-4.7938,-4.8416,-4.8686,-4.8925,-4.9404,-4.9449,-4.9149,-4.8446,-4.8506,-4.8446,-4.7519,-4.7967,-4.8297,-4.7459,-4.7459,-4.7519,-4.7339,-4.7149,-4.6975,-4.6931,-4.658,-4.6269,-4.6225,-4.6001,-4.5895,-4.5895,-4.5895,-4.5808,-4.5634,-4.5024,-4.4647,-4.4647,-4.4066,-4.3805,-4.3979,-4.3515,-4.3195,-4.2992,-4.2557,-4.2266,-4.2092,-4.2092,-4.2092,-4.2092,-4.2092,-4.2092,-4.9823,-4.9883,-5.0361,0.0,0.0,0.0,0.0,0.0,0.0,0.0,0.0,0.0,0.0,0.0,0.0,0.0,0.0,0.0,0.0,0.0,0.0,0.0,0.0,0.0,0.0,0.0,0.0,0.0,-5.1738,-5.1498,-5.0451,-4.9434,-4.8686,-4.8297,-4.8027,-4.7698,-4.7309,-4.7309,-4.7309,-4.7309,-4.7309,-4.7309,-4.7309,-4.7309,-4.7309,-4.7309,-4.7309,-4.7309,-4.7309,-4.7309,-4.7309,-4.7309,-4.7309,-4.7309,-4.7309,-4.7309,-4.7309,-4.7309,-4.7309,-4.7309,-4.7309,-4.7309,-4.7309,-4.7309,-4.7309,-4.7309,-4.7399,-4.7758,-4.8087,-4.8386,-4.8745,-4.8865,-4.8686,-4.8027,-4.8177,-4.8237,-4.7489,-4.7608,-4.7758,-4.7369,-4.7309,-4.7309,-4.7309,-4.7062,-4.6887,-4.68,-4.6447,-4.618,-4.609,-4.5956,-4.5895,-4.5895,-4.5895,-4.5779,-4.5488,-4.5111,-4.4879,-4.4879,-4.456,-4.4356,-4.4356,-4.3979,-4.3544,-4.2992,-4.2644,-4.2353,-4.2092,-4.2092,-4.2092,-4.2092,-4.2092,-4.2092,-5.0465,-5.0614,-5.1528,-5.3324,0.0,0.0,-5.0106,-4.9733,-4.9239,0.0,0.0,0.0,0.0,0.0,0.0,0.0,0.0,0.0,0.0,0.0,0.0,0.0,0.0,0.0,0.0,0.0,0.0,-5.0136,-5.0016,-4.9763,-4.9239,-4.8536,-4.8177,-4.8177,-4.7565,-4.7266,-4.7309,-4.7309,-4.7309,-4.7309,-4.7309,-4.7309,-4.7309,-4.7309,-4.7279,-4.7189,-4.7279,-4.7279,-4.7189,-4.7279,-4.7309,-4.7309,-4.7309,-4.7309,-4.7309,-4.7309,-4.7309,-4.7309,-4.7309,-4.7309,-4.7309,-4.7309,-4.7309,-4.7309,-4.7309,-4.7309,-4.7309,-4.7309,-4.7728,-4.8177,-4.8177,-4.8237,-4.8117,-4.7459,-4.7369,-4.7399,-4.7309,-4.7309,-4.7309,-4.7309,-4.7309,-4.7309,-4.7309,-4.7062,-4.68,-4.6624,-4.6358,-4.609,-4.594,-4.5895,-4.5895,-4.5895,-4.5895,-4.5605,-4.4937,-4.4879,-4.485,-4.4792,-4.4792,-4.4792,-4.4792,-4.4705,-4.4153,-4.3021,-4.2934,-4.2644,-4.2092,-4.2092,-4.2092,-4.2092,-4.2092,-4.2092,-4.9986,-5.0285,-5.0465,0.0,0.0,0.0,-4.9703,-4.9763,-5.0002,0.0,0.0,0.0,0.0,0.0,0.0,0.0,0.0,0.0,0.0,0.0,0.0,0.0,0.0,0.0,0.0,0.0,0.0,-4.9494,-4.8985,-4.8626,-4.8476,-4.7642,-4.7271,-4.7489,-4.7165,-4.7062,-4.7309,-4.7309,-4.7309,-4.7309,-4.7309,-4.7309,-4.7309,-4.7309,-4.701,-4.6561,-4.707,-4.701,-4.6561,-4.71,-4.7309,-4.7309,-4.7309,-4.7309,-4.7309,-4.7309,-4.7309,-4.7309,-4.7309,-4.7309,-4.7309,-4.7309,-4.7309,-4.7309,-4.7309,-4.7309,-4.7309,-4.7309,-4.7399,-4.7489,-4.7489,-4.7908,-4.8117,-4.7459,-4.7698,-4.7967,-4.7429,-4.7309,-4.7309,-4.7309,-4.7309,-4.7309,-4.7309,-4.6931,-4.6653,-4.6609,-4.6225,-4.5911,-4.594,-4.5895,-4.5895,-4.5895,-4.5895,-4.5605,-4.4937,-4.4879,-4.4676,-4.4182,-4.4182,-4.4182,-4.4182,-4.366,-4.3253,-4.2992,-4.2528,-4.2208,-4.2092,-4.2092,-4.2092,-4.2092,-4.2092,-4.2092,0.0,0.0,0.0,-5.1618,0.0,0.0,0.0,-4.9494,0.0,0.0,0.0,0.0,0.0,0.0,0.0,0.0,0.0,0.0,0.0,0.0,0.0,0.0,0.0,0.0,0.0,0.0,-4.9494,-4.888,-4.8059,-4.7612,-4.7612,-4.7153,-4.6931,-4.6961,-4.7019,-4.7106,-4.7106,-4.7222,-4.7309,-4.7309,-4.7309,-4.7309,-4.7309,-4.7309,-4.695,-4.6352,-4.6681,-4.6621,-4.6309,-4.6681,-4.701,-4.7309,-4.7309,-4.7309,-4.7309,-4.7309,-4.7309,-4.7309,-4.7309,-4.7309,-4.7309,-4.7309,-4.7309,-4.7309,-4.7309,-4.7309,-4.7309,-4.7309,-4.7309,-4.7309,-4.7309,-4.7549,-4.7728,-4.7369,-4.7549,-4.7698,-4.7369,-4.7309,-4.7309,-4.7309,-4.7222,-4.7106,-4.7106,-4.68,-4.6535,-4.6403,-4.609,-4.5895,-4.5895,-4.5895,-4.5895,-4.5895,-4.5576,-4.5256,-4.4908,-4.4618,-4.4298,-4.4008,-4.3979,-4.3834,-4.3515,-4.3485,-4.334,-4.2992,-4.2702,-4.2382,-4.2092,-4.2092,-4.2092,-4.2092,-4.2092,-4.2092,0.0,0.0,0.0,0.0,0.0,-5.1349,0.0,0.0,0.0,0.0,0.0,0.0,0.0,0.0,0.0,0.0,0.0,0.0,0.0,0.0,0.0,0.0,0.0,0.0,0.0,0.0,-4.8701,-4.7924,-4.7332,-4.6903,-4.6753,-4.6755,-4.6697,-4.6491,-4.6753,-4.684,-4.6753,-4.6927,-4.7146,-4.7309,-4.7309,-4.7309,-4.7309,-4.7309,-4.686,-4.6142,-4.6219,-4.6262,-4.6142,-4.6262,-4.6711,-4.7309,-4.7309,-4.7309,-4.7309,-4.7309,-4.7309,-4.7309,-4.7309,-4.7309,-4.7309,-4.7309,-4.7309,-4.7309,-4.7309,-4.7309,-4.7309,-4.7309,-4.7309,-4.7309,-4.7309,-4.7309,-4.7309,-4.7309,-4.7309,-4.7309,-4.7309,-4.7309,-4.7266,-4.7222,-4.7062,-4.6931,-4.6931,-4.6668,-4.6447,-4.6225,-4.6001,-4.5895,-4.5895,-4.5895,-4.5895,-4.5895,-4.5285,-4.485,-4.4734,-4.4153,-4.3747,-4.3631,-4.3631,-4.3369,-4.2847,-4.334,-4.3369,-4.2847,-4.2818,-4.2586,-4.2092,-4.2092,-4.2092,-4.2092,-4.2092,-4.2092,0.0,0.0,0.0,0.0,-5.2217,0.0,0.0,0.0,0.0,0.0,0.0,0.0,0.0,0.0,0.0,0.0,0.0,0.0,0.0,0.0,0.0,0.0,0.0,0.0,0.0,0.0,0.0,-4.6364,-4.7022,-4.7022,-4.6172,-4.6211,-4.6226,-4.61,-4.5725,-4.5725,-4.6113,-4.6113,-4.6539,-4.7309,-4.7309,-4.7309,-4.7309,-4.7309,-4.6621,-4.5454,-4.6052,-4.5963,-4.5454,-4.6082,-4.6711,-4.7309,-4.7309,-4.7309,-4.7309,-4.7309,-4.7309,-4.7309,-4.7309,-4.7309,-4.7309,-4.7309,-4.7309,-4.7309,-4.7309,-4.7309,-4.7309,-4.7309,-4.7309,-4.7309,-4.7309,-4.7309,-4.7309,-4.7309,-4.7309,-4.7309,-4.7309,-4.7309,-4.7222,-4.6975,-4.6931,-4.6931,-4.6931,-4.6535,-4.6269,-4.6225,-4.6001,-4.5895,-4.5895,-4.5895,-4.5895,-4.5895,-4.5285,-4.4676,-4.4124,-4.3485,-4.2876,-4.2353,-4.2324,-4.2266,-4.2208,-4.2266,-4.2266,-4.2208,-4.2208,-4.2179,-4.2092,-4.2092,-4.2092,-4.2092,-4.2092,-4.2092,0.0,0.0,0.0,0.0,0.0,0.0,-5.1468,0.0,-5.0481,0.0,0.0,0.0,0.0,0.0,0.0,0.0,0.0,0.0,0.0,0.0,0.0,0.0,0.0,0.0,0.0,0.0,0.0,0.0,0.0,-4.652,-4.5476,-4.5355,-4.5183,-4.5004,-4.5089,-4.5132,-4.5217,-4.5471,-4.5759,-4.6142,-4.6142,-4.6352,-4.6741,-4.6741,-4.6202,-4.5304,-4.5603,-4.5574,-4.5304,-4.5603,-4.6352,-4.7309,-4.7309,-4.7309,-4.7309,-4.7309,-4.7309,-4.7309,-4.7309,-4.7309,-4.7309,-4.7309,-4.7309,-4.7309,-4.7309,-4.7309,-4.7309,-4.7309,-4.7309,-4.7309,-4.7309,-4.7309,-4.7309,-4.7309,-4.7309,-4.7309,-4.7309,-4.7149,-4.7019,-4.6931,-4.6712,-4.6462,-4.6462,-4.6358,-4.618,-4.6046,-4.5636,-4.5314,-4.5314,-4.4995,-4.4792,-4.4792,-4.4182,-4.3689,-4.3427,-4.2847,-4.2353,-4.2121,-4.2092,-4.2266,-4.2615,-4.2615,-4.2615,-4.2615,-4.2615,-4.244,-4.2092,-4.2092,-4.2092,-4.2092,-4.2092,-4.2092,-5.0794,0.0,0.0,0.0,0.0,0.0,0.0,0.0,0.0,0.0,0.0,0.0,0.0,0.0,0.0,-4.9553,0.0,0.0,0.0,0.0,0.0,0.0,0.0,0.0,0.0,0.0,0.0,0.0,-4.6152,0.0,-4.4655,-4.4503,-4.4334,-4.4115,-4.4369,-4.4495,-4.4453,-4.4787,-4.5083,-4.5304,-4.5304,-4.5663,-4.6279,-4.6279,-4.5933,-4.5304,-4.5484,-4.5454,-4.5304,-4.5514,-4.6262,-4.7309,-4.7309,-4.7309,-4.7309,-4.7309,-4.7309,-4.7309,-4.7309,-4.7309,-4.7309,-4.7309,-4.7309,-4.7309,-4.7309,-4.7309,-4.7309,-4.7309,-4.7309,-4.7309,-4.7309,-4.7309,-4.7309,-4.7309,-4.7309,-4.7266,-4.7222,-4.7019,-4.6887,-4.6756,-4.6417,-4.618,-4.6135,-4.5989,-4.5783,-4.5649,-4.5198,-4.4879,-4.4879,-4.4676,-4.4501,-4.4501,-4.3921,-4.3456,-4.3282,-4.2702,-4.2266,-4.2121,-4.2092,-4.2295,-4.2731,-4.2731,-4.2731,-4.2731,-4.2731,-4.2528,-4.2092,-4.2092,-4.2092,-4.2092,-4.2092,-4.2009,0.0,0.0,0.0,-5.1079,0.0,0.0,0.0,0.0,-5.099,0.0,0.0,0.0,0.0,-5.1169,-5.096,-5.0255,-5.0704,0.0,0.0,0.0,0.0,0.0,0.0,0.0,0.0,0.0,0.0,0.0,-4.6205,0.0,-4.3546,-4.3802,-4.3945,-4.372,-4.3483,-4.3595,-4.4009,-4.405,-4.4471,-4.5304,-4.5304,-4.5663,-4.6279,-4.6279,-4.5933,-4.5334,-4.5992,-4.5903,-4.5334,-4.6022,-4.6681,-4.7309,-4.7309,-4.7309,-4.7309,-4.7309,-4.7309,-4.7309,-4.7309,-4.7309,-4.7309,-4.7309,-4.7309,-4.7309,-4.7309,-4.7309,-4.7309,-4.7309,-4.7309,-4.7309,-4.7309,-4.7309,-4.7309,-4.7309,-4.7309,-4.7222,-4.6975,-4.6931,-4.68,-4.6314,-4.6225,-4.6135,-4.5911,-4.5388,-4.4908,-4.4908,-4.4908,-4.4879,-4.4879,-4.543,-4.5837,-4.5837,-4.5227,-4.4589,-4.4008,-4.334,-4.2702,-4.2121,-4.2092,-4.2121,-4.2121,-4.2121,-4.2121,-4.2121,-4.2121,-4.2121,-4.2092,-4.2092,-4.2092,-4.2092,-4.2092,-4.1885,0.0,0.0,-4.9733,-5.0375,0.0,0.0,0.0,0.0,0.0,0.0,0.0,0.0,0.0,-5.0631,-5.099,-5.0315,-5.0981,-5.1125,0.0,0.0,0.0,0.0,0.0,0.0,0.0,0.0,0.0,-4.436,-4.4001,-4.3487,0.0,-4.2478,-4.2725,-4.3227,-4.3175,-4.3175,-4.3337,-4.3458,-4.3698,-4.3988,-4.3988,-4.4347,-4.5005,-4.5005,-4.4855,-4.4646,-4.4885,-4.4855,-4.4706,-4.5364,-4.6052,-4.6711,-4.713,-4.7309,-4.7309,-4.7309,-4.7309,-4.7309,-4.7309,-4.7309,-4.7309,-4.7309,-4.7309,-4.7309,-4.7309,-4.7309,-4.7309,-4.7309,-4.7309,-4.7309,-4.7309,-4.7309,-4.7309,-4.7309,-4.7309,-4.7222,-4.6975,-4.68,-4.658,-4.6269,-4.609,-4.5956,-4.594,-4.4995,-4.4589,-4.543,-4.4821,-4.4443,-4.4821,-4.4734,-4.4472,-4.4008,-4.3776,-4.3398,-4.2789,-4.2528,-4.2324,-4.2121,-4.2092,-4.2092,-4.2092,-4.2092,-4.2092,-4.2092,-4.2092,-4.2092,-4.2092,-4.2092,-4.2092,-4.2092,-4.2092,-4.2009,-4.891,-4.897,0.0,0.0,-4.9583,0.0,-4.9793,0.0,0.0,0.0,0.0,0.0,0.0,0.0,-5.1571,-5.0581,-5.1006,-5.0745,0.0,-4.7299,0.0,0.0,0.0,0.0,0.0,0.0,-4.5522,-4.3348,-4.3119,-4.2761,0.0,0.0,-4.209,-4.2951,-4.2981,-4.3021,-4.313,-4.325,-4.329,-4.329,-4.329,-4.3648,-4.4317,-4.4317,-4.4317,-4.4317,-4.4556,-4.4526,-4.4377,-4.5035,-4.5544,-4.6022,-4.6681,-4.695,-4.698,-4.7219,-4.7309,-4.7309,-4.7309,-4.7309,-4.7309,-4.7309,-4.7309,-4.7309,-4.7309,-4.7309,-4.7249,-4.701,-4.713,-4.7249,-4.701,-4.713,-4.7309,-4.7309,-4.7222,-4.7062,-4.6844,-4.6624,-4.6403,-4.6135,-4.6001,-4.5895,-4.5895,-4.4821,-4.4327,-4.5372,-4.4443,-4.3863,-4.4472,-4.424,-4.3834,-4.3398,-4.334,-4.3079,-4.2469,-4.2208,-4.2092,-4.2092,-4.2092,-4.2092,-4.2092,-4.2092,-4.2208,-4.2411,-4.2208,-4.2208,-4.2411,-4.2208,-4.2092,-4.2092,-4.1926,-4.1843]},{"header":{"parameterUnit":"m.s-1","parameterCategory":1,"la1":30.6,"la2":29.2853,"lo1":-89.7004,"lo2":-87.6739,"dy":0.0162,"dx":0.0183,"nx":112,"ny":82,"refTime":"2023-08-07T12:00:00:Z","depth":0,"parameterNumber":3,"parameterNumberName":"V-component_of_WINDS"},"data":[0.0,0.0,0.0,0.0,0.0,0.0,0.0,0.0,0.0,0.0,0.0,0.0,0.0,0.0,0.0,0.0,0.0,0.0,0.0,0.0,0.0,0.0,0.0,0.0,0.0,0.0,0.0,0.0,0.0,0.0,0.0,0.0,0.0,0.0,0.0,0.0,0.0,0.0,0.0,0.0,0.0,0.0,0.0,0.0,0.0,0.0,0.0,0.0,0.0,0.0,0.0,0.0,0.0,0.0,0.0,0.0,0.0,0.0,0.0,0.0,0.0,0.0,0.0,0.0,0.0,0.0,0.0,0.0,0.0,0.0,0.0,0.0,0.0,0.0,0.0,0.0,0.0,0.0,0.0,0.0,0.0,0.0,0.0,0.0,0.0,0.0,0.0,0.0,0.0,0.0,0.0,-3.9277,-4.4043,-4.7383,-4.8223,-4.7734,-4.5273,-4.0389,0.0,0.0,0.0,0.0,0.0,0.0,0.0,0.0,0.0,0.0,0.0,0.0,0.0,0.0,0.0,0.0,0.0,0.0,0.0,0.0,0.0,0.0,0.0,0.0,0.0,0.0,0.0,0.0,0.0,0.0,0.0,0.0,0.0,0.0,0.0,0.0,0.0,0.0,0.0,0.0,0.0,0.0,0.0,0.0,0.0,0.0,0.0,0.0,0.0,0.0,0.0,0.0,0.0,0.0,0.0,0.0,0.0,0.0,0.0,0.0,0.0,0.0,0.0,0.0,0.0,0.0,0.0,0.0,0.0,0.0,0.0,0.0,0.0,0.0,0.0,0.0,0.0,0.0,0.0,0.0,0.0,0.0,0.0,0.0,0.0,0.0,0.0,0.0,0.0,0.0,0.0,0.0,0.0,0.0,0.0,0.0,0.0,0.0,0.0,0.0,0.0,0.0,0.0,0.0,-3.8008,-4.3457,-4.6113,-4.7832,-4.8691,-4.7363,-4.485,-4.1067,0.0,0.0,0.0,0.0,0.0,0.0,0.0,0.0,0.0,0.0,0.0,0.0,0.0,0.0,0.0,0.0,0.0,0.0,0.0,0.0,0.0,0.0,0.0,0.0,0.0,0.0,0.0,0.0,0.0,0.0,0.0,0.0,0.0,0.0,0.0,0.0,0.0,0.0,0.0,0.0,0.0,0.0,0.0,0.0,0.0,0.0,0.0,0.0,0.0,0.0,0.0,0.0,0.0,0.0,0.0,0.0,0.0,0.0,0.0,0.0,0.0,0.0,0.0,0.0,0.0,0.0,0.0,0.0,0.0,0.0,0.0,0.0,0.0,0.0,0.0,0.0,0.0,0.0,0.0,0.0,0.0,0.0,0.0,0.0,0.0,0.0,0.0,0.0,0.0,0.0,0.0,0.0,0.0,0.0,0.0,0.0,0.0,0.0,0.0,0.0,0.0,0.0,0.0,-3.6992,-3.9707,-4.4824,-4.6699,-4.793,-4.8789,-4.7769,-4.5523,-4.1914,-4.0224,0.0,0.0,0.0,0.0,0.0,0.0,0.0,0.0,0.0,0.0,0.0,0.0,0.0,0.0,0.0,0.0,0.0,0.0,0.0,0.0,0.0,0.0,0.0,0.0,0.0,0.0,0.0,0.0,0.0,0.0,0.0,0.0,0.0,0.0,0.0,0.0,0.0,0.0,0.0,0.0,0.0,0.0,0.0,0.0,0.0,0.0,0.0,0.0,0.0,0.0,0.0,0.0,0.0,0.0,0.0,0.0,0.0,0.0,0.0,0.0,0.0,0.0,0.0,0.0,0.0,0.0,0.0,0.0,0.0,0.0,0.0,0.0,0.0,0.0,0.0,0.0,0.0,0.0,0.0,0.0,0.0,0.0,0.0,0.0,0.0,0.0,0.0,0.0,0.0,0.0,0.0,0.0,0.0,0.0,0.0,0.0,0.0,0.0,0.0,0.0,0.0,0.0,-3.9258,-4.1426,-4.5273,-4.6719,-4.7824,-4.8679,-4.7534,-4.55,-4.2484,-4.0181,0.0,0.0,0.0,0.0,0.0,0.0,0.0,0.0,0.0,0.0,0.0,0.0,0.0,0.0,0.0,0.0,0.0,0.0,0.0,0.0,0.0,0.0,0.0,0.0,0.0,0.0,0.0,0.0,0.0,0.0,0.0,0.0,0.0,0.0,0.0,0.0,0.0,0.0,0.0,0.0,0.0,0.0,0.0,0.0,0.0,0.0,0.0,0.0,0.0,0.0,0.0,0.0,0.0,0.0,0.0,0.0,0.0,0.0,0.0,0.0,0.0,0.0,0.0,0.0,0.0,0.0,0.0,0.0,0.0,0.0,0.0,0.0,0.0,0.0,0.0,0.0,0.0,0.0,0.0,0.0,0.0,0.0,0.0,0.0,0.0,0.0,0.0,0.0,0.0,0.0,0.0,0.0,0.0,0.0,0.0,0.0,0.0,0.0,0.0,0.0,0.0,0.0,-4.0195,-4.3086,-4.543,-4.6465,-4.7346,-4.8265,-4.597,-4.3778,-4.2292,-3.8897,0.0,0.0,0.0,0.0,0.0,0.0,0.0,0.0,0.0,0.0,0.0,0.0,0.0,0.0,0.0,0.0,0.0,0.0,0.0,0.0,0.0,0.0,0.0,0.0,0.0,0.0,0.0,0.0,0.0,0.0,0.0,0.0,0.0,0.0,0.0,0.0,0.0,0.0,0.0,0.0,0.0,0.0,0.0,0.0,0.0,0.0,0.0,0.0,0.0,0.0,0.0,0.0,0.0,0.0,0.0,0.0,0.0,0.0,0.0,0.0,0.0,0.0,0.0,0.0,0.0,0.0,0.0,0.0,0.0,0.0,0.0,0.0,0.0,0.0,0.0,0.0,0.0,0.0,0.0,0.0,0.0,0.0,0.0,0.0,0.0,0.0,0.0,0.0,0.0,0.0,0.0,0.0,0.0,0.0,0.0,0.0,0.0,0.0,0.0,0.0,0.0,0.0,-3.988,-4.2982,0.0,-4.6947,-4.7877,-4.8233,-4.7093,-4.523,-4.2403,0.0,0.0,0.0,0.0,0.0,0.0,0.0,0.0,0.0,0.0,0.0,0.0,0.0,0.0,0.0,0.0,0.0,0.0,0.0,0.0,0.0,0.0,0.0,0.0,0.0,0.0,0.0,0.0,0.0,0.0,0.0,0.0,0.0,0.0,0.0,0.0,0.0,0.0,0.0,0.0,0.0,0.0,0.0,0.0,0.0,0.0,0.0,0.0,0.0,0.0,0.0,0.0,0.0,0.0,0.0,0.0,0.0,0.0,0.0,0.0,0.0,0.0,0.0,0.0,0.0,0.0,0.0,0.0,0.0,0.0,0.0,0.0,0.0,0.0,0.0,0.0,0.0,0.0,0.0,0.0,0.0,0.0,0.0,0.0,0.0,0.0,0.0,0.0,0.0,0.0,0.0,0.0,0.0,0.0,0.0,0.0,0.0,0.0,0.0,0.0,0.0,0.0,-3.6819,-3.9931,-4.2875,0.0,-4.6826,-4.7721,-4.7895,-4.6814,-4.4984,-4.2181,0.0,0.0,0.0,0.0,0.0,0.0,0.0,0.0,0.0,0.0,0.0,0.0,0.0,0.0,0.0,0.0,0.0,0.0,0.0,0.0,0.0,0.0,0.0,0.0,0.0,0.0,0.0,0.0,0.0,0.0,0.0,0.0,0.0,0.0,0.0,0.0,0.0,0.0,0.0,0.0,0.0,0.0,0.0,0.0,0.0,0.0,0.0,0.0,0.0,0.0,0.0,0.0,0.0,0.0,0.0,0.0,0.0,0.0,0.0,0.0,0.0,0.0,0.0,0.0,0.0,0.0,0.0,0.0,0.0,0.0,0.0,0.0,0.0,0.0,0.0,0.0,0.0,0.0,0.0,0.0,0.0,0.0,0.0,0.0,0.0,0.0,0.0,0.0,0.0,0.0,0.0,0.0,0.0,0.0,0.0,0.0,0.0,0.0,0.0,0.0,0.0,0.0,-3.7619,-4.0518,-4.2996,-4.4763,-4.5747,-4.6542,-4.6961,-4.4476,-4.2563,0.0,0.0,0.0,0.0,0.0,0.0,0.0,0.0,0.0,0.0,0.0,0.0,0.0,0.0,0.0,0.0,0.0,0.0,0.0,0.0,0.0,0.0,0.0,0.0,0.0,0.0,0.0,0.0,0.0,0.0,0.0,0.0,0.0,0.0,0.0,0.0,0.0,0.0,0.0,0.0,0.0,0.0,0.0,0.0,0.0,0.0,0.0,0.0,0.0,0.0,0.0,0.0,0.0,0.0,0.0,0.0,0.0,0.0,0.0,0.0,0.0,0.0,0.0,0.0,0.0,0.0,0.0,0.0,0.0,0.0,0.0,0.0,0.0,0.0,0.0,0.0,0.0,0.0,0.0,0.0,0.0,0.0,0.0,0.0,0.0,0.0,0.0,0.0,0.0,0.0,0.0,0.0,0.0,0.0,0.0,0.0,0.0,0.0,0.0,0.0,0.0,0.0,0.0,-3.7291,-4.0833,-4.3633,-4.4885,-4.6372,-4.7236,-4.701,-4.5363,-4.3421,-4.1234,0.0,0.0,0.0,0.0,0.0,0.0,0.0,0.0,0.0,0.0,0.0,0.0,0.0,0.0,0.0,0.0,0.0,0.0,0.0,0.0,0.0,0.0,0.0,0.0,0.0,0.0,0.0,0.0,0.0,0.0,0.0,0.0,0.0,0.0,0.0,0.0,0.0,0.0,0.0,0.0,0.0,0.0,0.0,0.0,0.0,0.0,0.0,0.0,0.0,0.0,0.0,0.0,0.0,0.0,0.0,0.0,0.0,0.0,0.0,0.0,0.0,0.0,0.0,0.0,0.0,0.0,0.0,0.0,0.0,0.0,0.0,0.0,0.0,0.0,0.0,0.0,0.0,0.0,0.0,0.0,0.0,0.0,0.0,0.0,0.0,0.0,0.0,0.0,0.0,0.0,0.0,0.0,0.0,0.0,0.0,0.0,0.0,0.0,0.0,0.0,0.0,0.0,-3.7763,-4.1006,-4.358,-4.4893,-4.6123,-4.6782,-4.6513,-4.5581,-4.3656,-4.0551,0.0,0.0,0.0,0.0,0.0,0.0,0.0,0.0,0.0,0.0,0.0,0.0,0.0,0.0,0.0,0.0,0.0,0.0,0.0,0.0,0.0,0.0,0.0,0.0,0.0,0.0,0.0,0.0,0.0,0.0,0.0,0.0,0.0,0.0,0.0,0.0,0.0,0.0,0.0,0.0,0.0,0.0,0.0,0.0,0.0,0.0,0.0,0.0,0.0,0.0,0.0,0.0,0.0,0.0,0.0,0.0,0.0,0.0,0.0,0.0,0.0,0.0,0.0,0.0,0.0,0.0,0.0,0.0,0.0,0.0,0.0,0.0,0.0,0.0,0.0,0.0,0.0,0.0,0.0,0.0,0.0,0.0,0.0,0.0,0.0,0.0,0.0,0.0,0.0,0.0,0.0,0.0,0.0,0.0,0.0,0.0,0.0,0.0,0.0,0.0,0.0,0.0,-3.8697,-4.0915,-4.2952,-4.4733,-4.5374,-4.5664,-4.5623,-4.5188,-4.3408,-3.9757,0.0,0.0,0.0,0.0,0.0,0.0,0.0,0.0,0.0,0.0,0.0,0.0,0.0,0.0,0.0,0.0,0.0,0.0,0.0,0.0,0.0,0.0,0.0,0.0,0.0,0.0,0.0,0.0,0.0,0.0,0.0,0.0,0.0,0.0,0.0,0.0,0.0,0.0,0.0,0.0,0.0,0.0,0.0,0.0,0.0,0.0,0.0,0.0,0.0,0.0,0.0,0.0,0.0,0.0,0.0,0.0,0.0,0.0,0.0,0.0,-3.0221,0.0,0.0,0.0,0.0,0.0,0.0,0.0,0.0,0.0,0.0,0.0,0.0,0.0,0.0,0.0,0.0,0.0,0.0,0.0,0.0,0.0,0.0,0.0,0.0,0.0,0.0,0.0,0.0,0.0,0.0,0.0,0.0,0.0,0.0,0.0,0.0,0.0,0.0,0.0,0.0,0.0,-3.8738,-4.0915,-4.2828,-4.4298,-4.5188,-4.554,-4.5167,-4.4712,-4.3201,-4.0261,-3.8543,0.0,0.0,0.0,0.0,0.0,0.0,0.0,0.0,0.0,0.0,0.0,0.0,0.0,0.0,0.0,0.0,0.0,0.0,0.0,0.0,0.0,0.0,0.0,0.0,0.0,0.0,0.0,0.0,0.0,0.0,0.0,0.0,0.0,0.0,0.0,0.0,0.0,0.0,0.0,0.0,0.0,0.0,0.0,0.0,0.0,0.0,0.0,0.0,0.0,0.0,0.0,0.0,0.0,0.0,0.0,0.0,0.0,0.0,0.0,0.0,-3.3201,0.0,0.0,0.0,0.0,0.0,0.0,0.0,0.0,0.0,0.0,0.0,0.0,0.0,0.0,0.0,0.0,0.0,0.0,0.0,0.0,0.0,0.0,0.0,0.0,0.0,0.0,0.0,0.0,0.0,0.0,0.0,0.0,0.0,0.0,0.0,0.0,0.0,0.0,0.0,0.0,-3.9055,-4.1059,-4.2787,-4.4153,-4.4733,-4.4919,-4.467,-4.4443,-4.3035,-4.0075,-3.9311,0.0,0.0,0.0,0.0,0.0,0.0,0.0,0.0,0.0,0.0,0.0,0.0,0.0,0.0,0.0,0.0,0.0,0.0,0.0,0.0,0.0,0.0,0.0,0.0,0.0,0.0,0.0,0.0,0.0,0.0,0.0,0.0,0.0,0.0,0.0,0.0,0.0,0.0,0.0,0.0,0.0,0.0,0.0,0.0,0.0,0.0,0.0,0.0,0.0,0.0,0.0,0.0,0.0,0.0,-3.6535,-3.6469,-3.6794,-3.8168,-3.9955,-3.7056,-3.6414,-3.7186,0.0,0.0,0.0,0.0,0.0,0.0,0.0,0.0,0.0,0.0,0.0,0.0,0.0,0.0,0.0,0.0,0.0,0.0,0.0,0.0,0.0,0.0,0.0,0.0,0.0,-3.9212,-3.9421,0.0,0.0,0.0,0.0,0.0,0.0,0.0,0.0,0.0,0.0,0.0,0.0,-3.9371,-4.1131,-4.2745,-4.4049,-4.4256,-4.4277,-4.4194,-4.4256,-4.3185,-4.0403,-4.0608,-3.9282,0.0,0.0,0.0,0.0,0.0,0.0,0.0,0.0,0.0,0.0,0.0,0.0,0.0,0.0,0.0,0.0,0.0,0.0,0.0,0.0,0.0,0.0,0.0,0.0,0.0,0.0,0.0,0.0,0.0,0.0,0.0,0.0,-2.6536,-2.6864,0.0,0.0,0.0,0.0,0.0,0.0,0.0,0.0,0.0,0.0,0.0,0.0,0.0,0.0,-3.4429,-3.5633,-3.6218,-3.6411,-3.9295,-4.0571,-4.0245,-4.2156,-4.3248,-4.3663,-4.3844,0.0,-4.1566,-4.1426,0.0,0.0,0.0,0.0,0.0,0.0,0.0,0.0,0.0,0.0,0.0,0.0,0.0,0.0,0.0,0.0,0.0,0.0,0.0,0.0,0.0,0.0,-3.9167,-4.0226,-4.0595,-4.0646,0.0,-3.887,-3.7208,-3.6306,0.0,0.0,0.0,0.0,0.0,0.0,0.0,0.0,-3.9344,-4.1131,-4.2621,-4.3594,-4.407,-4.4132,-4.3739,-4.407,-4.4012,-4.3339,-4.2152,-4.1419,-4.1422,-3.8984,0.0,0.0,0.0,0.0,0.0,0.0,0.0,0.0,0.0,0.0,0.0,0.0,0.0,0.0,0.0,0.0,0.0,0.0,0.0,0.0,0.0,0.0,0.0,0.0,0.0,0.0,0.0,0.0,0.0,-2.5621,-2.6428,-2.5935,-2.6025,-2.6017,0.0,0.0,0.0,0.0,0.0,0.0,0.0,0.0,0.0,-3.4822,-3.682,-3.7737,-3.7346,-4.0368,-4.1304,-4.0335,-4.3287,-4.4517,-4.445,-4.54,-4.5963,-4.6336,-4.6743,-4.6157,-4.4837,-4.4188,-4.2832,-4.1172,0.0,0.0,0.0,0.0,0.0,-4.0312,-4.0371,0.0,0.0,0.0,0.0,0.0,0.0,0.0,0.0,0.0,0.0,0.0,0.0,0.0,0.0,-4.1254,-4.1895,-4.2352,-4.2083,-4.1142,-3.9844,0.0,-3.746,-3.6742,-3.6039,0.0,0.0,0.0,0.0,0.0,-3.9806,-4.1503,-4.287,-4.3532,-4.3801,-4.4204,-4.4859,-4.5105,-4.5196,-4.5152,-4.4914,-4.3959,-4.2131,-4.1174,-4.0554,0.0,0.0,0.0,0.0,0.0,0.0,0.0,0.0,0.0,0.0,0.0,0.0,0.0,0.0,0.0,0.0,0.0,0.0,0.0,0.0,0.0,0.0,0.0,0.0,0.0,0.0,0.0,0.0,-2.6675,-2.7557,-2.6848,-2.8013,-2.8532,0.0,0.0,0.0,0.0,0.0,0.0,-3.4438,-3.622,-3.755,-3.8456,-4.1019,-4.1937,-4.1073,-4.4727,-4.5807,-4.4349,-4.6749,-4.7827,-4.7717,-4.7827,-4.8145,-4.8603,-4.8592,-4.8308,-4.7631,-4.5978,-4.4219,-4.2402,-4.1875,-4.1211,-4.0586,-4.0898,-4.1289,-4.1699,-4.1894,-4.1836,-4.1543,-4.0781,0.0,-3.8887,-3.7812,0.0,0.0,0.0,0.0,-3.9158,-4.0153,0.0,-4.192,-4.2146,-4.2892,-4.3511,-4.318,-4.2663,-4.1793,0.0,-3.9144,-3.8274,-3.7467,0.0,0.0,0.0,0.0,-3.9426,-4.0282,-4.1876,-4.3097,-4.3553,-4.3615,-4.405,-4.5191,-4.5531,-4.5938,-4.6402,-4.6985,-4.6138,-4.36,-4.3325,-4.2418,-4.0721,0.0,0.0,0.0,0.0,0.0,0.0,0.0,0.0,0.0,0.0,0.0,0.0,0.0,0.0,0.0,0.0,0.0,0.0,0.0,0.0,0.0,0.0,0.0,0.0,0.0,0.0,0.0,0.0,0.0,-3.2137,-3.3476,0.0,0.0,0.0,0.0,-3.2835,-3.4455,-3.6536,-3.8959,-4.0445,-4.239,-4.4781,-4.5695,-4.6517,-4.7205,-4.7839,-4.8359,-4.8644,-4.9468,-4.9771,-4.9386,-4.979,-5.0059,-5.0413,-5.0375,-5.0259,-4.9844,-4.7285,-4.5469,-4.418,-4.332,-4.2695,-4.2305,-4.2324,-4.2598,-4.293,-4.2539,-4.2656,-4.291,-4.2441,-4.1445,-4.0332,-3.9863,-3.9141,0.0,0.0,-3.9654,-4.004,-4.1739,-4.2228,-4.2476,-4.3346,-4.3573,-4.3594,-4.3573,-4.289,-4.2053,0.0,-4.0075,-3.9241,-3.8765,0.0,-3.8109,-3.8088,-3.9268,-4.0323,-4.0779,-4.2062,-4.3097,-4.3553,-4.3615,-4.3615,-4.3691,-4.4581,-4.5777,-4.7271,-4.7294,-4.762,-4.8421,-4.5905,-4.4202,-4.3633,-4.1497,0.0,0.0,0.0,0.0,0.0,0.0,0.0,0.0,0.0,0.0,0.0,0.0,0.0,0.0,0.0,0.0,0.0,0.0,0.0,0.0,0.0,0.0,0.0,0.0,0.0,0.0,0.0,0.0,-3.2882,-3.5474,0.0,0.0,-3.5965,-3.6847,-3.85,-4.019,-4.1675,-4.3126,-4.516,-4.6839,-4.7992,-4.8781,-4.9459,-5.001,-5.0156,-5.0046,-4.9698,-5.0248,-5.0303,-4.9918,-5.0065,-5.0438,-5.0867,-5.0602,-5.0374,-5.0078,-4.8867,-4.7285,-4.5566,-4.498,-4.4141,-4.332,-4.3887,-4.4375,-4.4726,-4.457,-4.4629,-4.4492,-4.293,-4.1562,-4.0449,-4.0019,-3.9893,-3.9934,-4.0432,-4.1002,-4.1685,-4.2823,-4.3139,-4.3201,-4.3532,-4.3615,-4.3615,-4.3615,-4.3366,-4.3035,-4.2704,-4.1421,-4.0158,-3.9344,-3.9164,-3.8957,-3.8647,-3.9765,-4.1155,-4.2643,-4.3163,-4.4163,-4.6359,-4.4762,-4.4656,-4.7394,-4.6951,-4.721,-4.8719,-4.8821,-4.8263,-4.7255,-4.5899,-4.4418,-4.2816,-4.163,-4.0601,0.0,0.0,0.0,0.0,0.0,0.0,0.0,0.0,0.0,0.0,0.0,0.0,0.0,0.0,0.0,0.0,0.0,0.0,0.0,0.0,0.0,0.0,0.0,0.0,0.0,0.0,-3.5228,-3.5078,-3.8362,-4.0205,-3.9303,-4.0046,-4.1298,-4.2971,-4.4728,-4.6012,-4.669,-4.8763,-5.0046,-5.0321,-5.0982,-5.1385,-5.1513,-5.1513,-5.1183,-5.0541,-5.0798,-5.078,-5.0523,-5.0395,-5.0643,-5.1094,-5.081,-5.0585,-5.0351,-4.9922,-4.8633,-4.6894,-4.6484,-4.5781,-4.5058,-4.5508,-4.5937,-4.6308,-4.6152,-4.5918,-4.5391,-4.3652,-4.2324,-4.1308,-4.0879,-4.0951,-4.1195,-4.165,-4.215,-4.2788,-4.3456,-4.3718,-4.3842,-4.3842,-4.3842,-4.3842,-4.3842,-4.3718,-4.3573,-4.3408,-4.2269,-4.1151,-4.0551,-4.0199,-3.993,-3.9785,-4.0655,-4.1916,-4.3349,-4.4029,-4.5213,-4.7243,-4.6085,-4.6257,-4.878,-4.817,-4.7877,-4.8525,-4.8707,-4.7857,-4.5824,-4.5397,-4.4317,-4.2514,-4.153,-4.0654,-3.9826,0.0,0.0,0.0,0.0,0.0,0.0,0.0,0.0,0.0,0.0,0.0,0.0,0.0,0.0,0.0,0.0,0.0,0.0,0.0,0.0,0.0,0.0,0.0,-3.2999,-3.5616,-3.7905,-3.9212,-4.2216,-4.3701,-4.2564,-4.4251,-4.5572,-4.5975,-4.7864,-4.9166,-4.9551,-5.111,-5.199,-5.199,-5.2357,-5.2357,-5.1972,-5.1972,-5.1733,-5.1312,-5.133,-5.1312,-5.1275,-5.0872,-5.0865,-5.1113,-5.1075,-5.0968,-5.0762,-5.0332,-4.9394,-4.8164,-4.7754,-4.7558,-4.75,-4.707,-4.7187,-4.75,-4.7051,-4.6367,-4.5527,-4.4668,-4.3808,-4.3008,-4.2578,-4.2466,-4.2505,-4.2897,-4.2985,-4.3101,-4.3462,-4.3946,-4.4277,-4.4277,-4.4277,-4.4277,-4.4277,-4.3925,-4.3491,-4.3035,-4.258,-4.2343,-4.2322,-4.1483,-4.1048,-4.1483,-4.2032,0.0,-4.2998,-4.4741,-4.5989,-4.6137,-4.7462,-4.8105,-4.7576,-4.7882,-4.7604,-4.659,-4.6822,-4.6326,-4.4669,-4.4593,-4.4041,-4.2911,-4.1304,-4.0356,-4.0058,0.0,0.0,0.0,0.0,0.0,0.0,0.0,0.0,0.0,0.0,0.0,0.0,0.0,0.0,0.0,0.0,0.0,0.0,0.0,0.0,0.0,0.0,-3.6181,-3.685,-3.8725,-4.0759,-4.2582,-4.4563,-4.592,-4.6177,-4.724,-4.8084,-4.8469,-5.012,-5.1147,-5.1257,-5.2522,-5.3256,-5.3256,-5.3054,-5.2907,-5.2797,-5.2504,-5.2009,-5.1312,-5.1623,-5.1458,-5.0872,-5.0863,-5.0912,-5.1075,-5.0866,-5.0571,-5.0312,-4.9883,-4.9121,-4.8164,-4.7754,-4.7207,-4.668,-4.6855,-4.7012,-4.7051,-4.6621,-4.5918,-4.5117,-4.457,-4.3808,-4.3047,-4.293,-4.314,-4.3278,-4.3056,-4.3441,-4.3875,-4.3621,-4.3698,-4.3801,-4.3801,-4.3801,-4.3801,-4.3801,-4.3698,-4.3573,-4.3449,-4.3056,-4.2538,-4.1876,-4.1545,-4.1296,-4.1089,0.0,0.0,-4.5698,-4.6848,-4.848,-5.0741,-4.9343,-4.8849,-5.0079,-4.8536,-4.7368,0.0,-4.591,-4.492,-4.4066,-4.3639,-4.2735,-4.1229,-4.0534,-3.9981,0.0,0.0,0.0,0.0,0.0,0.0,0.0,0.0,0.0,0.0,0.0,0.0,0.0,0.0,0.0,0.0,0.0,0.0,0.0,0.0,0.0,0.0,-3.7073,-3.9378,-4.0688,-4.1882,-4.3269,-4.4875,-4.6213,-4.7314,-4.8121,-4.9093,-4.9771,-4.9991,-5.1513,-5.243,-5.243,-5.3586,-5.4172,-5.4007,-5.3751,-5.3476,-5.3109,-5.2889,-5.2375,-5.1568,-5.1825,-5.1513,-5.0706,-5.08,-5.091,0.0,-5.0659,-5.0475,-5.0137,-4.9707,-4.8906,0.0,0.0,0.0,0.0,0.0,-4.7363,-4.7148,-4.6719,-4.6016,-4.5195,-4.459,-4.4043,-4.3676,-4.3644,-4.3638,-4.3657,-4.3553,-4.3755,-4.3946,-4.3677,-4.3615,-4.3615,-4.3615,-4.347,-4.3325,-4.3325,-4.318,-4.3056,-4.3056,0.0,0.0,-4.1669,-4.1731,-4.1835,-4.1752,-4.3769,-4.5632,0.0,-4.8111,-4.9938,-5.1747,-5.0882,-5.0516,-5.1239,-4.943,0.0,0.0,0.0,-4.4166,-4.3162,-4.2811,0.0,0.0,0.0,-4.0361,0.0,0.0,0.0,0.0,-4.0223,-3.9964,0.0,0.0,0.0,0.0,0.0,0.0,0.0,0.0,0.0,0.0,0.0,0.0,0.0,0.0,0.0,0.0,-3.9831,-4.2193,-4.4155,-4.4811,-4.5462,-4.64,-4.7167,-4.7992,-4.8891,-5.0028,-5.078,-5.0908,-5.2375,-5.3274,-5.3329,0.0,0.0,0.0,0.0,-5.3861,-5.3054,-5.2999,-5.2614,-5.1862,-5.1825,-5.1403,-5.0737,-5.0791,-5.0786,-5.0569,-5.0566,-5.0397,-5.0137,-4.9551,-4.8594,-4.75,-4.75,-4.75,-4.7558,-4.7969,-4.7871,0.0,0.0,0.0,0.0,-4.4609,-4.4297,-4.4263,-4.4347,-4.4059,-4.3777,-4.4071,-4.3849,-4.3594,-4.3491,-4.3449,-4.3449,-4.3449,-4.3139,-4.2849,-4.2849,-4.2538,-4.2322,-4.2322,-4.1917,-4.1721,-4.1721,-4.2011,-4.2364,-4.2865,-4.4353,0.0,-4.6146,-4.8893,-5.0761,-5.0688,0.0,0.0,-5.1272,-5.0092,-4.8535,-4.6527,-4.5221,-4.3815,-4.2263,-4.2213,-4.1681,-4.0626,-4.1078,-4.1092,-4.0543,-4.067,-4.1002,-4.1457,-4.1099,-4.0661,0.0,0.0,0.0,0.0,0.0,0.0,0.0,0.0,0.0,0.0,0.0,0.0,0.0,0.0,0.0,-3.9393,-4.2356,-4.4601,-4.5672,-4.6466,-4.6803,-4.6492,-4.691,-4.7791,-4.9239,-5.0193,-5.1128,-5.21,-5.3366,-5.4228,-5.4539,-5.5126,0.0,-5.4338,-5.4007,-5.3476,-5.265,-5.232,-5.1917,-5.1422,0.0,0.0,-5.081,-5.0673,-5.0758,-5.1144,-5.0533,-5.0237,-5.0058,-4.8574,-4.7598,-4.7051,-4.7051,-4.7051,-4.7109,-4.7539,-4.7422,-4.6953,-4.6191,-4.5586,-4.5,-4.4121,-4.3613,-4.3402,-4.3731,-4.3799,0.0,-4.3319,-4.3454,-4.3449,-4.2704,-4.2518,-4.2518,-4.2518,-4.2456,-4.2393,-4.2393,-4.2311,-4.2322,-4.2322,-4.226,-4.2124,-4.2124,-4.197,-4.2021,-4.2941,-4.5021,-4.6816,-4.7742,-5.0133,-5.1668,-5.122,-5.184,-5.18,-5.067,-4.9138,-4.7883,-4.7029,-4.507,-4.3413,-4.2263,-4.2213,-4.1856,-4.115,-4.1493,-4.1375,-4.0795,-4.1749,-4.2242,-4.232,-4.159,-4.1145,0.0,0.0,0.0,0.0,0.0,0.0,0.0,0.0,0.0,0.0,0.0,-3.3742,0.0,0.0,-3.9223,-4.2222,-4.4394,-4.5939,-4.6755,-4.7129,-4.7347,-4.7187,-4.7526,-4.8249,-4.968,-5.0908,-5.1954,-5.276,-5.3952,-5.4649,-5.4613,-5.5016,-5.4759,-5.3751,-5.3531,-5.3035,-5.2247,-5.2229,-5.1917,-5.1312,-5.132,-5.1115,-5.0605,-5.0791,-5.0988,-5.0916,-5.0453,-5.0176,-5.0058,-4.8535,-4.7754,-4.7558,-4.7558,-4.7558,-4.7558,-4.7578,-4.7305,-4.6816,-4.5976,-4.5254,-4.4609,-4.3926,-4.3582,-4.3453,-4.3639,-4.3518,-4.3302,-4.3014,-4.2967,-4.2828,-4.2373,-4.2156,-4.199,-4.199,-4.1731,-4.1565,-4.1565,-4.1565,-4.1565,-4.1565,-4.1565,-4.1565,-4.1565,-4.1379,-4.1851,-4.3469,-4.5467,-4.726,-4.8448,-5.0425,-5.1599,-5.1322,-5.1523,-5.1348,-5.0494,-4.8636,-4.728,-4.6753,-4.4895,-4.3438,-4.2665,-4.2363,-4.1907,-4.13,-4.1436,-4.1499,-4.1537,-4.2107,-4.2422,-4.2372,-4.1953,-4.1742,0.0,0.0,0.0,0.0,0.0,0.0,0.0,0.0,-3.3888,-3.3273,-3.5492,-3.7798,-3.85,-4.0009,-4.2012,-4.4707,-4.5859,-4.6698,-4.7598,-4.7602,-4.7667,-4.8092,-4.8219,-4.8689,-5.001,-5.144,-5.2522,-5.3072,-5.4081,-5.4594,-5.4338,-5.4704,-5.4393,-5.3146,-5.3219,-5.2815,-5.1954,-5.2247,-5.2045,-5.1417,-5.1794,-5.1454,-5.061,-5.1019,-5.1091,-5.0803,-5.0356,-5.0039,-4.9726,-4.873,-4.8281,-4.8223,-4.8301,-4.834,-4.8281,-4.7851,-4.7422,-4.6914,-4.5996,-4.5176,-4.4414,-4.3872,-4.3687,-4.3717,-4.3578,-4.3285,-4.2958,-4.2699,-4.2393,-4.2177,-4.2094,-4.1783,-4.1441,-4.1441,-4.1151,-4.0882,-4.0882,-4.0882,-4.0882,-4.0882,-4.0882,-4.0882,-4.0882,-4.0882,-4.1733,-4.4151,-4.563,-4.7121,-4.8836,-5.0263,-5.1071,-5.0971,-5.1046,-5.0845,-5.0167,-4.836,-4.7004,-4.6351,-4.4819,-4.3714,-4.3162,-4.2665,-4.2108,-4.1601,-4.1656,-4.198,-4.2437,-4.2569,-4.2602,-4.2605,-4.2422,-4.2264,-3.2892,-3.2975,-3.3596,-3.4817,-3.5273,-3.5942,0.0,0.0,-3.8434,-3.888,-3.9907,-4.0859,-4.1308,-4.2459,-4.3848,-4.5351,-4.6308,-4.7305,-4.8613,-4.8322,-4.8386,-4.9482,-4.8508,-4.8377,-4.9973,-5.0927,-5.1917,-5.3035,-5.3586,-5.4007,-5.4319,-5.4704,-5.4393,-5.3146,-5.3476,-5.3109,-5.1954,-5.1972,-5.1982,-5.2047,-5.1303,-5.1301,-5.1696,-5.1089,-5.0997,-5.1289,-5.0547,-4.9512,-4.8437,-4.8691,-4.8555,-4.8242,-4.8633,-4.8789,-4.873,-4.8301,-4.7871,-4.7324,-4.6094,-4.5351,-4.4766,-4.3965,-4.3714,-4.3598,-4.3245,-4.3009,-4.2835,-4.2009,-4.169,-4.1545,-4.1131,-4.0986,-4.0944,-4.0944,-4.0924,-4.0882,-4.0882,-4.0882,-4.0882,-4.0882,-4.0882,-4.0882,-4.0882,-4.0882,-4.1877,-4.4708,-4.5279,-4.6365,-4.9156,-5.0062,-5.0318,-4.9841,-5.0218,-5.0092,-4.9038,-4.8259,-4.738,-4.6376,-4.5196,-4.4292,-4.374,-4.3187,-4.2861,-4.2785,-4.3063,-4.3203,-4.3259,-4.3778,-4.4106,-4.4056,-4.3257,-4.2369,-3.3617,-3.4031,-3.4776,0.0,-3.6763,-3.8017,-3.9129,-3.9947,-4.0778,-4.1559,-4.2425,-4.334,-4.4258,-4.4863,-4.5644,0.0,-4.7441,-4.7949,-4.875,-4.8374,-4.8214,-4.8689,-4.8166,-4.8564,-5.0596,-5.133,-5.2082,-5.3035,-5.3696,-5.4062,-5.3897,-5.4172,-5.3897,-5.3127,-5.3072,-5.2795,-5.2467,-5.2467,-5.2345,-5.2317,-5.192,-5.17,-5.1531,-5.0978,-5.0609,-5.0312,-4.9961,-4.9336,-4.8594,-4.8789,-4.875,-4.8613,-4.8789,-4.8555,-4.8066,-4.7617,-4.7344,-4.6992,-4.5469,-4.4805,-4.4576,-4.3929,-4.3479,-4.3179,-4.2713,-4.2399,-4.2027,-4.14,-4.1172,-4.1131,-4.0924,-4.0882,-4.0882,-4.0882,-4.0882,-4.0882,-4.0882,-4.0882,-4.0882,-4.0882,-4.0882,-4.0882,-4.0882,-4.0882,-4.1573,-4.37,-4.4709,-4.5999,-4.8019,-4.9246,-4.9841,-4.9615,-4.9791,-4.9741,-4.9289,-4.8736,-4.8083,-4.728,-4.62,-4.5196,-4.4317,-4.374,-4.3313,-4.2986,-4.324,-4.3517,-4.3708,-4.4094,-4.403,-4.3516,-4.3206,-4.2422,-3.4214,0.0,0.0,-3.6825,-3.8523,-4.01,-4.0791,-4.2003,-4.3154,-4.3816,-4.4498,-4.5229,-4.6113,-4.6406,-4.6816,-4.7871,-4.8125,-4.8398,-4.8965,-4.8579,-4.8324,-4.8557,-4.8024,-4.8489,-5.062,-5.1123,-5.1642,-5.254,-5.3274,-5.3586,-5.3421,-5.3641,-5.3476,-5.2962,-5.2997,-5.3045,-5.2953,-5.3166,-5.307,-5.2759,-5.2616,-5.2108,-5.1479,-5.0998,-5.0332,-4.9531,-4.9531,-4.9277,-4.8848,-4.873,-4.8672,-4.8652,-4.8418,-4.7949,-4.7324,-4.6641,-4.6484,-4.6367,-4.4902,-4.4394,-4.4302,-4.3674,-4.328,-4.2951,-4.2453,-4.1965,-4.1503,-4.1151,-4.0986,-4.0882,-4.0882,-4.0882,-4.0882,-4.0882,-4.0882,-4.0882,-4.0882,-4.0882,-4.0882,-4.0882,-4.0882,-4.0882,-4.0882,-4.0882,-4.1289,-4.2327,-4.4023,-4.5706,-4.7202,-4.8698,-4.959,-4.959,-4.959,-4.959,-4.959,-4.9088,-4.851,-4.7933,-4.6903,-4.5874,-4.4895,-4.4166,-4.3614,-4.3212,-4.3316,-4.3572,-4.3899,-4.3994,-4.3747,-4.3258,-4.2944,-4.2422,0.0,0.0,-3.6639,-3.8874,-4.1131,-4.3009,-4.398,-4.5249,-4.6246,-4.6226,-4.6187,-4.6279,-4.6298,-4.6641,-4.7051,-4.7519,-4.7949,-4.8516,-4.9375,-4.9024,-4.8955,-4.9877,-4.8309,-4.7921,0.0,-4.9653,-5.0065,-5.1275,-5.177,-5.2174,-5.254,-5.3311,-5.3366,-5.2559,-5.3838,-5.4183,-5.3363,-5.3899,-5.4033,-5.3716,-5.2853,-5.2309,-5.2051,-5.1191,-5.0332,-4.9531,-4.9531,-4.9277,-4.8828,-4.8398,-4.8223,-4.8144,-4.7305,-4.6973,-4.6797,-4.5547,-4.5351,-4.5586,-4.4707,-4.4394,-4.4288,-4.336,-4.2996,-4.289,-4.2459,-4.1938,-4.1565,-4.1545,-4.1214,-4.0882,-4.0882,-4.0882,-4.0882,-4.0882,-4.0882,-4.0882,-4.0882,-4.0882,-4.0882,-4.0882,-4.0882,-4.0882,-4.0882,-4.0882,-4.0954,-4.0954,-4.3401,-4.5706,-4.7202,-4.8698,-4.959,-4.959,-4.959,-4.959,-4.959,-4.9088,-4.851,-4.7933,-4.6903,-4.605,-4.5497,-4.4392,-4.379,-4.379,-4.3518,-4.3572,-4.3899,-4.3581,-4.3593,-4.386,-4.2761,-4.2474,-3.5749,0.0,-3.9744,-4.1752,-4.3739,-4.5316,-4.5919,-4.668,-4.7183,-4.6806,-4.6046,-4.5435,-4.5104,-4.5391,-4.5801,-4.625,-4.7383,-4.8418,-4.9004,-4.9149,-4.904,-4.8357,-4.8307,0.0,0.0,0.0,0.0,-5.0413,-5.1147,-5.1807,-5.2485,-5.3035,-5.3438,-5.3875,-5.3833,-5.4116,-5.4977,-5.3977,-5.3686,-5.3911,-5.2202,-5.1017,-5.0371,-5.0098,-4.9629,-4.9082,-4.9082,-4.9004,-4.8828,-4.8379,-4.8203,-4.8125,-4.7266,-4.6582,-4.5976,-4.498,-4.4336,-4.3906,-4.3633,-4.3503,-4.3396,-4.2779,-4.2285,-4.2098,-4.2245,-4.171,-4.1172,-4.1483,-4.1234,-4.0882,-4.0882,-4.0882,-4.0882,-4.0882,-4.0882,-4.0882,-4.0882,-4.0882,-4.0882,-4.0882,-4.0882,-4.0882,-4.0882,-4.0882,-4.1551,-4.347,-4.4573,-4.6066,-4.8567,-4.9307,-4.959,-4.959,-4.959,-4.959,-4.959,-4.9414,-4.9088,-4.851,-4.7782,-4.6979,-4.6075,-4.4945,-4.4166,-4.3815,-4.3767,-4.3789,-4.3899,-4.3797,-4.357,-4.3284,-4.2526,-4.2056,-3.7715,-3.9889,-4.2083,-4.4091,-4.5726,-4.6947,-4.7403,-4.7854,-4.7947,-4.7196,-4.6129,-4.5051,-4.41,-4.3989,-4.4199,-4.4473,-4.5566,-4.6797,-4.8008,-4.8164,-4.819,-4.8173,-4.8258,0.0,0.0,0.0,0.0,-4.9653,-5.0461,-5.1238,-5.2045,-5.2682,-5.3304,-5.4165,-5.3942,-5.4174,-5.5051,-5.4028,-5.3304,-5.3086,-5.1543,-5.0351,-4.9531,-4.9531,-4.9277,-4.8848,-4.8691,-4.8633,-4.8574,-4.7988,-4.7656,-4.7441,-4.6582,-4.5723,-4.4883,-4.418,-4.3379,-4.2617,-4.2617,-4.2682,-4.2685,-4.2039,-4.1751,-4.1616,-4.1989,-4.1483,-4.0965,-4.1441,-4.1234,-4.0882,-4.0882,-4.0882,-4.0882,-4.0882,-4.0882,-4.0882,-4.0882,-4.0882,-4.0882,-4.0882,-4.0882,-4.0882,-4.0882,-4.136,-4.2656,-4.5571,-4.5999,-4.687,-4.9332,-4.959,-4.959,-4.959,-4.959,-4.959,-4.959,-4.959,-4.9364,-4.8812,-4.8234,-4.7506,-4.6652,-4.5522,-4.4727,-4.4288,-4.4128,-4.4024,-4.4039,-4.3643,-4.3284,-4.2997,-4.2213,-4.1664,-4.0137,-4.2042,-4.3677,-4.5892,-4.7113,-4.7879,-4.8314,-4.8707,-4.8663,-4.7188,-4.6223,-4.5004,0.0,0.0,-4.2383,-4.2422,-4.291,-4.416,-4.6699,-4.6406,-4.6816,0.0,0.0,0.0,0.0,0.0,0.0,-4.9044,0.0,-5.0535,-5.1343,-5.2332,-5.306,-5.3452,-5.3995,-5.4224,-5.3859,-5.3872,-5.3066,-5.1367,-5.0937,-5.0293,-4.9492,-4.9492,-4.9258,-4.8828,-4.8398,-4.8203,-4.8144,-4.7266,-4.666,-4.6211,-4.5312,-4.4453,-4.3652,-4.3183,-4.25,-4.1797,-4.1719,-4.2034,-4.2149,-4.1334,-4.1265,-4.1588,-4.1617,-4.1234,-4.0965,-4.1441,-4.1234,-4.0882,-4.0882,-4.0882,-4.0882,-4.0882,-4.0882,-4.0882,-4.0882,-4.0882,-4.0882,-4.0882,-4.0882,-4.0954,-4.1025,-4.2187,-4.4114,-4.6936,-4.7425,-4.7953,-4.9396,-4.959,-4.959,-4.959,-4.959,-4.959,-4.959,-4.959,-4.9364,-4.8837,-4.8259,-4.7707,-4.7143,-4.6125,-4.5422,-4.5106,-4.4605,-4.4326,-4.4313,-4.3174,-4.2762,-4.2997,-4.1847,-4.1324,-4.1897,-4.4153,-4.6285,-4.7548,-4.8293,-4.8748,-4.8873,-4.8438,-4.7712,-4.6408,-4.4361,-4.2276,0.0,0.0,0.0,-4.2324,-4.4414,0.0,-4.8594,-4.8965,0.0,-4.9492,0.0,-4.9791,-4.9383,-4.9337,0.0,0.0,-5.0351,-5.0917,-5.1941,-5.2901,-5.3651,-5.4082,-5.3689,-5.3835,-5.4481,-5.318,-5.1875,-5.0488,-5.0058,-4.957,-4.9023,-4.9023,-4.8965,-4.8828,-4.8398,-4.8203,-4.8105,-4.6953,-4.6406,-4.6152,-4.4629,-4.3906,-4.3574,-4.2519,-4.1992,-4.166,-4.0991,-4.1036,-4.1374,-4.1407,-4.1281,-4.1131,-4.1503,-4.1234,-4.0965,-4.1441,-4.1234,-4.0882,-4.0882,-4.0882,-4.0882,-4.0882,-4.0882,-4.0882,-4.0882,-4.0882,-4.0882,-4.0882,-4.0882,-4.1218,-4.2327,-4.2818,-4.4114,-4.6936,-4.7425,-4.7953,-4.9396,-4.959,-4.959,-4.959,-4.959,-4.959,-4.959,-4.959,-4.954,-4.9389,-4.8862,-4.8309,-4.7732,-4.6677,-4.5766,-4.5106,-4.4775,-4.4493,-4.4313,-4.3386,-4.2919,-4.2997,-4.1847,-4.1324,-4.4484,-4.643,-4.8107,-4.881,-4.9183,-4.91,-4.8107,-4.7464,-4.6496,-4.4457,-4.2548,0.0,0.0,0.0,0.0,0.0,0.0,0.0,-4.8008,-4.8437,-4.8945,0.0,-5.0625,0.0,-5.0664,-5.0784,-5.1133,0.0,-5.1019,-5.1151,-5.1939,-5.274,-5.3298,-5.3524,-5.3178,-5.3173,-5.3535,-5.2187,-5.1074,-5.0176,-4.9726,-4.9297,-4.8867,-4.8867,-4.875,-4.8555,0.0,-4.7715,-4.7305,-4.6406,-4.5683,-4.5058,-4.4082,-4.3242,-4.25,-4.1797,-4.125,-4.0892,-4.0718,-4.0726,-4.0699,-4.0992,-4.0935,-4.0924,-4.1193,-4.1089,-4.0924,-4.1193,-4.1069,-4.0882,-4.0882,-4.0882,-4.0882,-4.0882,-4.0882,-4.0882,-4.0882,-4.0882,-4.0882,-4.0882,-4.1431,-4.2327,-4.3769,-4.4573,-4.5729,-4.8019,-4.8371,-4.8632,-4.9461,-4.959,-4.959,-4.959,-4.959,-4.959,-4.959,-4.959,-4.959,-4.959,-4.8837,-4.8234,-4.7933,-4.7,-4.6129,-4.5279,-4.5258,-4.5029,-4.445,-4.3727,-4.3258,-4.2997,-4.2108,-4.1559,-4.7196,-4.8541,-4.9349,-4.9742,-4.9763,-4.91,-4.6845,-4.6229,-4.5147,-4.2092,0.0,-3.9705,-3.8045,-3.781,-3.8281,-3.9375,0.0,-4.293,-4.6738,-4.7012,-4.7988,-5.1152,-5.1191,-5.1289,-5.209,-5.2168,-5.2344,-5.2754,-5.1835,-5.1466,-5.1847,-5.2271,-5.2536,-5.2479,-5.2513,-5.2402,-5.1914,-5.1074,-5.0449,-5.0078,-4.959,-4.918,-4.8867,-4.8867,-4.8613,-4.8183,0.0,0.0,-4.6269,-4.5723,-4.4824,-4.3769,-4.3535,-4.2558,-4.123,-4.1132,-4.0577,-4.0023,-4.0787,-4.0752,-4.0412,-4.0484,-4.0638,-4.0882,-4.0882,-4.0882,-4.0882,-4.0882,-4.0882,-4.0882,-4.0882,-4.0882,-4.0882,-4.0882,-4.0882,-4.0882,-4.0882,-4.0882,-4.0882,-4.0882,-4.2067,-4.3562,-4.4983,-4.6402,-4.7887,-4.9396,-4.959,-4.959,-4.959,-4.959,-4.959,-4.959,-4.959,-4.959,-4.959,-4.959,-4.959,-4.959,-4.8611,-4.7983,-4.7908,-4.7258,-4.6493,-4.5668,-4.5876,-4.5589,-4.4853,-4.4199,-4.3572,-4.2997,-4.2422,-4.1873,-4.8479,-4.9494,-5.0197,-5.028,-4.9742,-4.8705,-4.6845,-4.5328,0.0,0.0,-3.9273,-3.8105,-3.7103,-3.7473,0.0,-4.0976,0.0,0.0,0.0,0.0,-5.0117,0.0,0.0,0.0,0.0,0.0,0.0,0.0,0.0,0.0,-5.2513,-5.2613,-5.2457,-5.2225,-5.2226,-5.1816,-5.1035,-5.0176,-4.9707,-4.9629,-4.8828,-4.8594,-4.8867,-4.8867,-4.8613,-4.8164,0.0,0.0,-4.6211,-4.5078,-4.4492,-4.4141,-4.2695,-4.1953,-4.1641,-4.0774,-4.0468,-4.038,-4.0841,-4.0931,-4.0954,-4.1245,-4.1193,-4.0882,-4.0882,-4.0882,-4.0882,-4.0882,-4.0882,-4.0882,-4.0882,-4.0882,-4.0882,-4.0882,-4.0882,-4.0882,-4.0882,-4.0882,-4.0882,-4.0882,-4.2067,-4.3562,-4.4983,-4.6402,-4.7887,-4.9396,-4.959,-4.959,-4.959,-4.959,-4.959,-4.959,-4.959,-4.959,-4.959,-4.959,-4.959,-4.959,-4.8987,-4.841,-4.7933,-4.7612,-4.7112,-4.6283,-4.6083,-4.5797,-4.5454,-4.4382,-4.3572,-4.2997,-4.2422,-4.1873,-5.0115,-5.0984,-5.1439,-5.1191,-5.028,-4.8663,-4.5778,0.0,0.0,0.0,-3.7559,-3.7035,-3.6201,0.0,0.0,0.0,0.0,0.0,0.0,0.0,0.0,0.0,0.0,0.0,0.0,0.0,0.0,0.0,0.0,0.0,-5.2695,-5.2285,-5.1855,-5.1426,-5.1426,-5.1113,-5.0488,-4.9844,-4.9531,-4.9512,-4.8867,-4.8652,-4.8867,-4.8867,-4.8496,-4.7851,0.0,0.0,-4.5547,-4.4473,-4.3769,-4.3242,-4.1973,-4.1347,-4.0991,-4.0369,-4.0686,-4.1369,-4.0842,-4.1265,-4.1981,-4.1408,-4.1048,-4.0882,-4.0882,-4.0882,-4.0882,-4.0882,-4.0882,-4.0882,-4.0882,-4.0882,-4.0882,-4.0882,-4.0882,-4.0882,-4.0882,-4.0882,-4.0882,-4.0882,-4.2656,-4.4436,-4.5096,-4.7069,-4.8763,-4.9461,-4.959,-4.959,-4.959,-4.959,-4.959,-4.959,-4.959,-4.959,-4.959,-4.959,-4.9464,-4.9188,-4.8636,-4.8121,-4.7752,-4.7501,-4.7172,-4.6669,-4.642,-4.6017,-4.5581,-4.4748,-4.3859,-4.3023,-4.2735,-4.2134,-5.1225,-5.2052,-5.2412,-5.204,-5.0694,-4.8498,-4.4655,-4.2591,0.0,0.0,-3.6043,-3.6035,-3.5371,0.0,0.0,0.0,0.0,0.0,0.0,0.0,0.0,0.0,0.0,0.0,0.0,0.0,0.0,0.0,0.0,0.0,0.0,-5.1719,-5.1152,-5.082,-5.0723,-5.043,-4.9902,-4.9473,-4.9238,-4.9238,-4.8789,-4.8672,-4.894,-4.8769,-4.8242,-4.7402,0.0,0.0,0.0,-4.3926,-4.3164,-4.2461,-4.1504,-4.0971,-4.0643,-4.0425,-4.1337,-4.2505,-4.131,-4.2046,-4.3214,-4.1502,-4.0882,-4.0882,-4.0882,-4.0882,-4.0882,-4.0882,-4.0882,-4.0882,-4.0882,-4.0882,-4.0882,-4.0882,-4.1147,-4.1289,-4.0954,-4.136,-4.1693,-4.1431,-4.3678,-4.5661,-4.5661,-4.7887,-4.959,-4.959,-4.959,-4.959,-4.959,-4.959,-4.959,-4.959,-4.959,-4.959,-4.959,-4.959,-4.9414,-4.8987,-4.8284,-4.7831,-4.7648,-4.7385,-4.7118,-4.6966,-4.6669,-4.6264,-4.582,-4.5088,-4.4093,-4.3023,-4.3023,-4.2422,-5.0858,-5.1849,-5.2474,-5.2433,-5.0446,-4.7691,-4.4581,0.0,0.0,-3.6062,-3.5117,-3.4863,-3.4785,0.0,0.0,0.0,0.0,0.0,0.0,0.0,0.0,0.0,0.0,0.0,0.0,0.0,0.0,0.0,0.0,0.0,0.0,-5.1113,-5.084,-5.0801,-5.043,-4.9844,-4.8984,-4.8555,-4.832,-4.832,-4.7891,-4.8105,-4.8848,-4.8457,-4.7793,-4.6933,0.0,0.0,0.0,-4.3496,-4.3086,-4.2932,-4.16,-4.1376,-4.1762,-4.2081,-4.2606,-4.3098,-4.29,-4.3769,-4.455,-4.1764,-4.0882,-4.0882,-4.0882,-4.0882,-4.0882,-4.0882,-4.0882,-4.0882,-4.0882,-4.0882,-4.0882,-4.0882,-4.1926,-4.2538,-4.1218,-4.2936,-4.4436,-4.3167,-4.5255,-4.7202,-4.7202,-4.8502,-4.959,-4.959,-4.959,-4.959,-4.959,-4.959,-4.959,-4.959,-4.959,-4.959,-4.959,-4.959,-4.9565,-4.9515,-4.851,-4.7883,-4.7894,-4.7409,-4.718,-4.7188,-4.6736,-4.6447,-4.6395,-4.5271,-4.4093,-4.3023,-4.3023,-4.2422,-5.0033,-5.1504,-5.2401,-5.2395,-4.9971,-4.6918,-4.4441,0.0,0.0,-3.5505,-3.5059,-3.4961,-3.4414,0.0,0.0,0.0,0.0,0.0,0.0,0.0,0.0,0.0,0.0,0.0,0.0,0.0,0.0,0.0,0.0,0.0,0.0,-5.0762,-5.0566,-5.0058,-4.9609,-4.9082,-4.8476,-4.8301,-4.834,-4.8594,-4.8418,-4.8398,-4.8457,-4.8027,-4.7363,-4.6504,0.0,0.0,0.0,-4.4442,-4.4075,-4.4082,-4.3635,-4.3278,-4.3078,-4.3582,-4.4594,-4.5576,-4.4709,-4.5323,-4.6201,-4.4161,-4.347,-4.3123,-4.1431,-4.0882,-4.0882,-4.0882,-4.0882,-4.0882,-4.0882,-4.0882,-4.1147,-4.1997,-4.2678,-4.3167,-4.3401,-4.4413,-4.5051,-4.4504,-4.5999,-4.7425,-4.7425,-4.8632,-4.959,-4.959,-4.959,-4.959,-4.959,-4.959,-4.959,-4.959,-4.959,-4.959,-4.959,-4.959,-4.9314,-4.8636,-4.8159,-4.7792,-4.7475,-4.7317,-4.7228,-4.7244,-4.6778,-4.6316,-4.5976,-4.514,-4.4093,-4.3023,-4.3023,-4.2422,-4.8398,-5.0417,-5.1966,-5.2157,-4.9352,-4.6181,0.0,0.0,0.0,-3.5086,-3.4863,-3.4805,-3.418,0.0,0.0,0.0,0.0,0.0,0.0,0.0,0.0,0.0,0.0,0.0,0.0,0.0,0.0,0.0,0.0,0.0,0.0,0.0,-4.9824,-4.9336,-4.8887,-4.8516,-4.8203,-4.8203,-4.8301,-4.8476,-4.8476,-4.8242,-4.7812,-4.7402,-4.6983,0.0,0.0,0.0,0.0,-4.5983,-4.5643,-4.5653,-4.5433,-4.5042,-4.4755,-4.5302,-4.6405,-4.7418,-4.6248,-4.6803,-4.7755,-4.5864,-4.5526,-4.5368,-4.2914,-4.2165,-4.2165,-4.2165,-4.2165,-4.2165,-4.2165,-4.1834,-4.1785,-4.2818,-4.3097,-4.3375,-4.4367,-4.5255,-4.5864,-4.5864,-4.7003,-4.8019,-4.8019,-4.8918,-4.959,-4.959,-4.959,-4.959,-4.959,-4.959,-4.959,-4.959,-4.959,-4.959,-4.959,-4.959,-4.9188,-4.8234,-4.807,-4.785,-4.7308,-4.7367,-4.7379,-4.7424,-4.6782,-4.629,-4.5872,-4.5114,-4.4093,-4.3023,-4.3023,-4.2422,-4.5733,-4.8413,-5.1188,-5.1617,-4.8785,-4.5474,0.0,0.0,0.0,-3.5046,-3.4375,-3.4082,-3.4082,0.0,0.0,0.0,0.0,0.0,0.0,0.0,0.0,0.0,0.0,0.0,0.0,0.0,0.0,0.0,0.0,0.0,0.0,0.0,-4.8418,-4.8848,-4.8437,-4.8203,-4.8203,-4.8203,-4.8008,-4.7598,-4.7598,-4.7363,-4.6933,-4.6504,0.0,0.0,0.0,0.0,0.0,-4.7915,-4.7641,-4.7559,-4.6514,-4.6362,-4.6848,-4.7238,-4.7671,-4.7988,-4.7527,-4.8371,-4.9112,-4.6133,-4.6201,-4.7069,-4.5571,-4.5164,-4.5164,-4.5164,-4.5164,-4.5164,-4.5164,-4.4092,-4.3097,-4.3097,-4.3097,-4.3097,-4.3097,-4.5323,-4.7359,-4.7359,-4.8567,-4.959,-4.959,-4.959,-4.959,-4.959,-4.959,-4.959,-4.959,-4.959,-4.959,-4.959,-4.959,-4.959,-4.959,-4.959,-4.9364,-4.8786,-4.8547,-4.815,-4.7592,-4.7632,-4.7703,-4.7677,-4.6934,-4.6473,-4.6473,-4.5297,-4.4093,-4.3023,-4.3023,-4.2422,-4.1778,-4.4087,-4.6061,-4.6241,-4.4656,-4.2823,-4.1862,0.0,0.0,-3.5371,-3.5059,-3.4883,-3.4551,0.0,0.0,0.0,0.0,0.0,0.0,0.0,0.0,0.0,0.0,0.0,0.0,0.0,0.0,0.0,0.0,0.0,0.0,0.0,-4.7539,-4.7969,-4.7851,-4.7773,-4.7773,-4.8066,-4.7988,-4.7578,-4.7578,-4.7051,-4.6142,-4.6786,0.0,0.0,0.0,0.0,0.0,-4.8964,-4.8719,-4.8754,-4.9118,-4.8595,-4.7761,-4.8624,-4.9017,-4.9075,-4.8967,-4.9177,-4.9461,-4.8502,-4.8502,-4.8853,-4.8371,-4.6803,-4.5164,-4.5164,-4.5164,-4.5164,-4.5164,-4.4846,-4.4778,-4.5797,-4.6066,-4.6335,-4.7293,-4.824,-4.8918,-4.8918,-4.9242,-4.959,-4.959,-4.959,-4.959,-4.959,-4.959,-4.959,-4.959,-4.959,-4.959,-4.959,-4.959,-4.959,-4.959,-4.9238,-4.8786,-4.8209,-4.7744,-4.7496,-4.7308,-4.7367,-4.7198,-4.6908,-4.66,-4.6081,-4.5271,-4.4905,-4.4093,-4.2997,-4.2213,-4.1664,0.0,-4.1308,-4.3332,-4.3716,-4.2665,0.0,0.0,0.0,0.0,0.0,0.0,0.0,0.0,0.0,0.0,0.0,0.0,0.0,0.0,0.0,0.0,0.0,0.0,0.0,0.0,0.0,0.0,0.0,0.0,0.0,0.0,0.0,-4.6816,-4.709,-4.7422,-4.75,-4.7344,-4.7754,-4.7598,-4.6855,-4.7698,-4.7428,-4.639,0.0,0.0,0.0,0.0,0.0,0.0,-5.0503,-5.0304,-5.0312,-5.0553,-4.99,-4.904,-4.9466,-4.959,-4.9565,-4.9364,-4.9289,-4.9238,-4.9038,-4.8962,-4.8899,-4.8362,-4.7426,-4.6476,-4.613,-4.5903,-4.5742,-4.5996,-4.5661,-4.5571,-4.7069,-4.6936,-4.6936,-4.8436,-4.8763,-4.8918,-4.9461,-4.959,-4.959,-4.959,-4.959,-4.959,-4.959,-4.959,-4.959,-4.959,-4.959,-4.959,-4.959,-4.9414,-4.9289,-4.9289,-4.8962,-4.851,-4.7933,-4.7652,-4.7399,-4.7231,-4.7442,-4.7322,-4.6813,-4.6578,-4.6003,-4.5007,-4.4408,-4.3598,-4.2683,-4.1742,-4.1324,0.0,-3.983,0.0,0.0,0.0,0.0,0.0,0.0,0.0,0.0,0.0,0.0,0.0,0.0,0.0,0.0,0.0,0.0,0.0,0.0,0.0,0.0,0.0,0.0,0.0,0.0,0.0,0.0,0.0,0.0,0.0,0.0,0.0,-4.625,-4.7228,-4.7374,-4.6894,-4.7374,-4.7032,-4.5883,-4.7873,-4.8419,-4.7613,0.0,0.0,0.0,0.0,0.0,0.0,-5.2116,-5.2026,-5.1875,-5.082,-5.0393,-5.0293,-4.9791,-4.9565,-4.9464,-4.8962,-4.8736,-4.8611,-4.8083,-4.7908,-4.7658,-4.6412,-4.7248,-4.843,-4.7472,-4.6861,-4.6556,-4.7082,-4.6268,-4.5571,-4.7069,-4.6335,-4.5773,-4.7202,-4.7557,-4.7953,-4.9307,-4.959,-4.959,-4.959,-4.959,-4.959,-4.959,-4.959,-4.959,-4.954,-4.954,-4.9515,-4.9464,-4.9012,-4.8711,-4.8711,-4.8686,-4.8435,-4.7883,-4.7968,-4.7795,-4.729,-4.7821,-4.7885,-4.7283,-4.6656,-4.6081,-4.5506,-4.3833,-4.2735,-4.2211,-4.1585,-4.1324,-3.5137,0.0,-3.8066,-3.7857,-3.8014,-3.8092,0.0,0.0,0.0,0.0,0.0,0.0,0.0,0.0,0.0,0.0,0.0,0.0,0.0,0.0,0.0,0.0,0.0,0.0,0.0,0.0,0.0,0.0,0.0,0.0,0.0,0.0,0.0,-4.584,-4.7595,-4.7815,-4.6445,-4.7815,-4.8192,-4.7588,-4.8922,-4.9025,-4.8157,0.0,0.0,0.0,0.0,0.0,-5.1514,-5.1523,-5.1222,-5.0795,-5.0519,-5.0167,-4.9766,-4.964,-4.9339,-4.8937,-4.8812,-4.8485,-4.8083,-4.7958,-4.7908,-4.7845,-4.7508,-4.7016,-4.6408,-4.554,-4.5213,-4.5146,-4.559,-4.5435,-4.5571,-4.7069,-4.7136,-4.7269,-4.8763,-4.9047,-4.9177,-4.9525,-4.959,-4.959,-4.959,-4.959,-4.959,-4.959,-4.959,-4.9439,-4.9012,-4.8962,-4.8786,-4.836,-4.8184,-4.8109,-4.8109,-4.7757,-4.7579,-4.7673,-4.7348,-4.7266,-4.7586,-4.7762,-4.747,-4.6708,-4.5663,-4.4853,-4.4278,-4.3441,-4.2735,-4.2211,-4.1585,-4.1324,-3.4824,-3.5684,-3.6406,-3.6562,-3.709,-3.748,-3.7051,0.0,0.0,0.0,0.0,0.0,0.0,0.0,0.0,0.0,0.0,0.0,0.0,0.0,0.0,0.0,0.0,0.0,0.0,0.0,0.0,0.0,0.0,0.0,0.0,0.0,0.0,0.0,-4.7389,-4.7709,-4.6566,-4.8359,-4.8951,-4.8334,-4.9562,-4.9844,-4.9393,0.0,0.0,0.0,0.0,0.0,-5.0896,-5.0896,-5.0695,-5.0393,-5.0142,-4.9866,-4.9565,-4.9314,-4.9038,-4.8711,-4.8184,-4.7657,-4.7179,-4.7179,-4.7179,-4.7057,-4.6452,-4.5744,-4.5134,-4.5125,-4.4519,-4.3923,-4.4405,-4.4074,-4.4007,-4.5712,-4.6579,-4.7375,-4.8387,-4.9112,-4.959,-4.959,-4.959,-4.959,-4.959,-4.959,-4.959,-4.959,-4.959,-4.949,-4.9188,-4.9163,-4.8937,-4.836,-4.8058,-4.7807,-4.7581,-4.7054,-4.6975,-4.7567,-4.718,-4.7069,-4.7341,-4.7432,-4.7085,-4.6107,-4.4931,-4.4042,-4.3493,-4.2918,-4.2343,-4.1768,-4.1455,-4.1167,-3.5137,-3.5886,-3.666,-3.7003,-3.7422,-3.7637,-3.7285,0.0,0.0,0.0,0.0,0.0,0.0,0.0,0.0,0.0,0.0,0.0,0.0,0.0,0.0,0.0,0.0,0.0,0.0,0.0,0.0,0.0,0.0,0.0,0.0,0.0,0.0,0.0,-4.7423,-4.7694,-4.7466,-4.9213,-4.9562,-4.8608,-5.013,-5.0819,-5.0699,-5.103,0.0,0.0,0.0,0.0,-5.0293,-5.0393,-5.0368,-5.0243,-4.9766,-4.954,-4.9414,-4.8937,-4.8661,-4.8385,-4.7355,-4.6702,-4.6301,-4.6301,-4.6301,-4.612,-4.4951,-4.4645,-4.4753,-4.561,-4.4418,-4.3032,-4.3536,-4.2815,-4.246,-4.4357,-4.5775,-4.6882,-4.7472,-4.8599,-4.9464,-4.9464,-4.9389,-4.9339,-4.9339,-4.9339,-4.9339,-4.9339,-4.9339,-4.9314,-4.9238,-4.9213,-4.9012,-4.846,-4.7958,-4.7481,-4.7054,-4.6577,-4.6683,-4.7475,-4.7266,-4.7023,-4.6829,-4.6955,-4.6578,-4.5506,-4.4434,-4.3546,-4.2892,-4.2396,-4.1873,-4.1324,-4.1324,-4.0984,-3.459,-3.6876,-3.8585,-3.666,-3.6543,-3.6855,-3.6777,0.0,0.0,0.0,0.0,0.0,0.0,0.0,0.0,0.0,0.0,0.0,0.0,0.0,0.0,0.0,0.0,0.0,0.0,0.0,0.0,0.0,0.0,0.0,0.0,0.0,0.0,0.0,0.0,-4.9717,-5.0175,-5.0967,-5.0388,-4.8388,-5.0842,-5.1748,-5.1195,-5.0738,-5.0293,0.0,0.0,-5.0142,-4.9766,-5.0218,-5.0142,-4.9715,-4.9615,-4.9314,-4.8887,-4.8812,-4.8184,-4.728,-4.6652,-4.6376,-4.6301,-4.6301,-4.6301,-4.624,-4.6059,-4.5974,-4.6024,-4.6199,-4.4631,-4.3032,-4.3471,-4.3476,-4.3697,-4.5225,-4.6101,-4.698,-4.8263,-4.876,-4.8887,-4.8887,-4.851,-4.8159,-4.8159,-4.8159,-4.8159,-4.8159,-4.8159,-4.8008,-4.7556,-4.7444,-4.7305,-4.6753,-4.6602,-4.6527,-4.6451,-4.6351,-4.6566,-4.7215,-4.6762,-4.6515,-4.6573,-4.6077,-4.5584,-4.4931,-4.4279,-4.3415,-4.2291,-4.2264,-4.1873,-4.1324,-4.1324,-4.0984,-3.459,-3.6988,-3.9223,-3.8452,-3.9792,-4.0911,-3.9481,0.0,0.0,0.0,0.0,0.0,0.0,0.0,0.0,0.0,0.0,0.0,0.0,0.0,0.0,0.0,0.0,0.0,0.0,0.0,0.0,0.0,0.0,0.0,0.0,0.0,0.0,0.0,0.0,0.0,-4.9785,-5.1728,-5.1849,-5.0055,-5.0906,-5.1097,-5.0795,-5.0243,-4.9841,0.0,0.0,-4.9816,-4.9615,-4.9866,-4.964,-4.9163,-4.9163,-4.8812,-4.8259,-4.7983,-4.738,-4.6652,-4.6401,-4.6301,-4.6301,-4.6301,-4.6301,-4.6301,-4.6301,-4.6301,-4.6301,-4.6301,-4.4999,-4.3718,-4.3954,-4.3427,-4.3111,-4.4033,-4.4998,-4.6054,-4.7008,-4.778,-4.8309,-4.8309,-4.8083,-4.7908,-4.7908,-4.7908,-4.7908,-4.7908,-4.7908,-4.7832,-4.7581,-4.7556,-4.7355,-4.6803,-4.6753,-4.6527,-4.5924,-4.5968,-4.6366,-4.7121,-4.6701,-4.6477,-4.6499,-4.5323,-4.4565,-4.4304,-4.3468,-4.2735,-4.2211,-4.1847,-4.1559,-4.1324,-4.1324,-4.0827,-3.6006,-3.8301,-4.0666,-4.0724,0.0,-4.4159,-4.2718,-4.3454,-4.4026,0.0,0.0,0.0,0.0,0.0,0.0,0.0,0.0,0.0,0.0,0.0,0.0,0.0,0.0,0.0,0.0,0.0,0.0,0.0,0.0,0.0,0.0,0.0,0.0,0.0,0.0,0.0,-4.9693,-5.1972,-5.236,-5.0875,-5.0689,-5.0469,-5.0218,-4.9791,-4.959,-4.959,-4.9464,-4.9414,-4.9389,-4.9264,-4.8962,-4.856,-4.856,-4.8234,-4.7657,-4.7129,-4.6677,-4.6301,-4.6175,-4.62,-4.6276,-4.615,-4.62,-4.6301,-4.6301,-4.6301,-4.6301,-4.6301,-4.555,-4.4767,-4.4767,-4.4003,-4.3263,-4.3599,-4.4634,-4.5667,-4.6017,-4.6958,-4.7732,-4.7732,-4.7631,-4.7531,-4.7531,-4.7531,-4.7531,-4.7531,-4.7531,-4.7531,-4.7531,-4.7531,-4.733,-4.6803,-4.6753,-4.6351,-4.549,-4.574,-4.621,-4.6913,-4.6342,-4.5947,-4.5872,-4.4645,-4.3755,-4.352,-4.2656,-4.2159,-4.1977,-4.1533,-4.1324,-4.1324,-4.1324,-4.0775,-3.9989,-4.2563,-4.466,-4.2707,-4.25,0.0,-4.513,-4.4999,-4.4933,-4.6573,0.0,0.0,0.0,0.0,0.0,0.0,0.0,0.0,0.0,0.0,0.0,0.0,0.0,0.0,0.0,0.0,0.0,0.0,0.0,0.0,0.0,0.0,0.0,0.0,0.0,0.0,-5.1861,-5.1632,-5.0702,-4.9129,-5.0553,-5.067,-4.9665,-4.9615,-4.959,-4.9565,-4.9063,-4.8837,-4.8786,-4.8259,-4.8008,-4.7958,-4.7958,-4.7657,-4.7129,-4.6577,-4.6351,-4.6225,-4.5723,-4.5874,-4.6225,-4.5723,-4.5899,-4.6301,-4.6301,-4.6301,-4.6301,-4.6301,-4.624,-4.618,-4.618,-4.6059,-4.5999,-4.6049,-4.6509,-4.6945,-4.6995,-4.7057,-4.7179,-4.7179,-4.6778,-4.6426,-4.6426,-4.6426,-4.6426,-4.6426,-4.6426,-4.6426,-4.6426,-4.6426,-4.6225,-4.5673,-4.5598,-4.5464,-4.515,-4.5674,-4.6016,-4.6068,-4.5063,-4.4372,-4.4068,-4.3991,-4.3415,-4.2368,-4.2264,-4.1899,-4.1376,-4.1324,-4.1324,-4.1324,-4.1324,-4.0984,-4.0078,-4.2673,-4.5293,-4.4501,-4.5633,0.0,0.0,-4.9408,-5.0453,-4.9368,-5.0698,0.0,0.0,0.0,0.0,0.0,0.0,0.0,0.0,0.0,0.0,0.0,0.0,0.0,0.0,0.0,0.0,0.0,0.0,0.0,0.0,0.0,0.0,0.0,0.0,0.0,0.0,-5.1548,-5.083,-4.9833,-5.0106,-4.9816,-4.9088,-4.9088,-4.8887,-4.8535,-4.8335,-4.8234,-4.8209,-4.7983,-4.7707,-4.738,-4.7054,-4.6577,-4.6075,-4.5874,-4.5799,-4.5773,-4.5573,-4.5849,-4.6276,-4.6075,-4.5899,-4.5799,-4.5799,-4.5799,-4.5799,-4.5799,-4.605,-4.6301,-4.6301,-4.6301,-4.6301,-4.6301,-4.6476,-4.6627,-4.6627,-4.6627,-4.6627,-4.6627,-4.6451,-4.6301,-4.6301,-4.6301,-4.6301,-4.6301,-4.6301,-4.6175,-4.5849,-4.5799,-4.5573,-4.502,-4.4817,-4.477,-4.4852,-4.4888,-4.486,-4.4715,-4.4637,-4.4535,-4.4408,-4.3389,-4.2656,-4.2238,-4.1821,-4.1533,-4.1324,-4.0932,-4.0749,-4.0749,-4.0409,-3.9939,-4.1373,-4.3445,-4.5712,-4.5712,0.0,0.0,-5.0185,-5.2362,-5.4027,-5.2887,-5.408,-5.4907,-5.3406,0.0,0.0,0.0,0.0,0.0,0.0,0.0,0.0,0.0,0.0,0.0,0.0,0.0,0.0,0.0,0.0,0.0,0.0,0.0,0.0,0.0,0.0,0.0,0.0,-5.1197,-5.0645,-4.9891,-4.9515,-4.9138,-4.8761,-4.8586,-4.8284,-4.7908,-4.7732,-4.7657,-4.7657,-4.7481,-4.7079,-4.6552,-4.5999,-4.5673,-4.5472,-4.5271,-4.5321,-4.5447,-4.507,-4.5321,-4.5748,-4.5573,-4.5372,-4.5221,-4.5221,-4.5221,-4.5246,-4.5447,-4.5748,-4.61,-4.6276,-4.6301,-4.6301,-4.6301,-4.6301,-4.6301,-4.6301,-4.6301,-4.625,-4.6075,-4.605,-4.605,-4.605,-4.605,-4.605,-4.605,-4.605,-4.5849,-4.5296,-4.5221,-4.4995,-4.4418,-4.4232,-4.4163,-4.4151,-4.4152,-4.4011,-4.365,-4.3833,-4.3938,-4.3912,-4.2788,-4.2133,-4.1899,-4.1507,-4.1324,-4.1324,-4.0906,-4.0697,-4.0697,-4.0331,-3.9834,-4.4769,-4.5447,-4.6301,0.0,0.0,0.0,-5.2427,-5.3331,-5.4511,-5.7323,-5.6143,-5.4491,-5.411,0.0,0.0,0.0,0.0,0.0,0.0,0.0,0.0,0.0,0.0,0.0,0.0,0.0,0.0,0.0,0.0,0.0,0.0,0.0,0.0,0.0,0.0,0.0,0.0,-5.0393,-4.9841,-4.8761,-4.8825,-4.8761,-4.8736,-4.8159,-4.7883,-4.7857,-4.733,-4.7043,-4.6993,-4.6527,-4.5974,-4.5422,-4.4844,-4.497,-4.5397,-4.4819,-4.497,-4.5321,-4.4192,-4.4166,-4.4543,-4.3991,-4.4166,-4.4618,-4.4618,-4.4618,-4.4744,-4.5321,-4.5472,-4.5598,-4.615,-4.6301,-4.6301,-4.6301,-4.6301,-4.6301,-4.6301,-4.6301,-4.6125,-4.5598,-4.5497,-4.5497,-4.5472,-4.5497,-4.5497,-4.5472,-4.5472,-4.5271,-4.4694,-4.4618,-4.4392,-4.384,-4.3873,-4.3643,-4.3054,-4.354,-4.3624,-4.3049,-4.2474,-4.2211,-4.2211,-4.2211,-4.1899,-4.1324,-4.1324,-4.1324,-4.1324,-4.1298,-4.1298,-4.1298,-4.1298,-4.0958,-4.4769,-4.5447,0.0,-4.7255,0.0,0.0,0.0,-5.3331,0.0,0.0,-5.6746,-5.5644,-5.5281,0.0,0.0,0.0,0.0,0.0,0.0,0.0,0.0,0.0,0.0,0.0,0.0,0.0,0.0,0.0,0.0,0.0,0.0,0.0,0.0,0.0,0.0,0.0,0.0,0.0,-4.8485,-4.8159,-4.7782,-4.7606,-4.7606,-4.7431,-4.6928,-4.62,-4.605,-4.5748,-4.5347,-4.5196,-4.502,-4.4869,-4.4694,-4.4493,-4.4292,-4.4116,-4.4141,-4.4267,-4.3915,-4.4166,-4.4593,-4.4443,-4.4242,-4.4041,-4.4041,-4.4041,-4.4091,-4.4242,-4.4568,-4.492,-4.507,-4.5121,-4.5321,-4.6125,-4.6301,-4.62,-4.5824,-4.5723,-4.5573,-4.4995,-4.5221,-4.5372,-4.4945,-4.5221,-4.5347,-4.4945,-4.4895,-4.4669,-4.4116,-4.3714,-4.3319,-4.2987,-4.3169,-4.3108,-4.2756,-4.3074,-4.3023,-4.2448,-4.2316,-4.2211,-4.2211,-4.1768,-4.1481,-4.1324,-4.1324,-4.1324,-4.1324,-4.088,-4.0488,-4.0095,-3.9677,-3.9181,-4.4392,0.0,0.0,0.0,-4.9339,-5.1247,-5.3155,0.0,0.0,0.0,0.0,0.0,0.0,0.0,0.0,0.0,0.0,0.0,0.0,0.0,0.0,0.0,0.0,0.0,0.0,0.0,0.0,0.0,0.0,0.0,0.0,0.0,0.0,0.0,0.0,0.0,0.0,0.0,0.0,-4.728,-4.6728,-4.6351,-4.609,-4.6376,-4.5999,-4.5146,-4.5146,-4.4945,-4.4593,-4.4392,-4.4292,-4.4267,-4.4066,-4.389,-4.3765,-4.3564,-4.3614,-4.3765,-4.3564,-4.3689,-4.3966,-4.3966,-4.374,-4.3463,-4.3463,-4.3463,-4.3514,-4.374,-4.4041,-4.4342,-4.4568,-4.4618,-4.4794,-4.5472,-4.5648,-4.5547,-4.5221,-4.5146,-4.497,-4.4392,-4.4568,-4.4719,-4.4342,-4.4593,-4.4694,-4.4342,-4.4116,-4.384,-4.3514,-4.2986,-4.2645,-4.2591,-4.2662,-4.2571,-4.2267,-4.2528,-4.2448,-4.1873,-4.1821,-4.1821,-4.1821,-4.1507,-4.1193,-4.0958,-4.0958,-4.0853,-4.0644,-4.0278,-3.9939,-3.9599,-3.9233,-3.8762,0.0,0.0,0.0,0.0,0.0,0.0,0.0,0.0,-5.878,0.0,0.0,0.0,0.0,0.0,0.0,0.0,0.0,0.0,0.0,0.0,0.0,0.0,0.0,0.0,0.0,0.0,0.0,0.0,0.0,0.0,0.0,0.0,0.0,0.0,0.0,0.0,0.0,0.0,0.0,0.0,-4.5648,-4.5121,-4.4568,-4.5146,-4.5095,-4.4543,-4.4493,-4.4468,-4.4443,-4.394,-4.374,-4.3664,-4.3112,-4.3212,-4.3589,-4.3037,-4.3187,-4.3589,-4.3087,-4.2936,-4.2986,-4.2986,-4.2986,-4.2986,-4.2986,-4.2986,-4.3087,-4.3589,-4.374,-4.384,-4.4342,-4.4468,-4.4468,-4.4468,-4.4543,-4.4618,-4.4568,-4.4543,-4.4392,-4.384,-4.3765,-4.379,-4.374,-4.3765,-4.3765,-4.3664,-4.3212,-4.2886,-4.2836,-4.2439,-4.2221,-4.2468,-4.2307,-4.2032,-4.1698,-4.1929,-4.1873,-4.135,-4.1324,-4.1324,-4.1324,-4.1324,-4.1036,-4.0435,-4.0409,-4.0148,-3.9599,-3.9599,-3.9573,-3.952,-3.952,-3.9207,0.0,0.0,0.0,0.0,0.0,0.0,0.0,0.0,0.0,0.0,0.0,0.0,0.0,0.0,0.0,0.0,0.0,0.0,0.0,0.0,0.0,0.0,0.0,0.0,0.0,0.0,0.0,0.0,0.0,0.0,0.0,0.0,0.0,0.0,0.0,0.0,-4.6652,-4.5673,-4.5095,0.0,-4.4869,-4.4518,-4.3991,-4.4543,-4.4493,-4.3966,-4.3514,-4.3338,-4.3313,-4.3212,-4.3162,-4.3112,-4.2615,-4.2464,-4.2434,-4.1907,-4.2032,-4.2539,-4.2439,-4.2665,-4.2986,-4.2986,-4.2986,-4.2986,-4.2986,-4.2986,-4.3011,-4.3112,-4.3162,-4.3187,-4.3288,-4.3338,-4.3338,-4.3338,-4.3991,-4.4493,-4.4066,-4.3991,-4.3815,-4.3263,-4.3514,-4.3664,-4.3237,-4.3514,-4.3514,-4.269,-4.2464,-4.2183,-4.1756,-4.1742,-4.1757,-4.1589,-4.1697,-4.1698,-4.1382,-4.1457,-4.1455,-4.1324,-4.1324,-4.1324,-4.1324,-4.1324,-4.1036,-4.0435,-4.0409,-4.0148,-3.9599,-3.9599,-3.9364,-3.8893,-3.8893,-3.8606,0.0,0.0,0.0,0.0,0.0,0.0,0.0,0.0,0.0,0.0,0.0,0.0,0.0,0.0,0.0,0.0,0.0,0.0,0.0,0.0,0.0,0.0,0.0,0.0,0.0,0.0,0.0,0.0,0.0,0.0,0.0,0.0,0.0,0.0,0.0,0.0,-4.5497,-4.4644,-4.4242,-4.4217,-4.3966,-4.3539,-4.3037,-4.3589,-4.3689,-4.3363,-4.2866,-4.264,-4.2615,-4.2308,-4.2183,-4.2158,-4.1882,-4.1756,-4.1731,-4.1401,-4.153,-4.1756,-4.1756,-4.2133,-4.259,-4.2283,-4.2559,-4.2936,-4.266,-4.2816,-4.2986,-4.2986,-4.2986,-4.2986,-4.2986,-4.2986,-4.2986,-4.2986,-4.3413,-4.3765,-4.3463,-4.3413,-4.3313,-4.3037,-4.3212,-4.3313,-4.3037,-4.2986,-4.2735,-4.1882,-4.1864,-4.1872,-4.1515,-4.1504,-4.1487,-4.1466,-4.1389,-4.1308,-4.13,-4.1324,-4.1324,-4.1324,-4.1324,-4.1324,-4.1324,-4.1324,-4.1036,-4.0435,-4.0174,-3.9756,-3.9181,-3.8919,-3.8632,-3.8318,-3.8318,-3.8161,0.0,0.0,0.0,0.0,0.0,0.0,0.0,0.0,0.0,0.0,0.0,0.0,0.0,0.0,0.0,0.0,0.0,0.0,0.0,0.0,0.0,0.0,0.0,0.0,0.0,0.0,0.0,0.0,0.0,0.0,0.0,0.0,0.0,0.0,0.0,-4.5422,-4.4493,-4.394,-4.3614,-4.3514,-4.2961,-4.2459,-4.2087,-4.2484,-4.2685,-4.266,-4.2208,-4.2062,-4.2037,-4.153,-4.1275,-4.1275,-4.1175,-4.115,-4.1125,-4.105,-4.1075,-4.115,-4.115,-4.1555,-4.1957,-4.1605,-4.2082,-4.2816,-4.2464,-4.2665,-4.2986,-4.2986,-4.2986,-4.2986,-4.2986,-4.2986,-4.2986,-4.2986,-4.2911,-4.2836,-4.2836,-4.2836,-4.2811,-4.271,-4.2685,-4.2735,-4.2811,-4.2439,-4.1831,-4.1225,-4.1339,-4.1448,-4.14,-4.1256,-4.1235,-4.1544,-4.1231,-4.1047,-4.1274,-4.1324,-4.1324,-4.1324,-4.1324,-4.1324,-4.1324,-4.1219,-4.0932,-4.0435,-3.9886,-3.9259,-3.8579,-3.8109,-3.79,-3.79,-3.79,-3.79,0.0,0.0,0.0,0.0,0.0,0.0,0.0,0.0,0.0,0.0,0.0,0.0,0.0,0.0,0.0,0.0,0.0,0.0,0.0,0.0,0.0,0.0,0.0,0.0,0.0,0.0,0.0,0.0,0.0,0.0,0.0,0.0,-4.6527,-4.6326,-4.4895,0.0,-4.3915,-4.3363,-4.2836,-4.2414,-4.1831,-4.1476,-4.1401,-4.1476,-4.1501,-4.1501,-4.1426,-4.1401,-4.1376,-4.13,-4.1275,-4.1225,-4.0802,-4.0626,-4.0576,-4.0099,-4.0224,-4.0626,-4.0626,-4.0924,-4.1505,-4.1907,-4.2187,-4.2389,-4.2735,-4.2911,-4.2986,-4.2986,-4.2986,-4.2986,-4.2986,-4.2986,-4.2986,-4.2986,-4.2665,-4.2313,-4.2313,-4.2313,-4.2133,-4.1656,-4.1501,-4.1706,-4.2238,-4.1806,-4.1254,-4.0701,-4.0626,-4.0608,-4.0362,-4.0492,-4.0721,-4.1,-4.1149,-4.1274,-4.1324,-4.1324,-4.1324,-4.1324,-4.1324,-4.1324,-4.1324,-4.0801,-4.0488,-4.0409,-3.9886,-3.9076,-3.8004,-3.7926,-3.79,-3.79,-3.79,-3.79,0.0,0.0,0.0,0.0,0.0,0.0,0.0,0.0,0.0,0.0,0.0,0.0,0.0,0.0,0.0,0.0,0.0,0.0,0.0,0.0,0.0,0.0,0.0,0.0,0.0,0.0,0.0,0.0,0.0,0.0,0.0,-4.6426,-4.5573,-4.492,-4.4192,0.0,-4.2886,-4.269,-4.2233,-4.1681,-4.1153,-4.0824,-4.0824,-4.0551,-4.0752,-4.1275,-4.0949,-4.0824,-4.0852,-4.0551,-4.0425,-4.04,-4.0149,-4.0049,-4.0023,-3.9798,-3.9848,-4.0049,-4.0049,-4.0425,-4.0927,-4.1153,-4.1656,-4.2187,-4.2082,-4.2484,-4.2911,-4.2665,-4.2791,-4.2986,-4.2986,-4.2986,-4.2911,-4.264,-4.2389,-4.2037,-4.1379,-4.148,-4.163,-4.1326,-4.1275,-4.1304,-4.1254,-4.1053,-4.0701,-4.0149,-4.0308,-4.0465,-4.0338,-4.0694,-4.0997,-4.1097,-4.1198,-4.1324,-4.1324,-4.1324,-4.1324,-4.1324,-4.101,-4.0801,-4.0801,-4.0252,-3.9808,-3.9468,-3.9233,-3.8867,-3.8344,-3.8057,-3.79,-3.79,-3.79,-3.79,0.0,0.0,0.0,0.0,0.0,0.0,0.0,0.0,0.0,0.0,0.0,0.0,0.0,0.0,0.0,0.0,0.0,0.0,0.0,0.0,0.0,0.0,0.0,0.0,0.0,0.0,0.0,0.0,0.0,0.0,-4.6527,-4.5723,-4.4869,-4.4041,-4.374,-4.3187,-4.2414,-4.2137,-4.1681,-4.1075,-4.0576,-4.03,-4.03,-3.9873,-4.0149,-4.0902,-4.0475,-4.03,-4.0275,-3.9873,-3.9697,-3.9697,-3.9697,-3.9697,-3.9697,-3.9697,-3.9697,-3.9697,-3.9697,-3.9973,-4.0325,-4.0475,-4.1178,-4.1907,-4.163,-4.2208,-4.2886,-4.2539,-4.2715,-4.2986,-4.2986,-4.2986,-4.2836,-4.2338,-4.2112,-4.1681,-4.0727,-4.0774,-4.1075,-4.1075,-4.1075,-4.0949,-4.0601,-4.04,-4.0174,-3.9747,-4.0083,-4.0389,-4.0517,-4.0896,-4.1198,-4.1274,-4.1324,-4.1324,-4.1324,-4.1167,-4.1089,-4.1089,-4.054,-4.02,-4.02,-3.9677,-3.9181,-3.871,-3.8579,-3.8501,-3.8501,-3.8109,-3.79,-3.79,-3.79,-3.79,0.0,0.0,0.0,0.0,0.0,0.0,0.0,0.0,0.0,0.0,0.0,0.0,0.0,0.0,0.0,0.0,0.0,0.0,0.0,0.0,0.0,0.0,0.0,0.0,0.0,0.0,0.0,0.0,0.0,0.0,-4.6993,-4.5547,-4.4644,-4.4593,-4.3564,-4.2986,-4.2936,-4.1907,-4.1103,-4.0551,-3.9998,-3.9747,-3.9747,-3.9697,-3.9722,-3.9772,-3.9747,-3.9747,-3.9747,-3.9697,-3.9697,-3.9697,-3.9697,-3.9697,-3.9697,-3.9697,-3.9697,-3.9697,-3.9697,-3.9722,-3.9823,-4.035,-4.0902,-4.148,-4.1957,-4.2564,-4.2961,-4.2936,-4.2961,-4.2986,-4.2986,-4.2986,-4.2836,-4.2338,-4.1756,-4.1175,-4.0651,-4.0551,-4.0551,-4.0551,-4.0551,-4.0551,-4.0526,-4.0074,-3.9722,-3.9697,-3.9929,-4.0236,-4.044,-4.0744,-4.1047,-4.1274,-4.1324,-4.1324,-4.1324,-4.0801,-4.0461,-4.0461,-3.9939,-3.9651,-3.9651,-3.9076,-3.8736,-3.871,-3.8214,-3.7952,-3.7952,-3.7926,-3.79,-3.79,-3.79,-3.79,0.0,0.0,0.0,0.0,0.0,0.0,0.0,0.0,0.0,0.0,0.0,0.0,0.0,0.0,0.0,0.0,0.0,0.0,0.0,0.0,0.0,0.0,0.0,0.0,0.0,0.0,0.0,0.0,0.0,0.0,-4.5522,-4.4618,-4.394,-4.3589,-4.2891,-4.2108,-4.1404,-4.0651,-4.0199,-3.9998,-3.9798,-3.9697,-3.9697,-3.9697,-3.9697,-3.9697,-3.9697,-3.9697,-3.9697,-3.9697,-3.9697,-3.9697,-3.9697,-3.9697,-3.9697,-3.9697,-3.9697,-3.9697,-3.9697,-3.9697,-3.9798,-4.035,-4.0651,-4.0852,-4.1028,-4.148,-4.1932,-4.1932,-4.2183,-4.259,-4.2886,-4.2986,-4.276,-4.1831,-4.1204,-4.0651,-4.0099,-3.9998,-3.9998,-3.9998,-3.9998,-3.9998,-3.9998,-3.9823,-3.9697,-3.9697,-4.0083,-4.0389,-4.0517,-4.0896,-4.1198,-4.1274,-4.1324,-4.1324,-4.1324,-4.0775,-4.0409,-4.0409,-3.9547,-3.9024,-3.9024,-3.8501,-3.8187,-3.8187,-3.8004,-3.79,-3.79,-3.79,-3.79,-3.79,-3.79,-3.79,-4.276,0.0,0.0,0.0,0.0,0.0,0.0,0.0,0.0,0.0,0.0,0.0,0.0,0.0,0.0,0.0,0.0,0.0,0.0,0.0,0.0,0.0,0.0,0.0,0.0,0.0,0.0,0.0,0.0,0.0,-4.4644,-4.4091,-4.3463,-4.2766,-4.2158,-4.143,-4.0526,-4.0149,-3.9873,-3.9697,-3.9697,-3.9697,-3.9697,-3.9697,-3.9697,-3.9697,-3.9697,-3.9697,-3.9697,-3.9697,-3.9697,-3.9697,-3.9697,-3.9697,-3.9697,-3.9697,-3.9697,-3.9697,-3.9697,-3.9697,-3.9747,-4.0124,-4.0375,-4.0526,-4.0526,-4.0849,-4.1275,-4.1275,-4.1731,-4.2288,-4.2665,-4.2559,-4.2183,-4.1225,-4.0651,-4.0149,-3.9772,-3.9973,-4.0149,-3.9772,-3.9848,-3.9898,-3.9722,-3.9697,-3.9749,-3.9826,-4.0185,-4.0542,-4.0593,-4.0997,-4.1324,-4.1324,-4.1324,-4.1246,-4.1036,-4.0488,-4.0148,-4.0148,-3.9233,-3.8789,-3.8998,-3.8658,-3.837,-3.8187,-3.8161,-3.8083,-3.79,-3.79,-3.79,-3.79,-3.79,-3.79,0.0,0.0,0.0,0.0,0.0,0.0,0.0,0.0,0.0,0.0,0.0,0.0,0.0,0.0,0.0,0.0,0.0,0.0,0.0,0.0,0.0,0.0,0.0,0.0,0.0,0.0,0.0,0.0,0.0,-4.4041,-4.4543,-4.4041,-4.3237,-4.2187,-4.1605,-4.1,-4.0501,-4.0501,-4.0224,-3.9697,-3.9697,-3.9697,-3.9697,-3.9697,-3.9697,-3.9697,-3.9697,-3.9697,-3.9697,-3.9697,-3.9697,-3.9697,-3.9697,-3.9697,-3.9697,-3.9697,-3.9697,-3.9697,-3.9697,-3.9697,-3.9697,-3.9697,-4.0049,-4.0501,-4.0501,-4.0852,-4.125,-4.125,-4.1706,-4.2162,-4.2187,-4.1731,-4.115,-4.0651,-4.0124,-3.9747,-3.9697,-4.0551,-4.0949,-3.9898,-4.0124,-4.0325,-3.9798,-3.9697,-3.98,-4.0083,-4.0338,-4.0593,-4.0896,-4.1147,-4.1324,-4.1324,-4.1324,-4.1089,-4.0488,-3.9939,-3.9625,-3.9625,-3.9076,-3.8998,-3.9599,-3.9599,-3.9311,-3.871,-3.8684,-3.8423,-3.79,-3.79,-3.79,-3.79,-3.79,-3.79,-4.1605,0.0,0.0,0.0,0.0,0.0,0.0,0.0,0.0,0.0,0.0,0.0,0.0,0.0,0.0,0.0,0.0,0.0,0.0,0.0,0.0,0.0,0.0,0.0,0.0,0.0,0.0,0.0,0.0,-4.4116,-4.3463,-4.2534,-4.1706,-4.0978,-4.0827,-4.0475,-3.9923,-3.9923,-3.9848,-3.9697,-3.9697,-3.9697,-3.9697,-3.9697,-3.9697,-3.9697,-3.9697,-3.9697,-3.9697,-3.9697,-3.9697,-3.9697,-3.9697,-3.9697,-3.9697,-3.9697,-3.9697,-3.9697,-3.9697,-3.9697,-3.9697,-3.9697,-3.9798,-3.9923,-3.9923,-4.0023,-4.0224,-4.0626,-4.0852,-4.1053,-4.1455,-4.1401,-4.115,-4.0651,-4.0701,-4.0651,-3.9873,-4.0249,-4.0526,-3.9823,-3.9823,-3.9873,-3.9722,-3.9826,-4.0032,-4.0083,-4.0491,-4.0846,-4.0896,-4.1147,-4.1324,-4.1324,-4.1324,-4.1246,-4.1089,-4.054,-4.02,-4.02,-3.9677,-3.9442,-3.9599,-3.9181,-3.8893,-3.871,-3.8318,-3.8057,-3.79,-3.79,-3.79,-3.79,-3.79,-3.79,-4.1806,-4.1856,-4.2258,0.0,0.0,0.0,0.0,0.0,0.0,0.0,0.0,0.0,0.0,0.0,0.0,0.0,0.0,0.0,0.0,0.0,0.0,0.0,0.0,0.0,0.0,0.0,0.0,0.0,-4.3413,-4.3212,-4.2333,-4.148,-4.0852,-4.0526,-4.03,-4.0023,-3.9697,-3.9697,-3.9697,-3.9697,-3.9697,-3.9697,-3.9697,-3.9697,-3.9697,-3.9697,-3.9697,-3.9697,-3.9697,-3.9697,-3.9697,-3.9697,-3.9697,-3.9697,-3.9697,-3.9697,-3.9697,-3.9697,-3.9697,-3.9697,-3.9697,-3.9697,-3.9697,-3.9697,-3.9697,-3.9697,-3.9772,-4.0074,-4.035,-4.0601,-4.0902,-4.1003,-4.0852,-4.03,-4.0425,-4.0475,-3.9848,-3.9948,-4.0074,-3.9747,-3.9697,-3.9697,-3.9697,-3.9929,-4.0134,-4.0236,-4.0643,-4.0946,-4.1047,-4.1198,-4.1324,-4.1324,-4.1324,-4.1219,-4.0958,-4.0618,-4.0409,-4.0409,-4.0122,-3.9939,-3.9939,-3.9599,-3.9207,-3.871,-3.8397,-3.8135,-3.79,-3.79,-3.79,-3.79,-3.79,-3.79,-4.2439,-4.2564,-4.3237,-4.4744,0.0,0.0,-4.2137,-4.1731,-4.1225,0.0,0.0,0.0,0.0,0.0,0.0,0.0,0.0,0.0,0.0,0.0,0.0,0.0,0.0,0.0,0.0,0.0,0.0,-4.2162,-4.2062,-4.1756,-4.1225,-4.0727,-4.0425,-4.0425,-4.0,-3.9749,-3.9697,-3.9697,-3.9697,-3.9697,-3.9697,-3.9697,-3.9697,-3.9697,-3.9672,-3.9597,-3.9672,-3.9672,-3.9597,-3.9672,-3.9697,-3.9697,-3.9697,-3.9697,-3.9697,-3.9697,-3.9697,-3.9697,-3.9697,-3.9697,-3.9697,-3.9697,-3.9697,-3.9697,-3.9697,-3.9697,-3.9697,-3.9697,-4.0049,-4.0425,-4.0425,-4.0475,-4.0375,-3.9823,-3.9747,-3.9772,-3.9697,-3.9697,-3.9697,-3.9697,-3.9697,-3.9697,-3.9697,-3.9929,-4.0236,-4.044,-4.0744,-4.1047,-4.1274,-4.1324,-4.1324,-4.1324,-4.1324,-4.1063,-4.0461,-4.0409,-4.0383,-4.0331,-4.0331,-4.0331,-4.0331,-4.0252,-3.9756,-3.8736,-3.8658,-3.8397,-3.79,-3.79,-3.79,-3.79,-3.79,-3.79,-4.2037,-4.2288,-4.2439,0.0,0.0,0.0,-4.1706,-4.1756,-4.1957,0.0,0.0,0.0,0.0,0.0,0.0,0.0,0.0,0.0,0.0,0.0,0.0,0.0,0.0,0.0,0.0,0.0,0.0,-4.153,-4.1103,-4.0802,-4.0676,-4.0332,-4.0106,-3.9848,-3.9928,-3.9929,-3.9697,-3.9697,-3.9697,-3.9697,-3.9697,-3.9697,-3.9697,-3.9697,-3.9446,-3.9069,-3.9496,-3.9446,-3.9069,-3.9521,-3.9697,-3.9697,-3.9697,-3.9697,-3.9697,-3.9697,-3.9697,-3.9697,-3.9697,-3.9697,-3.9697,-3.9697,-3.9697,-3.9697,-3.9697,-3.9697,-3.9697,-3.9697,-3.9772,-3.9848,-3.9848,-4.0199,-4.0375,-3.9823,-4.0023,-4.0249,-3.9798,-3.9697,-3.9697,-3.9697,-3.9697,-3.9697,-3.9697,-4.0083,-4.0466,-4.0517,-4.0896,-4.1248,-4.1274,-4.1324,-4.1324,-4.1324,-4.1324,-4.1063,-4.0461,-4.0409,-4.0226,-3.9782,-3.9782,-3.9782,-3.9782,-3.9311,-3.8945,-3.871,-3.8292,-3.8004,-3.79,-3.79,-3.79,-3.79,-3.79,-3.79,0.0,0.0,0.0,-4.3313,0.0,0.0,0.0,-4.153,0.0,0.0,0.0,0.0,0.0,0.0,0.0,0.0,0.0,0.0,0.0,0.0,0.0,0.0,0.0,0.0,0.0,0.0,-4.153,-4.0924,-4.0505,-4.0307,-4.0307,-4.0184,-4.0083,-4.0108,-3.9981,-3.9878,-3.9878,-3.98,-3.9697,-3.9697,-3.9697,-3.9697,-3.9697,-3.9697,-3.9396,-3.8894,-3.917,-3.912,-3.8944,-3.917,-3.9446,-3.9697,-3.9697,-3.9697,-3.9697,-3.9697,-3.9697,-3.9697,-3.9697,-3.9697,-3.9697,-3.9697,-3.9697,-3.9697,-3.9697,-3.9697,-3.9697,-3.9697,-3.9697,-3.9697,-3.9697,-3.9898,-4.0049,-3.9747,-3.9898,-4.0023,-3.9747,-3.9697,-3.9697,-3.9697,-3.98,-3.9878,-3.9878,-4.0236,-4.0542,-4.0694,-4.1047,-4.1324,-4.1324,-4.1324,-4.1324,-4.1324,-4.1036,-4.0749,-4.0435,-4.0174,-3.9886,-3.9625,-3.9599,-3.9468,-3.9181,-3.9155,-3.9024,-3.871,-3.8449,-3.8161,-3.79,-3.79,-3.79,-3.79,-3.79,-3.79,0.0,0.0,0.0,0.0,0.0,-4.3087,0.0,0.0,0.0,0.0,0.0,0.0,0.0,0.0,0.0,0.0,0.0,0.0,0.0,0.0,0.0,0.0,0.0,0.0,0.0,0.0,-4.0955,-4.0302,-4.0336,-4.0236,-3.9931,-4.0109,-4.0236,-4.0236,-3.9931,-3.9829,-3.9931,-3.9726,-3.9648,-3.9697,-3.9697,-3.9697,-3.9697,-3.9697,-3.932,-3.8718,-3.8869,-3.8818,-3.8718,-3.8818,-3.9195,-3.9697,-3.9697,-3.9697,-3.9697,-3.9697,-3.9697,-3.9697,-3.9697,-3.9697,-3.9697,-3.9697,-3.9697,-3.9697,-3.9697,-3.9697,-3.9697,-3.9697,-3.9697,-3.9697,-3.9697,-3.9697,-3.9697,-3.9697,-3.9697,-3.9697,-3.9697,-3.9697,-3.9749,-3.98,-3.9929,-4.0083,-4.0083,-4.0389,-4.0643,-4.0896,-4.1147,-4.1324,-4.1324,-4.1324,-4.1324,-4.1324,-4.0775,-4.0383,-4.0278,-3.9756,-3.939,-3.9285,-3.9285,-3.905,-3.8579,-3.9024,-3.905,-3.8579,-3.8553,-3.8344,-3.79,-3.79,-3.79,-3.79,-3.79,-3.79,0.0,0.0,0.0,0.0,-4.3815,0.0,0.0,0.0,0.0,0.0,0.0,0.0,0.0,0.0,0.0,0.0,0.0,0.0,0.0,0.0,0.0,0.0,0.0,0.0,0.0,0.0,0.0,-3.9424,-4.0517,-4.0696,-3.9348,-4.026,-4.0361,-3.9373,-3.9748,-3.9748,-3.9297,-3.9297,-3.9398,-3.9697,-3.9697,-3.9697,-3.9697,-3.9697,-3.912,-3.814,-3.8642,-3.8567,-3.814,-3.8668,-3.9195,-3.9697,-3.9697,-3.9697,-3.9697,-3.9697,-3.9697,-3.9697,-3.9697,-3.9697,-3.9697,-3.9697,-3.9697,-3.9697,-3.9697,-3.9697,-3.9697,-3.9697,-3.9697,-3.9697,-3.9697,-3.9697,-3.9697,-3.9697,-3.9697,-3.9697,-3.9697,-3.9697,-3.98,-4.0032,-4.0083,-4.0083,-4.0083,-4.0542,-4.0846,-4.0896,-4.1147,-4.1324,-4.1324,-4.1324,-4.1324,-4.1324,-4.0775,-4.0226,-3.973,-3.9155,-3.8606,-3.8135,-3.8109,-3.8057,-3.8004,-3.8057,-3.8057,-3.8004,-3.8004,-3.7978,-3.79,-3.79,-3.79,-3.79,-3.79,-3.79,0.0,0.0,0.0,0.0,0.0,0.0,-4.3187,0.0,-4.2359,0.0,0.0,0.0,0.0,0.0,0.0,0.0,0.0,0.0,0.0,0.0,0.0,0.0,0.0,0.0,0.0,0.0,0.0,0.0,0.0,-4.0262,-3.884,-3.934,-3.9537,-3.9208,-3.9109,-3.906,-3.8962,-3.8665,-3.8567,-3.8718,-3.8718,-3.8894,-3.922,-3.922,-3.8768,-3.8015,-3.8266,-3.8241,-3.8015,-3.8266,-3.8894,-3.9697,-3.9697,-3.9697,-3.9697,-3.9697,-3.9697,-3.9697,-3.9697,-3.9697,-3.9697,-3.9697,-3.9697,-3.9697,-3.9697,-3.9697,-3.9697,-3.9697,-3.9697,-3.9697,-3.9697,-3.9697,-3.9697,-3.9697,-3.9697,-3.9697,-3.9697,-3.9826,-3.9981,-4.0083,-4.0338,-4.0567,-4.0567,-4.0744,-4.0946,-4.1097,-4.0911,-4.0801,-4.0801,-4.0514,-4.0331,-4.0331,-3.9782,-3.9337,-3.9102,-3.8579,-3.8135,-3.7926,-3.79,-3.8057,-3.837,-3.837,-3.837,-3.837,-3.837,-3.8214,-3.79,-3.79,-3.79,-3.79,-3.79,-3.79,-4.2715,0.0,0.0,0.0,0.0,0.0,0.0,0.0,0.0,0.0,0.0,0.0,0.0,0.0,0.0,-4.158,0.0,0.0,0.0,0.0,0.0,0.0,0.0,0.0,0.0,0.0,0.0,0.0,-4.0031,0.0,-3.8477,-3.8771,-3.8965,-3.8859,-3.8569,-3.8424,-3.8472,-3.8083,-3.7913,-3.8015,-3.8015,-3.8316,-3.8919,-3.8919,-3.8542,-3.8015,-3.8165,-3.814,-3.8015,-3.8191,-3.8818,-3.9697,-3.9697,-3.9697,-3.9697,-3.9697,-3.9697,-3.9697,-3.9697,-3.9697,-3.9697,-3.9697,-3.9697,-3.9697,-3.9697,-3.9697,-3.9697,-3.9697,-3.9697,-3.9697,-3.9697,-3.9697,-3.9697,-3.9697,-3.9697,-3.9749,-3.98,-3.9981,-4.0134,-4.0287,-4.0618,-4.0946,-4.0997,-4.0867,-4.0863,-4.1013,-4.0697,-4.0409,-4.0409,-4.0226,-4.0069,-4.0069,-3.9547,-3.9128,-3.8972,-3.8449,-3.8057,-3.7926,-3.79,-3.8083,-3.8475,-3.8475,-3.8475,-3.8475,-3.8475,-3.8292,-3.79,-3.79,-3.79,-3.79,-3.79,-3.7992,0.0,0.0,0.0,-4.2861,0.0,0.0,0.0,0.0,-4.2785,0.0,0.0,0.0,0.0,-4.2936,-4.276,-4.2263,-4.264,0.0,0.0,0.0,0.0,0.0,0.0,0.0,0.0,0.0,0.0,0.0,-4.133,0.0,-3.8441,-3.9094,-3.9051,-3.8005,-3.8217,-3.8148,-3.767,-3.7622,-3.7731,-3.8015,-3.8015,-3.8316,-3.8919,-3.8919,-3.8542,-3.804,-3.8592,-3.8517,-3.804,-3.8617,-3.917,-3.9697,-3.9697,-3.9697,-3.9697,-3.9697,-3.9697,-3.9697,-3.9697,-3.9697,-3.9697,-3.9697,-3.9697,-3.9697,-3.9697,-3.9697,-3.9697,-3.9697,-3.9697,-3.9697,-3.9697,-3.9697,-3.9697,-3.9697,-3.9697,-3.98,-4.0032,-4.0083,-4.0236,-4.0795,-4.0896,-4.0997,-4.1248,-4.0778,-4.0435,-4.0435,-4.0435,-4.0409,-4.0409,-4.0906,-4.1272,-4.1272,-4.0723,-4.0148,-3.9625,-3.9024,-3.8449,-3.7926,-3.79,-3.7926,-3.7926,-3.7926,-3.7926,-3.7926,-3.7926,-3.7926,-3.79,-3.79,-3.79,-3.79,-3.79,-3.8129,0.0,0.0,-4.1731,-4.2363,0.0,0.0,0.0,0.0,0.0,0.0,0.0,0.0,0.0,-4.2484,-4.2785,-4.2313,-4.3159,-4.3473,0.0,0.0,0.0,0.0,0.0,0.0,0.0,0.0,0.0,-3.8817,-3.8929,-3.839,0.0,-3.7171,-3.7304,-3.7082,-3.7202,-3.7202,-3.7013,-3.6871,-3.683,-3.691,-3.691,-3.7211,-3.7764,-3.7764,-3.7638,-3.7462,-3.7663,-3.7638,-3.7513,-3.8065,-3.8642,-3.9195,-3.9546,-3.9697,-3.9697,-3.9697,-3.9697,-3.9697,-3.9697,-3.9697,-3.9697,-3.9697,-3.9697,-3.9697,-3.9697,-3.9697,-3.9697,-3.9697,-3.9697,-3.9697,-3.9697,-3.9697,-3.9697,-3.9697,-3.9697,-3.98,-4.0032,-4.0236,-4.0491,-4.0846,-4.1047,-4.1198,-4.1274,-4.0514,-4.0148,-4.0906,-4.0357,-4.0017,-4.0357,-4.0278,-4.0043,-3.9625,-3.9416,-3.9076,-3.8527,-3.8292,-3.8109,-3.7926,-3.79,-3.79,-3.79,-3.79,-3.79,-3.79,-3.79,-3.79,-3.79,-3.79,-3.79,-3.79,-3.79,-3.7992,-4.0949,-4.1,0.0,0.0,-4.1605,0.0,-4.1781,0.0,0.0,0.0,0.0,0.0,0.0,0.0,-4.3369,-4.2725,-4.3371,-4.3436,0.0,-4.1389,0.0,0.0,0.0,0.0,0.0,0.0,-4.0452,-3.8015,-3.7981,-3.75,0.0,0.0,-3.6427,-3.6684,-3.6709,-3.6662,-3.6593,-3.6452,-3.6405,-3.6405,-3.6405,-3.6707,-3.7186,-3.7186,-3.7186,-3.7186,-3.7387,-3.7362,-3.7236,-3.7789,-3.8216,-3.8617,-3.917,-3.9396,-3.9421,-3.9622,-3.9697,-3.9697,-3.9697,-3.9697,-3.9697,-3.9697,-3.9697,-3.9697,-3.9697,-3.9697,-3.9647,-3.9446,-3.9546,-3.9647,-3.9446,-3.9546,-3.9697,-3.9697,-3.98,-3.9929,-4.0185,-4.044,-4.0694,-4.0997,-4.1147,-4.1324,-4.1324,-4.0357,-3.9913,-4.0853,-4.0017,-3.9494,-4.0043,-3.9834,-3.9468,-3.9076,-3.9024,-3.8789,-3.824,-3.8004,-3.79,-3.79,-3.79,-3.79,-3.79,-3.79,-3.8004,-3.8187,-3.8004,-3.8004,-3.8187,-3.8004,-3.79,-3.79,-3.8083,-3.8175]}]]